<?xml version="1.0" encoding="UTF-8" standalone="no" ?>
<gpx xmlns="http://www.topografix.com/GPX/1/1" xmlns:xsi="http://www.w3.org/2001/XMLSchema-instance" xsi:schemaLocation="http://www.topografix.com/GPX/1/1 http://www.topografix.com/GPX/1/1/gpx.xsd" version="1.1" creator="VisuGPX - https://www.visugpx.com">
  <metadata>
    <name>2017-11-18 boucle autour de FANJEAUX (11)</name>
    <desc><![CDATA[boucle autour de FANJEAUX (11) réunion des boucles balisées "le bois de la Hille" et "les paysages" du topo guide Piège et Lauragais ]]></desc>
  </metadata>
  <trk>
    <name><![CDATA[2017-11-18 16:33:31]]></name>
    <trkseg>
      <trkpt lat="43.18605" lon="2.03233">
        <ele>393.32</ele>
        <time>2017-11-18T08:25:02Z</time>
      </trkpt>
      <trkpt lat="43.18623" lon="2.03242">
        <ele>340.44</ele>
        <time>2017-11-18T08:30:29Z</time>
      </trkpt>
      <trkpt lat="43.18623" lon="2.03246">
        <ele>340.44</ele>
        <time>2017-11-18T08:30:49Z</time>
      </trkpt>
      <trkpt lat="43.18623" lon="2.03247">
        <ele>340.44</ele>
        <time>2017-11-18T08:31:13Z</time>
      </trkpt>
      <trkpt lat="43.18622" lon="2.03252">
        <ele>340.92</ele>
        <time>2017-11-18T08:31:24Z</time>
      </trkpt>
      <trkpt lat="43.18622" lon="2.03267">
        <ele>339.48</ele>
        <time>2017-11-18T08:31:36Z</time>
      </trkpt>
      <trkpt lat="43.1862" lon="2.03271">
        <ele>339.48</ele>
        <time>2017-11-18T08:31:39Z</time>
      </trkpt>
      <trkpt lat="43.18614" lon="2.03274">
        <ele>338.52</ele>
        <time>2017-11-18T08:31:44Z</time>
      </trkpt>
      <trkpt lat="43.18603" lon="2.03277">
        <ele>337.08</ele>
        <time>2017-11-18T08:31:54Z</time>
      </trkpt>
      <trkpt lat="43.18594" lon="2.03281">
        <ele>336.6</ele>
        <time>2017-11-18T08:32:01Z</time>
      </trkpt>
      <trkpt lat="43.18588" lon="2.03285">
        <ele>335.64</ele>
        <time>2017-11-18T08:32:07Z</time>
      </trkpt>
      <trkpt lat="43.18583" lon="2.03289">
        <ele>334.68</ele>
        <time>2017-11-18T08:32:11Z</time>
      </trkpt>
      <trkpt lat="43.18572" lon="2.03309">
        <ele>332.75</ele>
        <time>2017-11-18T08:32:27Z</time>
      </trkpt>
      <trkpt lat="43.18563" lon="2.03336">
        <ele>331.79</ele>
        <time>2017-11-18T08:32:44Z</time>
      </trkpt>
      <trkpt lat="43.1856" lon="2.03343">
        <ele>331.31</ele>
        <time>2017-11-18T08:32:48Z</time>
      </trkpt>
      <trkpt lat="43.18556" lon="2.03364">
        <ele>331.31</ele>
        <time>2017-11-18T08:33:00Z</time>
      </trkpt>
      <trkpt lat="43.18549" lon="2.03392">
        <ele>330.83</ele>
        <time>2017-11-18T08:33:15Z</time>
      </trkpt>
      <trkpt lat="43.18548" lon="2.03394">
        <ele>330.83</ele>
        <time>2017-11-18T08:33:16Z</time>
      </trkpt>
      <trkpt lat="43.18547" lon="2.03399">
        <ele>330.83</ele>
        <time>2017-11-18T08:33:19Z</time>
      </trkpt>
      <trkpt lat="43.18541" lon="2.0343">
        <ele>330.83</ele>
        <time>2017-11-18T08:33:36Z</time>
      </trkpt>
      <trkpt lat="43.18539" lon="2.03441">
        <ele>331.31</ele>
        <time>2017-11-18T08:33:42Z</time>
      </trkpt>
      <trkpt lat="43.18541" lon="2.0345">
        <ele>331.31</ele>
        <time>2017-11-18T08:33:47Z</time>
      </trkpt>
      <trkpt lat="43.18536" lon="2.03479">
        <ele>331.79</ele>
        <time>2017-11-18T08:34:03Z</time>
      </trkpt>
      <trkpt lat="43.18536" lon="2.03491">
        <ele>332.27</ele>
        <time>2017-11-18T08:34:10Z</time>
      </trkpt>
      <trkpt lat="43.18536" lon="2.03496">
        <ele>332.27</ele>
        <time>2017-11-18T08:34:13Z</time>
      </trkpt>
      <trkpt lat="43.18538" lon="2.03504">
        <ele>332.27</ele>
        <time>2017-11-18T08:34:27Z</time>
      </trkpt>
      <trkpt lat="43.18535" lon="2.03505">
        <ele>332.75</ele>
        <time>2017-11-18T08:34:43Z</time>
      </trkpt>
      <trkpt lat="43.18535" lon="2.03504">
        <ele>332.75</ele>
        <time>2017-11-18T08:34:58Z</time>
      </trkpt>
      <trkpt lat="43.18534" lon="2.03506">
        <ele>332.75</ele>
        <time>2017-11-18T08:35:10Z</time>
      </trkpt>
      <trkpt lat="43.18527" lon="2.03509">
        <ele>332.75</ele>
        <time>2017-11-18T08:35:16Z</time>
      </trkpt>
      <trkpt lat="43.18512" lon="2.03516">
        <ele>332.75</ele>
        <time>2017-11-18T08:35:31Z</time>
      </trkpt>
      <trkpt lat="43.1851" lon="2.03515">
        <ele>332.75</ele>
        <time>2017-11-18T08:37:12Z</time>
      </trkpt>
      <trkpt lat="43.18514" lon="2.03511">
        <ele>333.23</ele>
        <time>2017-11-18T08:37:35Z</time>
      </trkpt>
      <trkpt lat="43.18515" lon="2.03512">
        <ele>333.23</ele>
        <time>2017-11-18T08:37:49Z</time>
      </trkpt>
      <trkpt lat="43.18523" lon="2.03509">
        <ele>333.23</ele>
        <time>2017-11-18T08:37:56Z</time>
      </trkpt>
      <trkpt lat="43.18545" lon="2.03502">
        <ele>333.23</ele>
        <time>2017-11-18T08:38:14Z</time>
      </trkpt>
      <trkpt lat="43.18549" lon="2.035">
        <ele>333.71</ele>
        <time>2017-11-18T08:38:18Z</time>
      </trkpt>
      <trkpt lat="43.18565" lon="2.03494">
        <ele>335.16</ele>
        <time>2017-11-18T08:38:32Z</time>
      </trkpt>
      <trkpt lat="43.18567" lon="2.03489">
        <ele>335.64</ele>
        <time>2017-11-18T08:38:35Z</time>
      </trkpt>
      <trkpt lat="43.18569" lon="2.03487">
        <ele>335.64</ele>
        <time>2017-11-18T08:38:37Z</time>
      </trkpt>
      <trkpt lat="43.18584" lon="2.03479">
        <ele>337.56</ele>
        <time>2017-11-18T08:38:52Z</time>
      </trkpt>
      <trkpt lat="43.1859" lon="2.03472">
        <ele>339.48</ele>
        <time>2017-11-18T08:39:02Z</time>
      </trkpt>
      <trkpt lat="43.186" lon="2.03464">
        <ele>341.41</ele>
        <time>2017-11-18T08:39:17Z</time>
      </trkpt>
      <trkpt lat="43.1861" lon="2.03456">
        <ele>344.29</ele>
        <time>2017-11-18T08:39:31Z</time>
      </trkpt>
      <trkpt lat="43.18621" lon="2.03449">
        <ele>346.69</ele>
        <time>2017-11-18T08:39:47Z</time>
      </trkpt>
      <trkpt lat="43.18632" lon="2.03443">
        <ele>349.1</ele>
        <time>2017-11-18T08:40:02Z</time>
      </trkpt>
      <trkpt lat="43.1864" lon="2.0344">
        <ele>351.02</ele>
        <time>2017-11-18T08:40:17Z</time>
      </trkpt>
      <trkpt lat="43.18652" lon="2.03442">
        <ele>352.94</ele>
        <time>2017-11-18T08:40:32Z</time>
      </trkpt>
      <trkpt lat="43.18661" lon="2.03454">
        <ele>354.38</ele>
        <time>2017-11-18T08:40:50Z</time>
      </trkpt>
      <trkpt lat="43.18674" lon="2.03446">
        <ele>355.83</ele>
        <time>2017-11-18T08:41:01Z</time>
      </trkpt>
      <trkpt lat="43.18682" lon="2.03449">
        <ele>357.27</ele>
        <time>2017-11-18T08:41:15Z</time>
      </trkpt>
      <trkpt lat="43.18698" lon="2.03457">
        <ele>357.75</ele>
        <time>2017-11-18T08:41:32Z</time>
      </trkpt>
      <trkpt lat="43.18699" lon="2.03454">
        <ele>358.23</ele>
        <time>2017-11-18T08:41:45Z</time>
      </trkpt>
      <trkpt lat="43.18699" lon="2.03452">
        <ele>357.75</ele>
        <time>2017-11-18T08:42:02Z</time>
      </trkpt>
      <trkpt lat="43.18711" lon="2.03462">
        <ele>357.75</ele>
        <time>2017-11-18T08:42:32Z</time>
      </trkpt>
      <trkpt lat="43.18717" lon="2.03472">
        <ele>358.71</ele>
        <time>2017-11-18T08:42:41Z</time>
      </trkpt>
      <trkpt lat="43.18719" lon="2.03484">
        <ele>358.71</ele>
        <time>2017-11-18T08:42:55Z</time>
      </trkpt>
      <trkpt lat="43.18715" lon="2.03493">
        <ele>359.19</ele>
        <time>2017-11-18T08:43:10Z</time>
      </trkpt>
      <trkpt lat="43.18708" lon="2.03514">
        <ele>359.19</ele>
        <time>2017-11-18T08:43:23Z</time>
      </trkpt>
      <trkpt lat="43.18704" lon="2.03533">
        <ele>358.71</ele>
        <time>2017-11-18T08:43:35Z</time>
      </trkpt>
      <trkpt lat="43.18709" lon="2.03543">
        <ele>359.19</ele>
        <time>2017-11-18T08:43:53Z</time>
      </trkpt>
      <trkpt lat="43.18715" lon="2.03556">
        <ele>359.19</ele>
        <time>2017-11-18T08:44:05Z</time>
      </trkpt>
      <trkpt lat="43.18716" lon="2.0356">
        <ele>359.19</ele>
        <time>2017-11-18T08:44:08Z</time>
      </trkpt>
      <trkpt lat="43.18716" lon="2.03564">
        <ele>359.67</ele>
        <time>2017-11-18T08:44:11Z</time>
      </trkpt>
      <trkpt lat="43.1871" lon="2.03587">
        <ele>359.67</ele>
        <time>2017-11-18T08:44:28Z</time>
      </trkpt>
      <trkpt lat="43.18714" lon="2.03601">
        <ele>360.15</ele>
        <time>2017-11-18T08:44:44Z</time>
      </trkpt>
      <trkpt lat="43.18714" lon="2.03603">
        <ele>360.15</ele>
        <time>2017-11-18T08:44:54Z</time>
      </trkpt>
      <trkpt lat="43.1872" lon="2.03616">
        <ele>360.15</ele>
        <time>2017-11-18T08:45:08Z</time>
      </trkpt>
      <trkpt lat="43.18719" lon="2.03619">
        <ele>359.67</ele>
        <time>2017-11-18T08:45:12Z</time>
      </trkpt>
      <trkpt lat="43.18712" lon="2.03634">
        <ele>358.71</ele>
        <time>2017-11-18T08:45:23Z</time>
      </trkpt>
      <trkpt lat="43.187" lon="2.0365">
        <ele>357.75</ele>
        <time>2017-11-18T08:45:38Z</time>
      </trkpt>
      <trkpt lat="43.18693" lon="2.03663">
        <ele>355.34</ele>
        <time>2017-11-18T08:45:50Z</time>
      </trkpt>
      <trkpt lat="43.1869" lon="2.03667">
        <ele>354.38</ele>
        <time>2017-11-18T08:45:55Z</time>
      </trkpt>
      <trkpt lat="43.18694" lon="2.03689">
        <ele>353.9</ele>
        <time>2017-11-18T08:46:09Z</time>
      </trkpt>
      <trkpt lat="43.18704" lon="2.03696">
        <ele>353.9</ele>
        <time>2017-11-18T08:47:30Z</time>
      </trkpt>
      <trkpt lat="43.18699" lon="2.03692">
        <ele>353.9</ele>
        <time>2017-11-18T08:47:42Z</time>
      </trkpt>
      <trkpt lat="43.187" lon="2.03694">
        <ele>353.9</ele>
        <time>2017-11-18T08:48:02Z</time>
      </trkpt>
      <trkpt lat="43.187" lon="2.03695">
        <ele>353.9</ele>
        <time>2017-11-18T08:48:22Z</time>
      </trkpt>
      <trkpt lat="43.18699" lon="2.03694">
        <ele>353.9</ele>
        <time>2017-11-18T08:48:44Z</time>
      </trkpt>
      <trkpt lat="43.18699" lon="2.03693">
        <ele>353.9</ele>
        <time>2017-11-18T08:49:06Z</time>
      </trkpt>
      <trkpt lat="43.187" lon="2.03693">
        <ele>353.9</ele>
        <time>2017-11-18T08:49:21Z</time>
      </trkpt>
      <trkpt lat="43.18699" lon="2.03694">
        <ele>353.9</ele>
        <time>2017-11-18T08:49:44Z</time>
      </trkpt>
      <trkpt lat="43.18699" lon="2.03695">
        <ele>354.38</ele>
        <time>2017-11-18T08:50:05Z</time>
      </trkpt>
      <trkpt lat="43.187" lon="2.03694">
        <ele>354.38</ele>
        <time>2017-11-18T08:50:30Z</time>
      </trkpt>
      <trkpt lat="43.18699" lon="2.03692">
        <ele>353.9</ele>
        <time>2017-11-18T08:50:46Z</time>
      </trkpt>
      <trkpt lat="43.187" lon="2.03692">
        <ele>353.9</ele>
        <time>2017-11-18T08:51:05Z</time>
      </trkpt>
      <trkpt lat="43.18699" lon="2.03692">
        <ele>353.9</ele>
        <time>2017-11-18T08:51:25Z</time>
      </trkpt>
      <trkpt lat="43.187" lon="2.03692">
        <ele>353.9</ele>
        <time>2017-11-18T08:51:54Z</time>
      </trkpt>
      <trkpt lat="43.18698" lon="2.03688">
        <ele>353.9</ele>
        <time>2017-11-18T08:52:03Z</time>
      </trkpt>
      <trkpt lat="43.18696" lon="2.03678">
        <ele>353.9</ele>
        <time>2017-11-18T08:52:16Z</time>
      </trkpt>
      <trkpt lat="43.18696" lon="2.0367">
        <ele>353.9</ele>
        <time>2017-11-18T08:52:26Z</time>
      </trkpt>
      <trkpt lat="43.18691" lon="2.03656">
        <ele>354.86</ele>
        <time>2017-11-18T08:52:37Z</time>
      </trkpt>
      <trkpt lat="43.18691" lon="2.03658">
        <ele>354.38</ele>
        <time>2017-11-18T08:52:51Z</time>
      </trkpt>
      <trkpt lat="43.18689" lon="2.03666">
        <ele>353.9</ele>
        <time>2017-11-18T08:53:03Z</time>
      </trkpt>
      <trkpt lat="43.18692" lon="2.0366">
        <ele>354.38</ele>
        <time>2017-11-18T08:53:14Z</time>
      </trkpt>
      <trkpt lat="43.18705" lon="2.03644">
        <ele>356.79</ele>
        <time>2017-11-18T08:53:30Z</time>
      </trkpt>
      <trkpt lat="43.18716" lon="2.03628">
        <ele>358.71</ele>
        <time>2017-11-18T08:53:44Z</time>
      </trkpt>
      <trkpt lat="43.1872" lon="2.03616">
        <ele>359.67</ele>
        <time>2017-11-18T08:53:53Z</time>
      </trkpt>
      <trkpt lat="43.18716" lon="2.03608">
        <ele>360.15</ele>
        <time>2017-11-18T08:53:58Z</time>
      </trkpt>
      <trkpt lat="43.18712" lon="2.03592">
        <ele>359.19</ele>
        <time>2017-11-18T08:54:09Z</time>
      </trkpt>
      <trkpt lat="43.18715" lon="2.0357">
        <ele>358.71</ele>
        <time>2017-11-18T08:54:25Z</time>
      </trkpt>
      <trkpt lat="43.18716" lon="2.03559">
        <ele>358.71</ele>
        <time>2017-11-18T08:54:38Z</time>
      </trkpt>
      <trkpt lat="43.18718" lon="2.03549">
        <ele>358.23</ele>
        <time>2017-11-18T08:54:49Z</time>
      </trkpt>
      <trkpt lat="43.18718" lon="2.03548">
        <ele>358.23</ele>
        <time>2017-11-18T08:54:50Z</time>
      </trkpt>
      <trkpt lat="43.18725" lon="2.03535">
        <ele>358.23</ele>
        <time>2017-11-18T08:55:01Z</time>
      </trkpt>
      <trkpt lat="43.18725" lon="2.03528">
        <ele>358.23</ele>
        <time>2017-11-18T08:55:05Z</time>
      </trkpt>
      <trkpt lat="43.18734" lon="2.0351">
        <ele>358.71</ele>
        <time>2017-11-18T08:55:20Z</time>
      </trkpt>
      <trkpt lat="43.18735" lon="2.03508">
        <ele>358.23</ele>
        <time>2017-11-18T08:55:21Z</time>
      </trkpt>
      <trkpt lat="43.18735" lon="2.03495">
        <ele>359.67</ele>
        <time>2017-11-18T08:55:29Z</time>
      </trkpt>
      <trkpt lat="43.1873" lon="2.0349">
        <ele>357.75</ele>
        <time>2017-11-18T08:55:37Z</time>
      </trkpt>
      <trkpt lat="43.18718" lon="2.03484">
        <ele>357.27</ele>
        <time>2017-11-18T08:55:52Z</time>
      </trkpt>
      <trkpt lat="43.18711" lon="2.03471">
        <ele>356.79</ele>
        <time>2017-11-18T08:56:05Z</time>
      </trkpt>
      <trkpt lat="43.18714" lon="2.03453">
        <ele>356.31</ele>
        <time>2017-11-18T08:56:41Z</time>
      </trkpt>
      <trkpt lat="43.18727" lon="2.03443">
        <ele>353.9</ele>
        <time>2017-11-18T08:57:55Z</time>
      </trkpt>
      <trkpt lat="43.18728" lon="2.03436">
        <ele>353.42</ele>
        <time>2017-11-18T08:57:59Z</time>
      </trkpt>
      <trkpt lat="43.18729" lon="2.03431">
        <ele>353.42</ele>
        <time>2017-11-18T08:58:02Z</time>
      </trkpt>
      <trkpt lat="43.1873" lon="2.03428">
        <ele>352.46</ele>
        <time>2017-11-18T08:58:04Z</time>
      </trkpt>
      <trkpt lat="43.18737" lon="2.03395">
        <ele>351.02</ele>
        <time>2017-11-18T08:58:23Z</time>
      </trkpt>
      <trkpt lat="43.1874" lon="2.03387">
        <ele>350.06</ele>
        <time>2017-11-18T08:58:27Z</time>
      </trkpt>
      <trkpt lat="43.18749" lon="2.03369">
        <ele>349.1</ele>
        <time>2017-11-18T08:58:40Z</time>
      </trkpt>
      <trkpt lat="43.18751" lon="2.03361">
        <ele>348.62</ele>
        <time>2017-11-18T08:58:45Z</time>
      </trkpt>
      <trkpt lat="43.18753" lon="2.03358">
        <ele>348.13</ele>
        <time>2017-11-18T08:59:00Z</time>
      </trkpt>
      <trkpt lat="43.18753" lon="2.03358">
        <ele>348.13</ele>
        <time>2017-11-18T08:59:16Z</time>
      </trkpt>
      <trkpt lat="43.18754" lon="2.03355">
        <ele>348.13</ele>
        <time>2017-11-18T08:59:35Z</time>
      </trkpt>
      <trkpt lat="43.18756" lon="2.03355">
        <ele>348.13</ele>
        <time>2017-11-18T08:59:40Z</time>
      </trkpt>
      <trkpt lat="43.1877" lon="2.03352">
        <ele>347.65</ele>
        <time>2017-11-18T08:59:54Z</time>
      </trkpt>
      <trkpt lat="43.18779" lon="2.03354">
        <ele>346.21</ele>
        <time>2017-11-18T09:00:05Z</time>
      </trkpt>
      <trkpt lat="43.18786" lon="2.03354">
        <ele>347.65</ele>
        <time>2017-11-18T09:00:11Z</time>
      </trkpt>
      <trkpt lat="43.18798" lon="2.03354">
        <ele>347.65</ele>
        <time>2017-11-18T09:00:28Z</time>
      </trkpt>
      <trkpt lat="43.18803" lon="2.03352">
        <ele>348.13</ele>
        <time>2017-11-18T09:05:20Z</time>
      </trkpt>
      <trkpt lat="43.18827" lon="2.03367">
        <ele>348.62</ele>
        <time>2017-11-18T09:05:35Z</time>
      </trkpt>
      <trkpt lat="43.18835" lon="2.03373">
        <ele>348.62</ele>
        <time>2017-11-18T09:05:43Z</time>
      </trkpt>
      <trkpt lat="43.18849" lon="2.03382">
        <ele>348.62</ele>
        <time>2017-11-18T09:05:57Z</time>
      </trkpt>
      <trkpt lat="43.18866" lon="2.03386">
        <ele>348.62</ele>
        <time>2017-11-18T09:06:11Z</time>
      </trkpt>
      <trkpt lat="43.18881" lon="2.03381">
        <ele>345.25</ele>
        <time>2017-11-18T09:06:25Z</time>
      </trkpt>
      <trkpt lat="43.18892" lon="2.03373">
        <ele>343.81</ele>
        <time>2017-11-18T09:06:35Z</time>
      </trkpt>
      <trkpt lat="43.18898" lon="2.0337">
        <ele>342.85</ele>
        <time>2017-11-18T09:06:40Z</time>
      </trkpt>
      <trkpt lat="43.18915" lon="2.03356">
        <ele>340.92</ele>
        <time>2017-11-18T09:06:56Z</time>
      </trkpt>
      <trkpt lat="43.18934" lon="2.03341">
        <ele>338.52</ele>
        <time>2017-11-18T09:07:14Z</time>
      </trkpt>
      <trkpt lat="43.18953" lon="2.03337">
        <ele>336.6</ele>
        <time>2017-11-18T09:07:31Z</time>
      </trkpt>
      <trkpt lat="43.18961" lon="2.03338">
        <ele>335.64</ele>
        <time>2017-11-18T09:07:38Z</time>
      </trkpt>
      <trkpt lat="43.18975" lon="2.03324">
        <ele>332.27</ele>
        <time>2017-11-18T09:07:55Z</time>
      </trkpt>
      <trkpt lat="43.18982" lon="2.03305">
        <ele>329.39</ele>
        <time>2017-11-18T09:08:10Z</time>
      </trkpt>
      <trkpt lat="43.18985" lon="2.03297">
        <ele>327.95</ele>
        <time>2017-11-18T09:08:16Z</time>
      </trkpt>
      <trkpt lat="43.18989" lon="2.03289">
        <ele>326.99</ele>
        <time>2017-11-18T09:08:30Z</time>
      </trkpt>
      <trkpt lat="43.18995" lon="2.03284">
        <ele>325.54</ele>
        <time>2017-11-18T09:08:36Z</time>
      </trkpt>
      <trkpt lat="43.19008" lon="2.03267">
        <ele>323.62</ele>
        <time>2017-11-18T09:08:50Z</time>
      </trkpt>
      <trkpt lat="43.19011" lon="2.03263">
        <ele>322.66</ele>
        <time>2017-11-18T09:08:54Z</time>
      </trkpt>
      <trkpt lat="43.19022" lon="2.03252">
        <ele>321.22</ele>
        <time>2017-11-18T09:09:05Z</time>
      </trkpt>
      <trkpt lat="43.19033" lon="2.03238">
        <ele>319.78</ele>
        <time>2017-11-18T09:09:18Z</time>
      </trkpt>
      <trkpt lat="43.19047" lon="2.03221">
        <ele>317.85</ele>
        <time>2017-11-18T09:09:33Z</time>
      </trkpt>
      <trkpt lat="43.19055" lon="2.03205">
        <ele>316.41</ele>
        <time>2017-11-18T09:09:45Z</time>
      </trkpt>
      <trkpt lat="43.19065" lon="2.03182">
        <ele>315.45</ele>
        <time>2017-11-18T09:10:02Z</time>
      </trkpt>
      <trkpt lat="43.19067" lon="2.03173">
        <ele>315.45</ele>
        <time>2017-11-18T09:10:16Z</time>
      </trkpt>
      <trkpt lat="43.19067" lon="2.0317">
        <ele>315.45</ele>
        <time>2017-11-18T09:10:27Z</time>
      </trkpt>
      <trkpt lat="43.19075" lon="2.03156">
        <ele>313.53</ele>
        <time>2017-11-18T09:10:40Z</time>
      </trkpt>
      <trkpt lat="43.19083" lon="2.03135">
        <ele>312.57</ele>
        <time>2017-11-18T09:10:56Z</time>
      </trkpt>
      <trkpt lat="43.1909" lon="2.03118">
        <ele>310.64</ele>
        <time>2017-11-18T09:11:05Z</time>
      </trkpt>
      <trkpt lat="43.19092" lon="2.03113">
        <ele>310.64</ele>
        <time>2017-11-18T09:11:09Z</time>
      </trkpt>
      <trkpt lat="43.19101" lon="2.03082">
        <ele>309.2</ele>
        <time>2017-11-18T09:11:27Z</time>
      </trkpt>
      <trkpt lat="43.19104" lon="2.03074">
        <ele>308.24</ele>
        <time>2017-11-18T09:11:32Z</time>
      </trkpt>
      <trkpt lat="43.19109" lon="2.03065">
        <ele>307.76</ele>
        <time>2017-11-18T09:11:38Z</time>
      </trkpt>
      <trkpt lat="43.19122" lon="2.03044">
        <ele>305.84</ele>
        <time>2017-11-18T09:11:55Z</time>
      </trkpt>
      <trkpt lat="43.19133" lon="2.03027">
        <ele>303.43</ele>
        <time>2017-11-18T09:12:09Z</time>
      </trkpt>
      <trkpt lat="43.19136" lon="2.03019">
        <ele>303.43</ele>
        <time>2017-11-18T09:12:15Z</time>
      </trkpt>
      <trkpt lat="43.19146" lon="2.02998">
        <ele>301.51</ele>
        <time>2017-11-18T09:12:30Z</time>
      </trkpt>
      <trkpt lat="43.19147" lon="2.02996">
        <ele>301.03</ele>
        <time>2017-11-18T09:12:32Z</time>
      </trkpt>
      <trkpt lat="43.19154" lon="2.0298">
        <ele>299.59</ele>
        <time>2017-11-18T09:12:44Z</time>
      </trkpt>
      <trkpt lat="43.19159" lon="2.02969">
        <ele>298.63</ele>
        <time>2017-11-18T09:12:52Z</time>
      </trkpt>
      <trkpt lat="43.19167" lon="2.02944">
        <ele>297.18</ele>
        <time>2017-11-18T09:13:07Z</time>
      </trkpt>
      <trkpt lat="43.19171" lon="2.02935">
        <ele>296.7</ele>
        <time>2017-11-18T09:13:14Z</time>
      </trkpt>
      <trkpt lat="43.19177" lon="2.02925">
        <ele>294.78</ele>
        <time>2017-11-18T09:13:21Z</time>
      </trkpt>
      <trkpt lat="43.19184" lon="2.02906">
        <ele>292.38</ele>
        <time>2017-11-18T09:13:35Z</time>
      </trkpt>
      <trkpt lat="43.19187" lon="2.02899">
        <ele>290.94</ele>
        <time>2017-11-18T09:13:40Z</time>
      </trkpt>
      <trkpt lat="43.1919" lon="2.02892">
        <ele>289.97</ele>
        <time>2017-11-18T09:13:45Z</time>
      </trkpt>
      <trkpt lat="43.19199" lon="2.02867">
        <ele>288.05</ele>
        <time>2017-11-18T09:14:02Z</time>
      </trkpt>
      <trkpt lat="43.19205" lon="2.02847">
        <ele>286.61</ele>
        <time>2017-11-18T09:14:14Z</time>
      </trkpt>
      <trkpt lat="43.1921" lon="2.0284">
        <ele>286.61</ele>
        <time>2017-11-18T09:14:19Z</time>
      </trkpt>
      <trkpt lat="43.19212" lon="2.02833">
        <ele>286.61</ele>
        <time>2017-11-18T09:14:23Z</time>
      </trkpt>
      <trkpt lat="43.19215" lon="2.02826">
        <ele>285.65</ele>
        <time>2017-11-18T09:14:28Z</time>
      </trkpt>
      <trkpt lat="43.19228" lon="2.02798">
        <ele>286.13</ele>
        <time>2017-11-18T09:14:46Z</time>
      </trkpt>
      <trkpt lat="43.19231" lon="2.02785">
        <ele>287.09</ele>
        <time>2017-11-18T09:14:54Z</time>
      </trkpt>
      <trkpt lat="43.1923" lon="2.02759">
        <ele>288.53</ele>
        <time>2017-11-18T09:15:10Z</time>
      </trkpt>
      <trkpt lat="43.19227" lon="2.02734">
        <ele>290.94</ele>
        <time>2017-11-18T09:15:26Z</time>
      </trkpt>
      <trkpt lat="43.19224" lon="2.02719">
        <ele>291.9</ele>
        <time>2017-11-18T09:15:36Z</time>
      </trkpt>
      <trkpt lat="43.19223" lon="2.0271">
        <ele>291.9</ele>
        <time>2017-11-18T09:15:41Z</time>
      </trkpt>
      <trkpt lat="43.19219" lon="2.02689">
        <ele>292.86</ele>
        <time>2017-11-18T09:15:55Z</time>
      </trkpt>
      <trkpt lat="43.19216" lon="2.02667">
        <ele>292.86</ele>
        <time>2017-11-18T09:16:09Z</time>
      </trkpt>
      <trkpt lat="43.19215" lon="2.02662">
        <ele>292.38</ele>
        <time>2017-11-18T09:16:13Z</time>
      </trkpt>
      <trkpt lat="43.19215" lon="2.02641">
        <ele>292.38</ele>
        <time>2017-11-18T09:16:26Z</time>
      </trkpt>
      <trkpt lat="43.19215" lon="2.02633">
        <ele>290.94</ele>
        <time>2017-11-18T09:16:31Z</time>
      </trkpt>
      <trkpt lat="43.19214" lon="2.02608">
        <ele>289.01</ele>
        <time>2017-11-18T09:16:46Z</time>
      </trkpt>
      <trkpt lat="43.19215" lon="2.02593">
        <ele>288.05</ele>
        <time>2017-11-18T09:16:56Z</time>
      </trkpt>
      <trkpt lat="43.19215" lon="2.02589">
        <ele>288.05</ele>
        <time>2017-11-18T09:16:59Z</time>
      </trkpt>
      <trkpt lat="43.19216" lon="2.02558">
        <ele>285.65</ele>
        <time>2017-11-18T09:17:18Z</time>
      </trkpt>
      <trkpt lat="43.19222" lon="2.02532">
        <ele>285.17</ele>
        <time>2017-11-18T09:17:35Z</time>
      </trkpt>
      <trkpt lat="43.19228" lon="2.02508">
        <ele>282.77</ele>
        <time>2017-11-18T09:17:51Z</time>
      </trkpt>
      <trkpt lat="43.19233" lon="2.02493">
        <ele>282.77</ele>
        <time>2017-11-18T09:18:01Z</time>
      </trkpt>
      <trkpt lat="43.19234" lon="2.02483">
        <ele>281.32</ele>
        <time>2017-11-18T09:18:07Z</time>
      </trkpt>
      <trkpt lat="43.19241" lon="2.02457">
        <ele>280.84</ele>
        <time>2017-11-18T09:18:24Z</time>
      </trkpt>
      <trkpt lat="43.1925" lon="2.02428">
        <ele>278.92</ele>
        <time>2017-11-18T09:18:43Z</time>
      </trkpt>
      <trkpt lat="43.19254" lon="2.02415">
        <ele>278.44</ele>
        <time>2017-11-18T09:18:52Z</time>
      </trkpt>
      <trkpt lat="43.19259" lon="2.02405">
        <ele>277.96</ele>
        <time>2017-11-18T09:18:59Z</time>
      </trkpt>
      <trkpt lat="43.19269" lon="2.02384">
        <ele>277</ele>
        <time>2017-11-18T09:19:13Z</time>
      </trkpt>
      <trkpt lat="43.1927" lon="2.02382">
        <ele>275.56</ele>
        <time>2017-11-18T09:19:15Z</time>
      </trkpt>
      <trkpt lat="43.19272" lon="2.02378">
        <ele>275.07</ele>
        <time>2017-11-18T09:19:18Z</time>
      </trkpt>
      <trkpt lat="43.19281" lon="2.02355">
        <ele>274.11</ele>
        <time>2017-11-18T09:19:34Z</time>
      </trkpt>
      <trkpt lat="43.19284" lon="2.02346">
        <ele>273.15</ele>
        <time>2017-11-18T09:19:40Z</time>
      </trkpt>
      <trkpt lat="43.19287" lon="2.02339">
        <ele>274.11</ele>
        <time>2017-11-18T09:19:45Z</time>
      </trkpt>
      <trkpt lat="43.19296" lon="2.02319">
        <ele>272.67</ele>
        <time>2017-11-18T09:19:59Z</time>
      </trkpt>
      <trkpt lat="43.19304" lon="2.02298">
        <ele>271.71</ele>
        <time>2017-11-18T09:20:14Z</time>
      </trkpt>
      <trkpt lat="43.19313" lon="2.02279">
        <ele>269.31</ele>
        <time>2017-11-18T09:20:28Z</time>
      </trkpt>
      <trkpt lat="43.1932" lon="2.02259">
        <ele>267.38</ele>
        <time>2017-11-18T09:20:43Z</time>
      </trkpt>
      <trkpt lat="43.19328" lon="2.02238">
        <ele>264.5</ele>
        <time>2017-11-18T09:20:59Z</time>
      </trkpt>
      <trkpt lat="43.19332" lon="2.02218">
        <ele>262.1</ele>
        <time>2017-11-18T09:21:13Z</time>
      </trkpt>
      <trkpt lat="43.19332" lon="2.02216">
        <ele>262.58</ele>
        <time>2017-11-18T09:21:14Z</time>
      </trkpt>
      <trkpt lat="43.19333" lon="2.02207">
        <ele>261.62</ele>
        <time>2017-11-18T09:21:20Z</time>
      </trkpt>
      <trkpt lat="43.19337" lon="2.02187">
        <ele>260.65</ele>
        <time>2017-11-18T09:21:34Z</time>
      </trkpt>
      <trkpt lat="43.19343" lon="2.02163">
        <ele>259.21</ele>
        <time>2017-11-18T09:21:49Z</time>
      </trkpt>
      <trkpt lat="43.19348" lon="2.02141">
        <ele>257.77</ele>
        <time>2017-11-18T09:22:02Z</time>
      </trkpt>
      <trkpt lat="43.19353" lon="2.0212">
        <ele>257.77</ele>
        <time>2017-11-18T09:22:15Z</time>
      </trkpt>
      <trkpt lat="43.19355" lon="2.02111">
        <ele>257.29</ele>
        <time>2017-11-18T09:22:21Z</time>
      </trkpt>
      <trkpt lat="43.19357" lon="2.02107">
        <ele>256.81</ele>
        <time>2017-11-18T09:22:24Z</time>
      </trkpt>
      <trkpt lat="43.19364" lon="2.02084">
        <ele>255.85</ele>
        <time>2017-11-18T09:22:39Z</time>
      </trkpt>
      <trkpt lat="43.19371" lon="2.02061">
        <ele>253.44</ele>
        <time>2017-11-18T09:22:54Z</time>
      </trkpt>
      <trkpt lat="43.19378" lon="2.02035">
        <ele>252.48</ele>
        <time>2017-11-18T09:23:11Z</time>
      </trkpt>
      <trkpt lat="43.19383" lon="2.02013">
        <ele>251.52</ele>
        <time>2017-11-18T09:23:25Z</time>
      </trkpt>
      <trkpt lat="43.19385" lon="2.01997">
        <ele>251.04</ele>
        <time>2017-11-18T09:23:35Z</time>
      </trkpt>
      <trkpt lat="43.19387" lon="2.01989">
        <ele>251.52</ele>
        <time>2017-11-18T09:23:39Z</time>
      </trkpt>
      <trkpt lat="43.19388" lon="2.01981">
        <ele>250.56</ele>
        <time>2017-11-18T09:23:44Z</time>
      </trkpt>
      <trkpt lat="43.19392" lon="2.01962">
        <ele>249.6</ele>
        <time>2017-11-18T09:23:57Z</time>
      </trkpt>
      <trkpt lat="43.19394" lon="2.01938">
        <ele>249.12</ele>
        <time>2017-11-18T09:24:11Z</time>
      </trkpt>
      <trkpt lat="43.194" lon="2.01917">
        <ele>248.16</ele>
        <time>2017-11-18T09:24:26Z</time>
      </trkpt>
      <trkpt lat="43.19411" lon="2.01893">
        <ele>248.16</ele>
        <time>2017-11-18T09:24:45Z</time>
      </trkpt>
      <trkpt lat="43.19415" lon="2.01882">
        <ele>248.16</ele>
        <time>2017-11-18T09:24:52Z</time>
      </trkpt>
      <trkpt lat="43.19426" lon="2.01857">
        <ele>247.2</ele>
        <time>2017-11-18T09:25:08Z</time>
      </trkpt>
      <trkpt lat="43.19435" lon="2.01834">
        <ele>248.16</ele>
        <time>2017-11-18T09:25:24Z</time>
      </trkpt>
      <trkpt lat="43.1944" lon="2.01826">
        <ele>248.64</ele>
        <time>2017-11-18T09:25:30Z</time>
      </trkpt>
      <trkpt lat="43.19444" lon="2.01815">
        <ele>248.64</ele>
        <time>2017-11-18T09:25:37Z</time>
      </trkpt>
      <trkpt lat="43.1945" lon="2.01802">
        <ele>248.16</ele>
        <time>2017-11-18T09:25:46Z</time>
      </trkpt>
      <trkpt lat="43.19461" lon="2.01783">
        <ele>246.23</ele>
        <time>2017-11-18T09:26:02Z</time>
      </trkpt>
      <trkpt lat="43.19468" lon="2.0177">
        <ele>245.27</ele>
        <time>2017-11-18T09:26:13Z</time>
      </trkpt>
      <trkpt lat="43.19469" lon="2.01766">
        <ele>244.79</ele>
        <time>2017-11-18T09:26:16Z</time>
      </trkpt>
      <trkpt lat="43.19479" lon="2.01747">
        <ele>244.79</ele>
        <time>2017-11-18T09:26:30Z</time>
      </trkpt>
      <trkpt lat="43.19489" lon="2.0173">
        <ele>243.83</ele>
        <time>2017-11-18T09:26:44Z</time>
      </trkpt>
      <trkpt lat="43.19499" lon="2.01716">
        <ele>242.87</ele>
        <time>2017-11-18T09:26:56Z</time>
      </trkpt>
      <trkpt lat="43.19511" lon="2.01695">
        <ele>240.95</ele>
        <time>2017-11-18T09:27:11Z</time>
      </trkpt>
      <trkpt lat="43.19518" lon="2.01681">
        <ele>239.02</ele>
        <time>2017-11-18T09:27:22Z</time>
      </trkpt>
      <trkpt lat="43.1953" lon="2.01663">
        <ele>237.1</ele>
        <time>2017-11-18T09:27:36Z</time>
      </trkpt>
      <trkpt lat="43.19531" lon="2.01661">
        <ele>237.1</ele>
        <time>2017-11-18T09:27:38Z</time>
      </trkpt>
      <trkpt lat="43.19536" lon="2.01657">
        <ele>236.14</ele>
        <time>2017-11-18T09:27:43Z</time>
      </trkpt>
      <trkpt lat="43.1954" lon="2.01655">
        <ele>235.66</ele>
        <time>2017-11-18T09:27:46Z</time>
      </trkpt>
      <trkpt lat="43.19544" lon="2.01653">
        <ele>234.7</ele>
        <time>2017-11-18T09:27:50Z</time>
      </trkpt>
      <trkpt lat="43.19551" lon="2.01653">
        <ele>233.74</ele>
        <time>2017-11-18T09:27:56Z</time>
      </trkpt>
      <trkpt lat="43.19566" lon="2.01656">
        <ele>231.33</ele>
        <time>2017-11-18T09:28:08Z</time>
      </trkpt>
      <trkpt lat="43.19584" lon="2.01665">
        <ele>228.45</ele>
        <time>2017-11-18T09:28:25Z</time>
      </trkpt>
      <trkpt lat="43.19599" lon="2.01671">
        <ele>225.09</ele>
        <time>2017-11-18T09:28:41Z</time>
      </trkpt>
      <trkpt lat="43.19615" lon="2.01679">
        <ele>223.16</ele>
        <time>2017-11-18T09:28:55Z</time>
      </trkpt>
      <trkpt lat="43.1963" lon="2.01683">
        <ele>222.2</ele>
        <time>2017-11-18T09:29:08Z</time>
      </trkpt>
      <trkpt lat="43.19646" lon="2.01684">
        <ele>219.32</ele>
        <time>2017-11-18T09:29:23Z</time>
      </trkpt>
      <trkpt lat="43.19657" lon="2.01685">
        <ele>216.91</ele>
        <time>2017-11-18T09:29:34Z</time>
      </trkpt>
      <trkpt lat="43.1966" lon="2.01686">
        <ele>216.43</ele>
        <time>2017-11-18T09:29:37Z</time>
      </trkpt>
      <trkpt lat="43.19675" lon="2.01688">
        <ele>215.47</ele>
        <time>2017-11-18T09:29:50Z</time>
      </trkpt>
      <trkpt lat="43.19691" lon="2.01687">
        <ele>214.03</ele>
        <time>2017-11-18T09:30:04Z</time>
      </trkpt>
      <trkpt lat="43.19695" lon="2.01687">
        <ele>213.55</ele>
        <time>2017-11-18T09:30:07Z</time>
      </trkpt>
      <trkpt lat="43.197" lon="2.01676">
        <ele>213.07</ele>
        <time>2017-11-18T09:30:16Z</time>
      </trkpt>
      <trkpt lat="43.19701" lon="2.01667">
        <ele>213.07</ele>
        <time>2017-11-18T09:30:22Z</time>
      </trkpt>
      <trkpt lat="43.19701" lon="2.01657">
        <ele>213.07</ele>
        <time>2017-11-18T09:33:17Z</time>
      </trkpt>
      <trkpt lat="43.19704" lon="2.01649">
        <ele>212.59</ele>
        <time>2017-11-18T09:33:21Z</time>
      </trkpt>
      <trkpt lat="43.19709" lon="2.01626">
        <ele>213.07</ele>
        <time>2017-11-18T09:33:35Z</time>
      </trkpt>
      <trkpt lat="43.1971" lon="2.01617">
        <ele>213.55</ele>
        <time>2017-11-18T09:33:40Z</time>
      </trkpt>
      <trkpt lat="43.1971" lon="2.01612">
        <ele>213.55</ele>
        <time>2017-11-18T09:33:43Z</time>
      </trkpt>
      <trkpt lat="43.19711" lon="2.01598">
        <ele>213.07</ele>
        <time>2017-11-18T09:33:55Z</time>
      </trkpt>
      <trkpt lat="43.19711" lon="2.01581">
        <ele>213.07</ele>
        <time>2017-11-18T09:34:05Z</time>
      </trkpt>
      <trkpt lat="43.19713" lon="2.01555">
        <ele>213.55</ele>
        <time>2017-11-18T09:34:23Z</time>
      </trkpt>
      <trkpt lat="43.19719" lon="2.01532">
        <ele>214.03</ele>
        <time>2017-11-18T09:34:38Z</time>
      </trkpt>
      <trkpt lat="43.19729" lon="2.0151">
        <ele>214.03</ele>
        <time>2017-11-18T09:34:54Z</time>
      </trkpt>
      <trkpt lat="43.19735" lon="2.01486">
        <ele>214.99</ele>
        <time>2017-11-18T09:35:09Z</time>
      </trkpt>
      <trkpt lat="43.19736" lon="2.01481">
        <ele>214.99</ele>
        <time>2017-11-18T09:35:12Z</time>
      </trkpt>
      <trkpt lat="43.1974" lon="2.01458">
        <ele>215.47</ele>
        <time>2017-11-18T09:35:28Z</time>
      </trkpt>
      <trkpt lat="43.19745" lon="2.01438">
        <ele>215.95</ele>
        <time>2017-11-18T09:35:41Z</time>
      </trkpt>
      <trkpt lat="43.19748" lon="2.01417">
        <ele>217.4</ele>
        <time>2017-11-18T09:35:57Z</time>
      </trkpt>
      <trkpt lat="43.19749" lon="2.01411">
        <ele>217.4</ele>
        <time>2017-11-18T09:36:01Z</time>
      </trkpt>
      <trkpt lat="43.19755" lon="2.01391">
        <ele>218.36</ele>
        <time>2017-11-18T09:36:15Z</time>
      </trkpt>
      <trkpt lat="43.19762" lon="2.01364">
        <ele>217.88</ele>
        <time>2017-11-18T09:36:33Z</time>
      </trkpt>
      <trkpt lat="43.19763" lon="2.01346">
        <ele>216.91</ele>
        <time>2017-11-18T09:36:46Z</time>
      </trkpt>
      <trkpt lat="43.19769" lon="2.01329">
        <ele>216.91</ele>
        <time>2017-11-18T09:36:59Z</time>
      </trkpt>
      <trkpt lat="43.19773" lon="2.01317">
        <ele>217.88</ele>
        <time>2017-11-18T09:37:16Z</time>
      </trkpt>
      <trkpt lat="43.19774" lon="2.01299">
        <ele>217.88</ele>
        <time>2017-11-18T09:37:29Z</time>
      </trkpt>
      <trkpt lat="43.19774" lon="2.01296">
        <ele>218.36</ele>
        <time>2017-11-18T09:37:31Z</time>
      </trkpt>
      <trkpt lat="43.19773" lon="2.01277">
        <ele>217.88</ele>
        <time>2017-11-18T09:37:45Z</time>
      </trkpt>
      <trkpt lat="43.19774" lon="2.01257">
        <ele>218.36</ele>
        <time>2017-11-18T09:38:01Z</time>
      </trkpt>
      <trkpt lat="43.19769" lon="2.01234">
        <ele>218.36</ele>
        <time>2017-11-18T09:38:14Z</time>
      </trkpt>
      <trkpt lat="43.1977" lon="2.01219">
        <ele>218.36</ele>
        <time>2017-11-18T09:38:22Z</time>
      </trkpt>
      <trkpt lat="43.19771" lon="2.0119">
        <ele>218.36</ele>
        <time>2017-11-18T09:38:38Z</time>
      </trkpt>
      <trkpt lat="43.19773" lon="2.01174">
        <ele>218.84</ele>
        <time>2017-11-18T09:38:47Z</time>
      </trkpt>
      <trkpt lat="43.19769" lon="2.01152">
        <ele>219.32</ele>
        <time>2017-11-18T09:39:01Z</time>
      </trkpt>
      <trkpt lat="43.19772" lon="2.01151">
        <ele>218.84</ele>
        <time>2017-11-18T09:39:47Z</time>
      </trkpt>
      <trkpt lat="43.19782" lon="2.01142">
        <ele>220.28</ele>
        <time>2017-11-18T09:40:02Z</time>
      </trkpt>
      <trkpt lat="43.19776" lon="2.01131">
        <ele>219.8</ele>
        <time>2017-11-18T09:40:16Z</time>
      </trkpt>
      <trkpt lat="43.19775" lon="2.01127">
        <ele>219.8</ele>
        <time>2017-11-18T09:40:18Z</time>
      </trkpt>
      <trkpt lat="43.19772" lon="2.01118">
        <ele>219.8</ele>
        <time>2017-11-18T09:40:23Z</time>
      </trkpt>
      <trkpt lat="43.19766" lon="2.01102">
        <ele>219.8</ele>
        <time>2017-11-18T09:40:36Z</time>
      </trkpt>
      <trkpt lat="43.19764" lon="2.01097">
        <ele>220.28</ele>
        <time>2017-11-18T09:40:39Z</time>
      </trkpt>
      <trkpt lat="43.19762" lon="2.01087">
        <ele>220.28</ele>
        <time>2017-11-18T09:40:45Z</time>
      </trkpt>
      <trkpt lat="43.19759" lon="2.0108">
        <ele>220.28</ele>
        <time>2017-11-18T09:40:49Z</time>
      </trkpt>
      <trkpt lat="43.19754" lon="2.01059">
        <ele>220.76</ele>
        <time>2017-11-18T09:41:02Z</time>
      </trkpt>
      <trkpt lat="43.19753" lon="2.01049">
        <ele>221.24</ele>
        <time>2017-11-18T09:41:08Z</time>
      </trkpt>
      <trkpt lat="43.19748" lon="2.01036">
        <ele>221.24</ele>
        <time>2017-11-18T09:41:16Z</time>
      </trkpt>
      <trkpt lat="43.19733" lon="2.01023">
        <ele>222.2</ele>
        <time>2017-11-18T09:41:30Z</time>
      </trkpt>
      <trkpt lat="43.1972" lon="2.01015">
        <ele>222.68</ele>
        <time>2017-11-18T09:41:45Z</time>
      </trkpt>
      <trkpt lat="43.19716" lon="2.01008">
        <ele>222.68</ele>
        <time>2017-11-18T09:41:59Z</time>
      </trkpt>
      <trkpt lat="43.19714" lon="2.00997">
        <ele>223.16</ele>
        <time>2017-11-18T09:42:12Z</time>
      </trkpt>
      <trkpt lat="43.19714" lon="2.00996">
        <ele>223.64</ele>
        <time>2017-11-18T09:42:13Z</time>
      </trkpt>
      <trkpt lat="43.19714" lon="2.00976">
        <ele>225.57</ele>
        <time>2017-11-18T09:42:29Z</time>
      </trkpt>
      <trkpt lat="43.19714" lon="2.00954">
        <ele>228.93</ele>
        <time>2017-11-18T09:42:46Z</time>
      </trkpt>
      <trkpt lat="43.19716" lon="2.00938">
        <ele>230.85</ele>
        <time>2017-11-18T09:42:59Z</time>
      </trkpt>
      <trkpt lat="43.19713" lon="2.00921">
        <ele>234.22</ele>
        <time>2017-11-18T09:43:16Z</time>
      </trkpt>
      <trkpt lat="43.19709" lon="2.00907">
        <ele>236.62</ele>
        <time>2017-11-18T09:43:29Z</time>
      </trkpt>
      <trkpt lat="43.19707" lon="2.00893">
        <ele>239.99</ele>
        <time>2017-11-18T09:43:44Z</time>
      </trkpt>
      <trkpt lat="43.19706" lon="2.00879">
        <ele>240.95</ele>
        <time>2017-11-18T09:43:59Z</time>
      </trkpt>
      <trkpt lat="43.19711" lon="2.00867">
        <ele>243.35</ele>
        <time>2017-11-18T09:44:12Z</time>
      </trkpt>
      <trkpt lat="43.19715" lon="2.00856">
        <ele>245.75</ele>
        <time>2017-11-18T09:44:27Z</time>
      </trkpt>
      <trkpt lat="43.19716" lon="2.00852">
        <ele>247.68</ele>
        <time>2017-11-18T09:44:32Z</time>
      </trkpt>
      <trkpt lat="43.19716" lon="2.00847">
        <ele>247.68</ele>
        <time>2017-11-18T09:44:37Z</time>
      </trkpt>
      <trkpt lat="43.19712" lon="2.00843">
        <ele>247.68</ele>
        <time>2017-11-18T09:44:43Z</time>
      </trkpt>
      <trkpt lat="43.19706" lon="2.0085">
        <ele>248.16</ele>
        <time>2017-11-18T09:44:57Z</time>
      </trkpt>
      <trkpt lat="43.19701" lon="2.00866">
        <ele>249.6</ele>
        <time>2017-11-18T09:45:12Z</time>
      </trkpt>
      <trkpt lat="43.19689" lon="2.00881">
        <ele>252</ele>
        <time>2017-11-18T09:45:29Z</time>
      </trkpt>
      <trkpt lat="43.19677" lon="2.00878">
        <ele>252.96</ele>
        <time>2017-11-18T09:45:43Z</time>
      </trkpt>
      <trkpt lat="43.19671" lon="2.0086">
        <ele>253.44</ele>
        <time>2017-11-18T09:45:57Z</time>
      </trkpt>
      <trkpt lat="43.19669" lon="2.00841">
        <ele>255.37</ele>
        <time>2017-11-18T09:46:12Z</time>
      </trkpt>
      <trkpt lat="43.19672" lon="2.00826">
        <ele>257.29</ele>
        <time>2017-11-18T09:46:26Z</time>
      </trkpt>
      <trkpt lat="43.19675" lon="2.00813">
        <ele>258.73</ele>
        <time>2017-11-18T09:46:38Z</time>
      </trkpt>
      <trkpt lat="43.19673" lon="2.00796">
        <ele>260.65</ele>
        <time>2017-11-18T09:46:50Z</time>
      </trkpt>
      <trkpt lat="43.19672" lon="2.00775">
        <ele>261.62</ele>
        <time>2017-11-18T09:47:05Z</time>
      </trkpt>
      <trkpt lat="43.19672" lon="2.00772">
        <ele>261.62</ele>
        <time>2017-11-18T09:47:08Z</time>
      </trkpt>
      <trkpt lat="43.19672" lon="2.00766">
        <ele>262.1</ele>
        <time>2017-11-18T09:47:12Z</time>
      </trkpt>
      <trkpt lat="43.19671" lon="2.00764">
        <ele>262.1</ele>
        <time>2017-11-18T09:47:14Z</time>
      </trkpt>
      <trkpt lat="43.19671" lon="2.00755">
        <ele>263.06</ele>
        <time>2017-11-18T09:47:21Z</time>
      </trkpt>
      <trkpt lat="43.1967" lon="2.0074">
        <ele>264.98</ele>
        <time>2017-11-18T09:47:34Z</time>
      </trkpt>
      <trkpt lat="43.19669" lon="2.00738">
        <ele>264.98</ele>
        <time>2017-11-18T09:47:36Z</time>
      </trkpt>
      <trkpt lat="43.19665" lon="2.00722">
        <ele>266.9</ele>
        <time>2017-11-18T09:47:50Z</time>
      </trkpt>
      <trkpt lat="43.19662" lon="2.00711">
        <ele>268.83</ele>
        <time>2017-11-18T09:48:02Z</time>
      </trkpt>
      <trkpt lat="43.19662" lon="2.00698">
        <ele>270.27</ele>
        <time>2017-11-18T09:48:15Z</time>
      </trkpt>
      <trkpt lat="43.19662" lon="2.00697">
        <ele>270.75</ele>
        <time>2017-11-18T09:48:16Z</time>
      </trkpt>
      <trkpt lat="43.19666" lon="2.00677">
        <ele>271.23</ele>
        <time>2017-11-18T09:48:30Z</time>
      </trkpt>
      <trkpt lat="43.19668" lon="2.00668">
        <ele>270.75</ele>
        <time>2017-11-18T09:48:37Z</time>
      </trkpt>
      <trkpt lat="43.19672" lon="2.00654">
        <ele>270.75</ele>
        <time>2017-11-18T09:48:48Z</time>
      </trkpt>
      <trkpt lat="43.19673" lon="2.00646">
        <ele>270.27</ele>
        <time>2017-11-18T09:48:53Z</time>
      </trkpt>
      <trkpt lat="43.19677" lon="2.00637">
        <ele>269.31</ele>
        <time>2017-11-18T09:49:00Z</time>
      </trkpt>
      <trkpt lat="43.1968" lon="2.00619">
        <ele>268.35</ele>
        <time>2017-11-18T09:49:13Z</time>
      </trkpt>
      <trkpt lat="43.19678" lon="2.00599">
        <ele>267.86</ele>
        <time>2017-11-18T09:49:26Z</time>
      </trkpt>
      <trkpt lat="43.19677" lon="2.00579">
        <ele>267.38</ele>
        <time>2017-11-18T09:49:40Z</time>
      </trkpt>
      <trkpt lat="43.19677" lon="2.00576">
        <ele>267.38</ele>
        <time>2017-11-18T09:49:42Z</time>
      </trkpt>
      <trkpt lat="43.19677" lon="2.0057">
        <ele>266.42</ele>
        <time>2017-11-18T09:49:46Z</time>
      </trkpt>
      <trkpt lat="43.19683" lon="2.0055">
        <ele>266.42</ele>
        <time>2017-11-18T09:50:02Z</time>
      </trkpt>
      <trkpt lat="43.19685" lon="2.00546">
        <ele>267.38</ele>
        <time>2017-11-18T09:50:19Z</time>
      </trkpt>
      <trkpt lat="43.19687" lon="2.00544">
        <ele>267.38</ele>
        <time>2017-11-18T09:50:48Z</time>
      </trkpt>
      <trkpt lat="43.1969" lon="2.00541">
        <ele>267.38</ele>
        <time>2017-11-18T09:50:52Z</time>
      </trkpt>
      <trkpt lat="43.19697" lon="2.00535">
        <ele>268.35</ele>
        <time>2017-11-18T09:51:00Z</time>
      </trkpt>
      <trkpt lat="43.19708" lon="2.00522">
        <ele>269.31</ele>
        <time>2017-11-18T09:51:13Z</time>
      </trkpt>
      <trkpt lat="43.19715" lon="2.00515">
        <ele>270.75</ele>
        <time>2017-11-18T09:51:28Z</time>
      </trkpt>
      <trkpt lat="43.19715" lon="2.00517">
        <ele>270.27</ele>
        <time>2017-11-18T09:51:48Z</time>
      </trkpt>
      <trkpt lat="43.19714" lon="2.00515">
        <ele>270.27</ele>
        <time>2017-11-18T09:52:08Z</time>
      </trkpt>
      <trkpt lat="43.19716" lon="2.00516">
        <ele>270.75</ele>
        <time>2017-11-18T09:52:24Z</time>
      </trkpt>
      <trkpt lat="43.19715" lon="2.00515">
        <ele>270.75</ele>
        <time>2017-11-18T09:52:40Z</time>
      </trkpt>
      <trkpt lat="43.19714" lon="2.00517">
        <ele>270.75</ele>
        <time>2017-11-18T09:52:59Z</time>
      </trkpt>
      <trkpt lat="43.19714" lon="2.00518">
        <ele>270.27</ele>
        <time>2017-11-18T09:53:26Z</time>
      </trkpt>
      <trkpt lat="43.19713" lon="2.00516">
        <ele>270.75</ele>
        <time>2017-11-18T09:53:43Z</time>
      </trkpt>
      <trkpt lat="43.19714" lon="2.00518">
        <ele>270.75</ele>
        <time>2017-11-18T09:54:12Z</time>
      </trkpt>
      <trkpt lat="43.19715" lon="2.00517">
        <ele>270.75</ele>
        <time>2017-11-18T09:54:36Z</time>
      </trkpt>
      <trkpt lat="43.19714" lon="2.00518">
        <ele>270.75</ele>
        <time>2017-11-18T09:55:00Z</time>
      </trkpt>
      <trkpt lat="43.19713" lon="2.00515">
        <ele>270.75</ele>
        <time>2017-11-18T09:55:26Z</time>
      </trkpt>
      <trkpt lat="43.19712" lon="2.00513">
        <ele>270.75</ele>
        <time>2017-11-18T09:55:46Z</time>
      </trkpt>
      <trkpt lat="43.19715" lon="2.00514">
        <ele>270.27</ele>
        <time>2017-11-18T09:56:05Z</time>
      </trkpt>
      <trkpt lat="43.19713" lon="2.00515">
        <ele>270.27</ele>
        <time>2017-11-18T09:56:23Z</time>
      </trkpt>
      <trkpt lat="43.19714" lon="2.00514">
        <ele>270.75</ele>
        <time>2017-11-18T09:56:37Z</time>
      </trkpt>
      <trkpt lat="43.19713" lon="2.00516">
        <ele>270.75</ele>
        <time>2017-11-18T09:56:54Z</time>
      </trkpt>
      <trkpt lat="43.19713" lon="2.00515">
        <ele>271.23</ele>
        <time>2017-11-18T09:57:13Z</time>
      </trkpt>
      <trkpt lat="43.19714" lon="2.00515">
        <ele>270.75</ele>
        <time>2017-11-18T09:57:38Z</time>
      </trkpt>
      <trkpt lat="43.19716" lon="2.00515">
        <ele>270.75</ele>
        <time>2017-11-18T09:57:49Z</time>
      </trkpt>
      <trkpt lat="43.19726" lon="2.00517">
        <ele>269.79</ele>
        <time>2017-11-18T09:57:57Z</time>
      </trkpt>
      <trkpt lat="43.19742" lon="2.00518">
        <ele>268.35</ele>
        <time>2017-11-18T09:58:11Z</time>
      </trkpt>
      <trkpt lat="43.1975" lon="2.00521">
        <ele>267.38</ele>
        <time>2017-11-18T09:58:18Z</time>
      </trkpt>
      <trkpt lat="43.19766" lon="2.00529">
        <ele>266.42</ele>
        <time>2017-11-18T09:58:33Z</time>
      </trkpt>
      <trkpt lat="43.19782" lon="2.00538">
        <ele>265.94</ele>
        <time>2017-11-18T09:58:47Z</time>
      </trkpt>
      <trkpt lat="43.198" lon="2.00554">
        <ele>266.42</ele>
        <time>2017-11-18T09:59:03Z</time>
      </trkpt>
      <trkpt lat="43.19806" lon="2.00563">
        <ele>266.9</ele>
        <time>2017-11-18T09:59:11Z</time>
      </trkpt>
      <trkpt lat="43.1981" lon="2.00568">
        <ele>266.9</ele>
        <time>2017-11-18T09:59:16Z</time>
      </trkpt>
      <trkpt lat="43.19814" lon="2.00576">
        <ele>267.38</ele>
        <time>2017-11-18T09:59:22Z</time>
      </trkpt>
      <trkpt lat="43.19815" lon="2.00581">
        <ele>267.86</ele>
        <time>2017-11-18T09:59:26Z</time>
      </trkpt>
      <trkpt lat="43.19816" lon="2.00587">
        <ele>268.35</ele>
        <time>2017-11-18T09:59:30Z</time>
      </trkpt>
      <trkpt lat="43.19819" lon="2.00603">
        <ele>269.31</ele>
        <time>2017-11-18T09:59:41Z</time>
      </trkpt>
      <trkpt lat="43.19821" lon="2.00609">
        <ele>269.31</ele>
        <time>2017-11-18T09:59:45Z</time>
      </trkpt>
      <trkpt lat="43.1983" lon="2.00633">
        <ele>269.79</ele>
        <time>2017-11-18T10:00:01Z</time>
      </trkpt>
      <trkpt lat="43.19839" lon="2.00655">
        <ele>270.27</ele>
        <time>2017-11-18T10:00:16Z</time>
      </trkpt>
      <trkpt lat="43.19848" lon="2.00678">
        <ele>271.23</ele>
        <time>2017-11-18T10:00:32Z</time>
      </trkpt>
      <trkpt lat="43.19856" lon="2.00705">
        <ele>272.67</ele>
        <time>2017-11-18T10:00:50Z</time>
      </trkpt>
      <trkpt lat="43.19864" lon="2.00732">
        <ele>274.59</ele>
        <time>2017-11-18T10:01:08Z</time>
      </trkpt>
      <trkpt lat="43.19873" lon="2.00758">
        <ele>275.07</ele>
        <time>2017-11-18T10:01:25Z</time>
      </trkpt>
      <trkpt lat="43.1988" lon="2.00783">
        <ele>275.56</ele>
        <time>2017-11-18T10:01:42Z</time>
      </trkpt>
      <trkpt lat="43.19884" lon="2.008">
        <ele>275.56</ele>
        <time>2017-11-18T10:01:52Z</time>
      </trkpt>
      <trkpt lat="43.1989" lon="2.00821">
        <ele>275.56</ele>
        <time>2017-11-18T10:02:06Z</time>
      </trkpt>
      <trkpt lat="43.19895" lon="2.00834">
        <ele>276.52</ele>
        <time>2017-11-18T10:02:16Z</time>
      </trkpt>
      <trkpt lat="43.199" lon="2.00853">
        <ele>277</ele>
        <time>2017-11-18T10:02:30Z</time>
      </trkpt>
      <trkpt lat="43.19905" lon="2.00873">
        <ele>277.96</ele>
        <time>2017-11-18T10:02:42Z</time>
      </trkpt>
      <trkpt lat="43.19908" lon="2.00883">
        <ele>278.44</ele>
        <time>2017-11-18T10:02:49Z</time>
      </trkpt>
      <trkpt lat="43.19914" lon="2.00907">
        <ele>278.92</ele>
        <time>2017-11-18T10:03:05Z</time>
      </trkpt>
      <trkpt lat="43.19923" lon="2.00932">
        <ele>279.4</ele>
        <time>2017-11-18T10:03:22Z</time>
      </trkpt>
      <trkpt lat="43.19926" lon="2.00941">
        <ele>279.4</ele>
        <time>2017-11-18T10:03:27Z</time>
      </trkpt>
      <trkpt lat="43.19934" lon="2.0096">
        <ele>280.36</ele>
        <time>2017-11-18T10:03:41Z</time>
      </trkpt>
      <trkpt lat="43.19942" lon="2.0098">
        <ele>280.36</ele>
        <time>2017-11-18T10:03:56Z</time>
      </trkpt>
      <trkpt lat="43.19954" lon="2.01005">
        <ele>280.36</ele>
        <time>2017-11-18T10:04:14Z</time>
      </trkpt>
      <trkpt lat="43.19959" lon="2.01018">
        <ele>279.4</ele>
        <time>2017-11-18T10:04:28Z</time>
      </trkpt>
      <trkpt lat="43.19961" lon="2.0102">
        <ele>279.88</ele>
        <time>2017-11-18T10:04:30Z</time>
      </trkpt>
      <trkpt lat="43.19963" lon="2.01023">
        <ele>279.4</ele>
        <time>2017-11-18T10:04:33Z</time>
      </trkpt>
      <trkpt lat="43.19969" lon="2.01042">
        <ele>278.92</ele>
        <time>2017-11-18T10:04:47Z</time>
      </trkpt>
      <trkpt lat="43.19976" lon="2.01067">
        <ele>277.48</ele>
        <time>2017-11-18T10:05:04Z</time>
      </trkpt>
      <trkpt lat="43.19976" lon="2.01068">
        <ele>277.48</ele>
        <time>2017-11-18T10:05:05Z</time>
      </trkpt>
      <trkpt lat="43.19976" lon="2.01097">
        <ele>277</ele>
        <time>2017-11-18T10:05:23Z</time>
      </trkpt>
      <trkpt lat="43.19976" lon="2.01106">
        <ele>277</ele>
        <time>2017-11-18T10:05:29Z</time>
      </trkpt>
      <trkpt lat="43.19975" lon="2.01109">
        <ele>276.52</ele>
        <time>2017-11-18T10:05:31Z</time>
      </trkpt>
      <trkpt lat="43.19974" lon="2.01117">
        <ele>276.52</ele>
        <time>2017-11-18T10:05:36Z</time>
      </trkpt>
      <trkpt lat="43.19971" lon="2.01148">
        <ele>276.04</ele>
        <time>2017-11-18T10:05:56Z</time>
      </trkpt>
      <trkpt lat="43.1997" lon="2.01158">
        <ele>275.56</ele>
        <time>2017-11-18T10:06:02Z</time>
      </trkpt>
      <trkpt lat="43.19971" lon="2.01182">
        <ele>276.04</ele>
        <time>2017-11-18T10:06:17Z</time>
      </trkpt>
      <trkpt lat="43.19972" lon="2.01202">
        <ele>275.56</ele>
        <time>2017-11-18T10:06:29Z</time>
      </trkpt>
      <trkpt lat="43.19969" lon="2.01214">
        <ele>275.07</ele>
        <time>2017-11-18T10:06:41Z</time>
      </trkpt>
      <trkpt lat="43.19971" lon="2.01239">
        <ele>275.07</ele>
        <time>2017-11-18T10:06:57Z</time>
      </trkpt>
      <trkpt lat="43.19972" lon="2.01263">
        <ele>276.04</ele>
        <time>2017-11-18T10:07:12Z</time>
      </trkpt>
      <trkpt lat="43.19974" lon="2.0129">
        <ele>276.52</ele>
        <time>2017-11-18T10:07:28Z</time>
      </trkpt>
      <trkpt lat="43.19975" lon="2.01303">
        <ele>276.04</ele>
        <time>2017-11-18T10:07:36Z</time>
      </trkpt>
      <trkpt lat="43.19974" lon="2.01317">
        <ele>276.52</ele>
        <time>2017-11-18T10:07:45Z</time>
      </trkpt>
      <trkpt lat="43.19973" lon="2.01346">
        <ele>277</ele>
        <time>2017-11-18T10:08:03Z</time>
      </trkpt>
      <trkpt lat="43.19971" lon="2.01367">
        <ele>278.44</ele>
        <time>2017-11-18T10:08:17Z</time>
      </trkpt>
      <trkpt lat="43.19969" lon="2.01393">
        <ele>278.44</ele>
        <time>2017-11-18T10:08:33Z</time>
      </trkpt>
      <trkpt lat="43.19967" lon="2.01416">
        <ele>277.96</ele>
        <time>2017-11-18T10:08:49Z</time>
      </trkpt>
      <trkpt lat="43.19968" lon="2.01421">
        <ele>277.48</ele>
        <time>2017-11-18T10:08:53Z</time>
      </trkpt>
      <trkpt lat="43.19969" lon="2.01427">
        <ele>277</ele>
        <time>2017-11-18T10:09:07Z</time>
      </trkpt>
      <trkpt lat="43.19967" lon="2.01426">
        <ele>277</ele>
        <time>2017-11-18T10:09:19Z</time>
      </trkpt>
      <trkpt lat="43.19966" lon="2.01451">
        <ele>275.56</ele>
        <time>2017-11-18T10:09:35Z</time>
      </trkpt>
      <trkpt lat="43.19965" lon="2.01469">
        <ele>275.07</ele>
        <time>2017-11-18T10:09:46Z</time>
      </trkpt>
      <trkpt lat="43.19965" lon="2.01473">
        <ele>275.56</ele>
        <time>2017-11-18T10:09:53Z</time>
      </trkpt>
      <trkpt lat="43.20092" lon="2.01504">
        <ele>234.7</ele>
        <time>2017-11-18T10:18:35Z</time>
      </trkpt>
      <trkpt lat="43.20093" lon="2.01504">
        <ele>234.7</ele>
        <time>2017-11-18T10:18:37Z</time>
      </trkpt>
      <trkpt lat="43.20098" lon="2.01524">
        <ele>232.78</ele>
        <time>2017-11-18T10:18:49Z</time>
      </trkpt>
      <trkpt lat="43.20104" lon="2.01543">
        <ele>230.85</ele>
        <time>2017-11-18T10:19:03Z</time>
      </trkpt>
      <trkpt lat="43.20108" lon="2.01559">
        <ele>229.41</ele>
        <time>2017-11-18T10:19:16Z</time>
      </trkpt>
      <trkpt lat="43.20107" lon="2.01562">
        <ele>229.41</ele>
        <time>2017-11-18T10:19:35Z</time>
      </trkpt>
      <trkpt lat="43.20114" lon="2.01576">
        <ele>226.05</ele>
        <time>2017-11-18T10:19:49Z</time>
      </trkpt>
      <trkpt lat="43.20115" lon="2.01577">
        <ele>226.05</ele>
        <time>2017-11-18T10:19:50Z</time>
      </trkpt>
      <trkpt lat="43.20117" lon="2.01584">
        <ele>225.57</ele>
        <time>2017-11-18T10:19:57Z</time>
      </trkpt>
      <trkpt lat="43.20118" lon="2.01586">
        <ele>225.57</ele>
        <time>2017-11-18T10:19:59Z</time>
      </trkpt>
      <trkpt lat="43.20123" lon="2.01608">
        <ele>223.16</ele>
        <time>2017-11-18T10:20:15Z</time>
      </trkpt>
      <trkpt lat="43.20125" lon="2.01613">
        <ele>222.68</ele>
        <time>2017-11-18T10:20:23Z</time>
      </trkpt>
      <trkpt lat="43.2013" lon="2.01635">
        <ele>219.8</ele>
        <time>2017-11-18T10:20:38Z</time>
      </trkpt>
      <trkpt lat="43.2013" lon="2.01643">
        <ele>218.84</ele>
        <time>2017-11-18T10:20:42Z</time>
      </trkpt>
      <trkpt lat="43.20131" lon="2.01664">
        <ele>215.47</ele>
        <time>2017-11-18T10:20:56Z</time>
      </trkpt>
      <trkpt lat="43.20133" lon="2.01682">
        <ele>213.07</ele>
        <time>2017-11-18T10:21:07Z</time>
      </trkpt>
      <trkpt lat="43.20134" lon="2.0169">
        <ele>212.11</ele>
        <time>2017-11-18T10:21:12Z</time>
      </trkpt>
      <trkpt lat="43.20135" lon="2.01697">
        <ele>210.67</ele>
        <time>2017-11-18T10:21:16Z</time>
      </trkpt>
      <trkpt lat="43.20138" lon="2.0171">
        <ele>208.26</ele>
        <time>2017-11-18T10:21:25Z</time>
      </trkpt>
      <trkpt lat="43.20138" lon="2.01713">
        <ele>207.78</ele>
        <time>2017-11-18T10:21:27Z</time>
      </trkpt>
      <trkpt lat="43.20144" lon="2.01733">
        <ele>205.38</ele>
        <time>2017-11-18T10:21:39Z</time>
      </trkpt>
      <trkpt lat="43.2015" lon="2.01737">
        <ele>204.9</ele>
        <time>2017-11-18T10:21:49Z</time>
      </trkpt>
      <trkpt lat="43.20155" lon="2.01737">
        <ele>204.42</ele>
        <time>2017-11-18T10:21:54Z</time>
      </trkpt>
      <trkpt lat="43.20161" lon="2.01736">
        <ele>204.42</ele>
        <time>2017-11-18T10:21:59Z</time>
      </trkpt>
      <trkpt lat="43.2017" lon="2.01735">
        <ele>204.42</ele>
        <time>2017-11-18T10:22:16Z</time>
      </trkpt>
      <trkpt lat="43.20174" lon="2.01739">
        <ele>204.9</ele>
        <time>2017-11-18T10:22:23Z</time>
      </trkpt>
      <trkpt lat="43.20174" lon="2.01753">
        <ele>204.9</ele>
        <time>2017-11-18T10:22:36Z</time>
      </trkpt>
      <trkpt lat="43.20176" lon="2.01754">
        <ele>204.9</ele>
        <time>2017-11-18T10:22:48Z</time>
      </trkpt>
      <trkpt lat="43.20175" lon="2.01755">
        <ele>204.9</ele>
        <time>2017-11-18T10:23:13Z</time>
      </trkpt>
      <trkpt lat="43.20174" lon="2.01758">
        <ele>204.9</ele>
        <time>2017-11-18T10:23:43Z</time>
      </trkpt>
      <trkpt lat="43.20173" lon="2.01757">
        <ele>204.9</ele>
        <time>2017-11-18T10:23:47Z</time>
      </trkpt>
      <trkpt lat="43.20175" lon="2.01751">
        <ele>204.9</ele>
        <time>2017-11-18T10:24:01Z</time>
      </trkpt>
      <trkpt lat="43.20176" lon="2.01754">
        <ele>204.9</ele>
        <time>2017-11-18T10:24:20Z</time>
      </trkpt>
      <trkpt lat="43.20174" lon="2.01758">
        <ele>206.34</ele>
        <time>2017-11-18T10:24:42Z</time>
      </trkpt>
      <trkpt lat="43.20174" lon="2.01758">
        <ele>205.38</ele>
        <time>2017-11-18T10:24:44Z</time>
      </trkpt>
      <trkpt lat="43.20174" lon="2.01757">
        <ele>205.38</ele>
        <time>2017-11-18T10:25:07Z</time>
      </trkpt>
      <trkpt lat="43.20175" lon="2.01748">
        <ele>204.42</ele>
        <time>2017-11-18T10:25:18Z</time>
      </trkpt>
      <trkpt lat="43.20176" lon="2.01756">
        <ele>204.9</ele>
        <time>2017-11-18T10:25:22Z</time>
      </trkpt>
      <trkpt lat="43.2018" lon="2.01788">
        <ele>204.9</ele>
        <time>2017-11-18T10:25:39Z</time>
      </trkpt>
      <trkpt lat="43.20181" lon="2.01815">
        <ele>205.38</ele>
        <time>2017-11-18T10:25:55Z</time>
      </trkpt>
      <trkpt lat="43.20179" lon="2.01846">
        <ele>205.38</ele>
        <time>2017-11-18T10:26:13Z</time>
      </trkpt>
      <trkpt lat="43.20177" lon="2.01867">
        <ele>205.38</ele>
        <time>2017-11-18T10:26:26Z</time>
      </trkpt>
      <trkpt lat="43.20176" lon="2.01893">
        <ele>206.34</ele>
        <time>2017-11-18T10:26:42Z</time>
      </trkpt>
      <trkpt lat="43.20176" lon="2.01894">
        <ele>206.34</ele>
        <time>2017-11-18T10:26:43Z</time>
      </trkpt>
      <trkpt lat="43.20176" lon="2.019">
        <ele>206.34</ele>
        <time>2017-11-18T10:26:46Z</time>
      </trkpt>
      <trkpt lat="43.20178" lon="2.01918">
        <ele>207.3</ele>
        <time>2017-11-18T10:26:58Z</time>
      </trkpt>
      <trkpt lat="43.20182" lon="2.01948">
        <ele>208.26</ele>
        <time>2017-11-18T10:27:16Z</time>
      </trkpt>
      <trkpt lat="43.20185" lon="2.01978">
        <ele>208.74</ele>
        <time>2017-11-18T10:27:34Z</time>
      </trkpt>
      <trkpt lat="43.20185" lon="2.01982">
        <ele>209.22</ele>
        <time>2017-11-18T10:27:37Z</time>
      </trkpt>
      <trkpt lat="43.20184" lon="2.02009">
        <ele>209.22</ele>
        <time>2017-11-18T10:27:52Z</time>
      </trkpt>
      <trkpt lat="43.20181" lon="2.0204">
        <ele>208.74</ele>
        <time>2017-11-18T10:28:10Z</time>
      </trkpt>
      <trkpt lat="43.2018" lon="2.02064">
        <ele>209.22</ele>
        <time>2017-11-18T10:28:25Z</time>
      </trkpt>
      <trkpt lat="43.20178" lon="2.02082">
        <ele>209.22</ele>
        <time>2017-11-18T10:28:36Z</time>
      </trkpt>
      <trkpt lat="43.20178" lon="2.0209">
        <ele>209.22</ele>
        <time>2017-11-18T10:28:41Z</time>
      </trkpt>
      <trkpt lat="43.20178" lon="2.02111">
        <ele>209.22</ele>
        <time>2017-11-18T10:28:54Z</time>
      </trkpt>
      <trkpt lat="43.20179" lon="2.02125">
        <ele>209.22</ele>
        <time>2017-11-18T10:29:05Z</time>
      </trkpt>
      <trkpt lat="43.20183" lon="2.02147">
        <ele>209.22</ele>
        <time>2017-11-18T10:29:21Z</time>
      </trkpt>
      <trkpt lat="43.20185" lon="2.02151">
        <ele>209.22</ele>
        <time>2017-11-18T10:29:25Z</time>
      </trkpt>
      <trkpt lat="43.20186" lon="2.02165">
        <ele>209.7</ele>
        <time>2017-11-18T10:29:36Z</time>
      </trkpt>
      <trkpt lat="43.20188" lon="2.0219">
        <ele>210.19</ele>
        <time>2017-11-18T10:29:52Z</time>
      </trkpt>
      <trkpt lat="43.2019" lon="2.02214">
        <ele>210.19</ele>
        <time>2017-11-18T10:30:08Z</time>
      </trkpt>
      <trkpt lat="43.20189" lon="2.02228">
        <ele>210.67</ele>
        <time>2017-11-18T10:30:17Z</time>
      </trkpt>
      <trkpt lat="43.20189" lon="2.0223">
        <ele>210.67</ele>
        <time>2017-11-18T10:30:19Z</time>
      </trkpt>
      <trkpt lat="43.2019" lon="2.02235">
        <ele>210.19</ele>
        <time>2017-11-18T10:30:22Z</time>
      </trkpt>
      <trkpt lat="43.20188" lon="2.02241">
        <ele>210.19</ele>
        <time>2017-11-18T10:30:26Z</time>
      </trkpt>
      <trkpt lat="43.20188" lon="2.02256">
        <ele>210.19</ele>
        <time>2017-11-18T10:30:37Z</time>
      </trkpt>
      <trkpt lat="43.20188" lon="2.02274">
        <ele>209.7</ele>
        <time>2017-11-18T10:30:51Z</time>
      </trkpt>
      <trkpt lat="43.20188" lon="2.02295">
        <ele>209.22</ele>
        <time>2017-11-18T10:31:05Z</time>
      </trkpt>
      <trkpt lat="43.20187" lon="2.02309">
        <ele>209.7</ele>
        <time>2017-11-18T10:31:16Z</time>
      </trkpt>
      <trkpt lat="43.20187" lon="2.02327">
        <ele>208.74</ele>
        <time>2017-11-18T10:31:31Z</time>
      </trkpt>
      <trkpt lat="43.20186" lon="2.02347">
        <ele>208.26</ele>
        <time>2017-11-18T10:31:45Z</time>
      </trkpt>
      <trkpt lat="43.20185" lon="2.0237">
        <ele>207.3</ele>
        <time>2017-11-18T10:32:01Z</time>
      </trkpt>
      <trkpt lat="43.20185" lon="2.02374">
        <ele>207.3</ele>
        <time>2017-11-18T10:32:04Z</time>
      </trkpt>
      <trkpt lat="43.20186" lon="2.02385">
        <ele>207.3</ele>
        <time>2017-11-18T10:32:11Z</time>
      </trkpt>
      <trkpt lat="43.20185" lon="2.02389">
        <ele>206.82</ele>
        <time>2017-11-18T10:32:14Z</time>
      </trkpt>
      <trkpt lat="43.20185" lon="2.02412">
        <ele>205.86</ele>
        <time>2017-11-18T10:32:29Z</time>
      </trkpt>
      <trkpt lat="43.20184" lon="2.02424">
        <ele>205.38</ele>
        <time>2017-11-18T10:32:37Z</time>
      </trkpt>
      <trkpt lat="43.20185" lon="2.02449">
        <ele>204.42</ele>
        <time>2017-11-18T10:32:52Z</time>
      </trkpt>
      <trkpt lat="43.20187" lon="2.02467">
        <ele>203.94</ele>
        <time>2017-11-18T10:33:04Z</time>
      </trkpt>
      <trkpt lat="43.20191" lon="2.02492">
        <ele>202.98</ele>
        <time>2017-11-18T10:33:21Z</time>
      </trkpt>
      <trkpt lat="43.20192" lon="2.02495">
        <ele>202.98</ele>
        <time>2017-11-18T10:33:23Z</time>
      </trkpt>
      <trkpt lat="43.20197" lon="2.02518">
        <ele>202.49</ele>
        <time>2017-11-18T10:33:38Z</time>
      </trkpt>
      <trkpt lat="43.20202" lon="2.02541">
        <ele>202.01</ele>
        <time>2017-11-18T10:33:52Z</time>
      </trkpt>
      <trkpt lat="43.20203" lon="2.02543">
        <ele>202.01</ele>
        <time>2017-11-18T10:33:54Z</time>
      </trkpt>
      <trkpt lat="43.20205" lon="2.02564">
        <ele>201.53</ele>
        <time>2017-11-18T10:34:07Z</time>
      </trkpt>
      <trkpt lat="43.20206" lon="2.02567">
        <ele>201.05</ele>
        <time>2017-11-18T10:34:11Z</time>
      </trkpt>
      <trkpt lat="43.20206" lon="2.02574">
        <ele>201.53</ele>
        <time>2017-11-18T10:34:16Z</time>
      </trkpt>
      <trkpt lat="43.20207" lon="2.026">
        <ele>201.05</ele>
        <time>2017-11-18T10:34:32Z</time>
      </trkpt>
      <trkpt lat="43.2021" lon="2.02625">
        <ele>200.09</ele>
        <time>2017-11-18T10:34:48Z</time>
      </trkpt>
      <trkpt lat="43.20211" lon="2.02644">
        <ele>199.13</ele>
        <time>2017-11-18T10:35:01Z</time>
      </trkpt>
      <trkpt lat="43.20212" lon="2.02651">
        <ele>199.13</ele>
        <time>2017-11-18T10:35:05Z</time>
      </trkpt>
      <trkpt lat="43.20214" lon="2.02665">
        <ele>199.13</ele>
        <time>2017-11-18T10:35:14Z</time>
      </trkpt>
      <trkpt lat="43.20216" lon="2.02674">
        <ele>199.13</ele>
        <time>2017-11-18T10:35:19Z</time>
      </trkpt>
      <trkpt lat="43.20224" lon="2.02705">
        <ele>199.61</ele>
        <time>2017-11-18T10:35:38Z</time>
      </trkpt>
      <trkpt lat="43.2023" lon="2.02717">
        <ele>200.09</ele>
        <time>2017-11-18T10:35:47Z</time>
      </trkpt>
      <trkpt lat="43.20236" lon="2.02718">
        <ele>199.61</ele>
        <time>2017-11-18T10:35:52Z</time>
      </trkpt>
      <trkpt lat="43.20242" lon="2.02714">
        <ele>199.61</ele>
        <time>2017-11-18T10:35:58Z</time>
      </trkpt>
      <trkpt lat="43.20258" lon="2.0271">
        <ele>200.09</ele>
        <time>2017-11-18T10:36:12Z</time>
      </trkpt>
      <trkpt lat="43.2027" lon="2.02704">
        <ele>200.57</ele>
        <time>2017-11-18T10:36:24Z</time>
      </trkpt>
      <trkpt lat="43.20276" lon="2.02697">
        <ele>202.01</ele>
        <time>2017-11-18T10:36:32Z</time>
      </trkpt>
      <trkpt lat="43.20279" lon="2.02695">
        <ele>202.01</ele>
        <time>2017-11-18T10:36:35Z</time>
      </trkpt>
      <trkpt lat="43.20287" lon="2.02673">
        <ele>202.49</ele>
        <time>2017-11-18T10:36:51Z</time>
      </trkpt>
      <trkpt lat="43.20291" lon="2.02664">
        <ele>202.98</ele>
        <time>2017-11-18T10:36:58Z</time>
      </trkpt>
      <trkpt lat="43.20293" lon="2.02657">
        <ele>202.98</ele>
        <time>2017-11-18T10:37:03Z</time>
      </trkpt>
      <trkpt lat="43.20296" lon="2.0265">
        <ele>202.98</ele>
        <time>2017-11-18T10:37:09Z</time>
      </trkpt>
      <trkpt lat="43.20304" lon="2.02629">
        <ele>204.42</ele>
        <time>2017-11-18T10:37:24Z</time>
      </trkpt>
      <trkpt lat="43.20306" lon="2.02627">
        <ele>204.42</ele>
        <time>2017-11-18T10:37:26Z</time>
      </trkpt>
      <trkpt lat="43.20312" lon="2.02616">
        <ele>205.38</ele>
        <time>2017-11-18T10:37:35Z</time>
      </trkpt>
      <trkpt lat="43.20319" lon="2.02611">
        <ele>206.82</ele>
        <time>2017-11-18T10:37:43Z</time>
      </trkpt>
      <trkpt lat="43.2033" lon="2.02604">
        <ele>207.78</ele>
        <time>2017-11-18T10:37:55Z</time>
      </trkpt>
      <trkpt lat="43.20341" lon="2.02586">
        <ele>210.19</ele>
        <time>2017-11-18T10:38:12Z</time>
      </trkpt>
      <trkpt lat="43.20342" lon="2.02585">
        <ele>210.19</ele>
        <time>2017-11-18T10:38:13Z</time>
      </trkpt>
      <trkpt lat="43.20346" lon="2.02572">
        <ele>211.15</ele>
        <time>2017-11-18T10:38:25Z</time>
      </trkpt>
      <trkpt lat="43.20348" lon="2.0257">
        <ele>211.63</ele>
        <time>2017-11-18T10:38:27Z</time>
      </trkpt>
      <trkpt lat="43.20349" lon="2.02568">
        <ele>211.63</ele>
        <time>2017-11-18T10:38:29Z</time>
      </trkpt>
      <trkpt lat="43.2035" lon="2.02566">
        <ele>211.63</ele>
        <time>2017-11-18T10:38:31Z</time>
      </trkpt>
      <trkpt lat="43.20358" lon="2.02554">
        <ele>212.11</ele>
        <time>2017-11-18T10:38:44Z</time>
      </trkpt>
      <trkpt lat="43.20362" lon="2.02549">
        <ele>212.11</ele>
        <time>2017-11-18T10:38:49Z</time>
      </trkpt>
      <trkpt lat="43.20364" lon="2.02546">
        <ele>212.11</ele>
        <time>2017-11-18T10:38:52Z</time>
      </trkpt>
      <trkpt lat="43.20366" lon="2.02544">
        <ele>212.11</ele>
        <time>2017-11-18T10:38:54Z</time>
      </trkpt>
      <trkpt lat="43.20371" lon="2.02533">
        <ele>212.11</ele>
        <time>2017-11-18T10:39:08Z</time>
      </trkpt>
      <trkpt lat="43.20379" lon="2.0252">
        <ele>213.07</ele>
        <time>2017-11-18T10:39:20Z</time>
      </trkpt>
      <trkpt lat="43.20381" lon="2.02517">
        <ele>213.07</ele>
        <time>2017-11-18T10:39:23Z</time>
      </trkpt>
      <trkpt lat="43.20388" lon="2.02502">
        <ele>213.55</ele>
        <time>2017-11-18T10:39:36Z</time>
      </trkpt>
      <trkpt lat="43.20391" lon="2.02496">
        <ele>214.03</ele>
        <time>2017-11-18T10:39:41Z</time>
      </trkpt>
      <trkpt lat="43.20396" lon="2.02484">
        <ele>214.51</ele>
        <time>2017-11-18T10:39:50Z</time>
      </trkpt>
      <trkpt lat="43.20401" lon="2.02477">
        <ele>214.51</ele>
        <time>2017-11-18T10:39:58Z</time>
      </trkpt>
      <trkpt lat="43.20408" lon="2.02467">
        <ele>214.99</ele>
        <time>2017-11-18T10:40:11Z</time>
      </trkpt>
      <trkpt lat="43.20414" lon="2.02459">
        <ele>215.95</ele>
        <time>2017-11-18T10:40:21Z</time>
      </trkpt>
      <trkpt lat="43.20421" lon="2.02447">
        <ele>216.91</ele>
        <time>2017-11-18T10:40:31Z</time>
      </trkpt>
      <trkpt lat="43.20428" lon="2.02438">
        <ele>217.4</ele>
        <time>2017-11-18T10:40:40Z</time>
      </trkpt>
      <trkpt lat="43.2043" lon="2.02435">
        <ele>217.4</ele>
        <time>2017-11-18T10:40:43Z</time>
      </trkpt>
      <trkpt lat="43.20441" lon="2.02427">
        <ele>218.84</ele>
        <time>2017-11-18T10:40:54Z</time>
      </trkpt>
      <trkpt lat="43.20451" lon="2.0242">
        <ele>220.76</ele>
        <time>2017-11-18T10:41:08Z</time>
      </trkpt>
      <trkpt lat="43.20464" lon="2.02412">
        <ele>223.16</ele>
        <time>2017-11-18T10:41:22Z</time>
      </trkpt>
      <trkpt lat="43.20464" lon="2.02411">
        <ele>223.16</ele>
        <time>2017-11-18T10:41:23Z</time>
      </trkpt>
      <trkpt lat="43.20466" lon="2.02411">
        <ele>222.68</ele>
        <time>2017-11-18T10:41:24Z</time>
      </trkpt>
      <trkpt lat="43.20481" lon="2.02408">
        <ele>224.12</ele>
        <time>2017-11-18T10:41:39Z</time>
      </trkpt>
      <trkpt lat="43.20489" lon="2.02405">
        <ele>224.12</ele>
        <time>2017-11-18T10:41:47Z</time>
      </trkpt>
      <trkpt lat="43.20503" lon="2.02398">
        <ele>226.05</ele>
        <time>2017-11-18T10:42:01Z</time>
      </trkpt>
      <trkpt lat="43.20515" lon="2.02389">
        <ele>227.01</ele>
        <time>2017-11-18T10:42:16Z</time>
      </trkpt>
      <trkpt lat="43.20525" lon="2.02379">
        <ele>229.41</ele>
        <time>2017-11-18T10:42:29Z</time>
      </trkpt>
      <trkpt lat="43.20529" lon="2.02376">
        <ele>229.89</ele>
        <time>2017-11-18T10:42:33Z</time>
      </trkpt>
      <trkpt lat="43.2054" lon="2.02358">
        <ele>228.93</ele>
        <time>2017-11-18T10:42:49Z</time>
      </trkpt>
      <trkpt lat="43.20549" lon="2.02342">
        <ele>229.41</ele>
        <time>2017-11-18T10:43:02Z</time>
      </trkpt>
      <trkpt lat="43.20559" lon="2.02328">
        <ele>229.41</ele>
        <time>2017-11-18T10:43:14Z</time>
      </trkpt>
      <trkpt lat="43.20572" lon="2.02311">
        <ele>231.33</ele>
        <time>2017-11-18T10:43:30Z</time>
      </trkpt>
      <trkpt lat="43.20574" lon="2.02308">
        <ele>231.33</ele>
        <time>2017-11-18T10:43:32Z</time>
      </trkpt>
      <trkpt lat="43.20584" lon="2.02293">
        <ele>232.78</ele>
        <time>2017-11-18T10:43:46Z</time>
      </trkpt>
      <trkpt lat="43.20591" lon="2.02283">
        <ele>234.22</ele>
        <time>2017-11-18T10:43:56Z</time>
      </trkpt>
      <trkpt lat="43.20598" lon="2.02271">
        <ele>236.14</ele>
        <time>2017-11-18T10:44:08Z</time>
      </trkpt>
      <trkpt lat="43.20607" lon="2.02263">
        <ele>238.54</ele>
        <time>2017-11-18T10:44:20Z</time>
      </trkpt>
      <trkpt lat="43.20619" lon="2.0226">
        <ele>241.43</ele>
        <time>2017-11-18T10:44:35Z</time>
      </trkpt>
      <trkpt lat="43.20628" lon="2.02255">
        <ele>243.83</ele>
        <time>2017-11-18T10:44:48Z</time>
      </trkpt>
      <trkpt lat="43.20636" lon="2.02251">
        <ele>245.75</ele>
        <time>2017-11-18T10:45:01Z</time>
      </trkpt>
      <trkpt lat="43.20646" lon="2.02247">
        <ele>248.16</ele>
        <time>2017-11-18T10:45:13Z</time>
      </trkpt>
      <trkpt lat="43.20648" lon="2.02246">
        <ele>248.64</ele>
        <time>2017-11-18T10:45:16Z</time>
      </trkpt>
      <trkpt lat="43.20658" lon="2.0224">
        <ele>250.08</ele>
        <time>2017-11-18T10:45:29Z</time>
      </trkpt>
      <trkpt lat="43.20668" lon="2.02234">
        <ele>252</ele>
        <time>2017-11-18T10:45:43Z</time>
      </trkpt>
      <trkpt lat="43.20673" lon="2.02233">
        <ele>252.48</ele>
        <time>2017-11-18T10:45:48Z</time>
      </trkpt>
      <trkpt lat="43.20674" lon="2.02232">
        <ele>252.96</ele>
        <time>2017-11-18T10:45:50Z</time>
      </trkpt>
      <trkpt lat="43.20682" lon="2.02228">
        <ele>252.48</ele>
        <time>2017-11-18T10:45:58Z</time>
      </trkpt>
      <trkpt lat="43.2069" lon="2.02216">
        <ele>252</ele>
        <time>2017-11-18T10:46:09Z</time>
      </trkpt>
      <trkpt lat="43.20694" lon="2.02212">
        <ele>251.04</ele>
        <time>2017-11-18T10:46:14Z</time>
      </trkpt>
      <trkpt lat="43.20698" lon="2.02203">
        <ele>251.04</ele>
        <time>2017-11-18T10:46:21Z</time>
      </trkpt>
      <trkpt lat="43.207" lon="2.02188">
        <ele>247.2</ele>
        <time>2017-11-18T10:46:33Z</time>
      </trkpt>
      <trkpt lat="43.20701" lon="2.02173">
        <ele>245.27</ele>
        <time>2017-11-18T10:46:45Z</time>
      </trkpt>
      <trkpt lat="43.20702" lon="2.02153">
        <ele>243.83</ele>
        <time>2017-11-18T10:46:59Z</time>
      </trkpt>
      <trkpt lat="43.20704" lon="2.02133">
        <ele>243.83</ele>
        <time>2017-11-18T10:47:12Z</time>
      </trkpt>
      <trkpt lat="43.20707" lon="2.02113">
        <ele>245.27</ele>
        <time>2017-11-18T10:47:26Z</time>
      </trkpt>
      <trkpt lat="43.20707" lon="2.02111">
        <ele>245.75</ele>
        <time>2017-11-18T10:47:28Z</time>
      </trkpt>
      <trkpt lat="43.20708" lon="2.02104">
        <ele>246.72</ele>
        <time>2017-11-18T10:47:33Z</time>
      </trkpt>
      <trkpt lat="43.20709" lon="2.02087">
        <ele>248.16</ele>
        <time>2017-11-18T10:47:46Z</time>
      </trkpt>
      <trkpt lat="43.20709" lon="2.02078">
        <ele>248.64</ele>
        <time>2017-11-18T10:47:53Z</time>
      </trkpt>
      <trkpt lat="43.2071" lon="2.0206">
        <ele>248.16</ele>
        <time>2017-11-18T10:48:06Z</time>
      </trkpt>
      <trkpt lat="43.20711" lon="2.02042">
        <ele>249.12</ele>
        <time>2017-11-18T10:48:18Z</time>
      </trkpt>
      <trkpt lat="43.20713" lon="2.02024">
        <ele>249.12</ele>
        <time>2017-11-18T10:48:31Z</time>
      </trkpt>
      <trkpt lat="43.20712" lon="2.02023">
        <ele>250.08</ele>
        <time>2017-11-18T10:48:32Z</time>
      </trkpt>
      <trkpt lat="43.20714" lon="2.02016">
        <ele>250.08</ele>
        <time>2017-11-18T10:48:37Z</time>
      </trkpt>
      <trkpt lat="43.20717" lon="2.02">
        <ele>252</ele>
        <time>2017-11-18T10:48:51Z</time>
      </trkpt>
      <trkpt lat="43.20717" lon="2.01992">
        <ele>253.44</ele>
        <time>2017-11-18T10:48:57Z</time>
      </trkpt>
      <trkpt lat="43.20718" lon="2.01977">
        <ele>256.33</ele>
        <time>2017-11-18T10:49:13Z</time>
      </trkpt>
      <trkpt lat="43.20716" lon="2.01972">
        <ele>256.81</ele>
        <time>2017-11-18T10:49:17Z</time>
      </trkpt>
      <trkpt lat="43.20707" lon="2.01956">
        <ele>256.81</ele>
        <time>2017-11-18T10:49:32Z</time>
      </trkpt>
      <trkpt lat="43.20701" lon="2.0195">
        <ele>255.85</ele>
        <time>2017-11-18T10:49:41Z</time>
      </trkpt>
      <trkpt lat="43.20698" lon="2.01944">
        <ele>254.89</ele>
        <time>2017-11-18T10:49:47Z</time>
      </trkpt>
      <trkpt lat="43.20697" lon="2.01942">
        <ele>254.89</ele>
        <time>2017-11-18T10:49:49Z</time>
      </trkpt>
      <trkpt lat="43.2069" lon="2.01914">
        <ele>251.52</ele>
        <time>2017-11-18T10:50:08Z</time>
      </trkpt>
      <trkpt lat="43.20691" lon="2.01896">
        <ele>251.52</ele>
        <time>2017-11-18T10:50:21Z</time>
      </trkpt>
      <trkpt lat="43.20693" lon="2.01874">
        <ele>252.96</ele>
        <time>2017-11-18T10:50:36Z</time>
      </trkpt>
      <trkpt lat="43.20695" lon="2.01851">
        <ele>254.41</ele>
        <time>2017-11-18T10:50:51Z</time>
      </trkpt>
      <trkpt lat="43.20695" lon="2.0185">
        <ele>254.41</ele>
        <time>2017-11-18T10:50:52Z</time>
      </trkpt>
      <trkpt lat="43.20697" lon="2.01827">
        <ele>256.33</ele>
        <time>2017-11-18T10:51:09Z</time>
      </trkpt>
      <trkpt lat="43.20699" lon="2.01814">
        <ele>256.81</ele>
        <time>2017-11-18T10:51:18Z</time>
      </trkpt>
      <trkpt lat="43.20701" lon="2.01792">
        <ele>257.29</ele>
        <time>2017-11-18T10:51:33Z</time>
      </trkpt>
      <trkpt lat="43.20702" lon="2.01787">
        <ele>258.25</ele>
        <time>2017-11-18T10:51:37Z</time>
      </trkpt>
      <trkpt lat="43.20706" lon="2.01767">
        <ele>259.21</ele>
        <time>2017-11-18T10:51:51Z</time>
      </trkpt>
      <trkpt lat="43.20709" lon="2.0175">
        <ele>260.17</ele>
        <time>2017-11-18T10:52:04Z</time>
      </trkpt>
      <trkpt lat="43.20712" lon="2.0173">
        <ele>262.1</ele>
        <time>2017-11-18T10:52:18Z</time>
      </trkpt>
      <trkpt lat="43.20712" lon="2.01729">
        <ele>262.58</ele>
        <time>2017-11-18T10:52:19Z</time>
      </trkpt>
      <trkpt lat="43.20713" lon="2.0172">
        <ele>262.58</ele>
        <time>2017-11-18T10:52:25Z</time>
      </trkpt>
      <trkpt lat="43.20714" lon="2.0171">
        <ele>263.54</ele>
        <time>2017-11-18T10:52:33Z</time>
      </trkpt>
      <trkpt lat="43.20717" lon="2.01693">
        <ele>265.46</ele>
        <time>2017-11-18T10:52:49Z</time>
      </trkpt>
      <trkpt lat="43.20718" lon="2.01696">
        <ele>265.46</ele>
        <time>2017-11-18T10:53:07Z</time>
      </trkpt>
      <trkpt lat="43.20716" lon="2.01692">
        <ele>264.98</ele>
        <time>2017-11-18T10:53:29Z</time>
      </trkpt>
      <trkpt lat="43.20718" lon="2.01682">
        <ele>265.94</ele>
        <time>2017-11-18T10:53:42Z</time>
      </trkpt>
      <trkpt lat="43.20718" lon="2.01675">
        <ele>266.42</ele>
        <time>2017-11-18T10:53:46Z</time>
      </trkpt>
      <trkpt lat="43.20719" lon="2.01663">
        <ele>267.38</ele>
        <time>2017-11-18T10:53:53Z</time>
      </trkpt>
      <trkpt lat="43.20719" lon="2.01658">
        <ele>267.38</ele>
        <time>2017-11-18T10:53:56Z</time>
      </trkpt>
      <trkpt lat="43.20719" lon="2.01641">
        <ele>269.31</ele>
        <time>2017-11-18T10:54:09Z</time>
      </trkpt>
      <trkpt lat="43.20718" lon="2.01637">
        <ele>269.79</ele>
        <time>2017-11-18T10:54:11Z</time>
      </trkpt>
      <trkpt lat="43.2072" lon="2.01626">
        <ele>271.23</ele>
        <time>2017-11-18T10:54:20Z</time>
      </trkpt>
      <trkpt lat="43.2072" lon="2.01611">
        <ele>273.63</ele>
        <time>2017-11-18T10:54:33Z</time>
      </trkpt>
      <trkpt lat="43.20722" lon="2.01596">
        <ele>276.04</ele>
        <time>2017-11-18T10:54:47Z</time>
      </trkpt>
      <trkpt lat="43.20724" lon="2.01579">
        <ele>277</ele>
        <time>2017-11-18T10:55:01Z</time>
      </trkpt>
      <trkpt lat="43.20724" lon="2.01576">
        <ele>278.44</ele>
        <time>2017-11-18T10:55:03Z</time>
      </trkpt>
      <trkpt lat="43.20725" lon="2.01574">
        <ele>278.44</ele>
        <time>2017-11-18T10:55:06Z</time>
      </trkpt>
      <trkpt lat="43.20728" lon="2.01555">
        <ele>279.4</ele>
        <time>2017-11-18T10:55:19Z</time>
      </trkpt>
      <trkpt lat="43.20733" lon="2.01543">
        <ele>280.36</ele>
        <time>2017-11-18T10:55:31Z</time>
      </trkpt>
      <trkpt lat="43.20739" lon="2.01526">
        <ele>281.8</ele>
        <time>2017-11-18T10:55:46Z</time>
      </trkpt>
      <trkpt lat="43.20744" lon="2.01514">
        <ele>283.73</ele>
        <time>2017-11-18T10:55:58Z</time>
      </trkpt>
      <trkpt lat="43.20747" lon="2.01504">
        <ele>285.17</ele>
        <time>2017-11-18T10:56:07Z</time>
      </trkpt>
      <trkpt lat="43.20751" lon="2.01497">
        <ele>286.61</ele>
        <time>2017-11-18T10:56:14Z</time>
      </trkpt>
      <trkpt lat="43.20754" lon="2.01485">
        <ele>288.05</ele>
        <time>2017-11-18T10:56:23Z</time>
      </trkpt>
      <trkpt lat="43.20755" lon="2.01483">
        <ele>288.53</ele>
        <time>2017-11-18T10:56:25Z</time>
      </trkpt>
      <trkpt lat="43.20759" lon="2.01469">
        <ele>289.97</ele>
        <time>2017-11-18T10:56:37Z</time>
      </trkpt>
      <trkpt lat="43.20768" lon="2.01457">
        <ele>291.42</ele>
        <time>2017-11-18T10:56:50Z</time>
      </trkpt>
      <trkpt lat="43.20774" lon="2.0146">
        <ele>292.86</ele>
        <time>2017-11-18T10:57:00Z</time>
      </trkpt>
      <trkpt lat="43.20786" lon="2.01478">
        <ele>293.82</ele>
        <time>2017-11-18T10:57:15Z</time>
      </trkpt>
      <trkpt lat="43.20792" lon="2.01486">
        <ele>294.78</ele>
        <time>2017-11-18T10:57:23Z</time>
      </trkpt>
      <trkpt lat="43.20796" lon="2.01495">
        <ele>295.26</ele>
        <time>2017-11-18T10:57:31Z</time>
      </trkpt>
      <trkpt lat="43.20794" lon="2.01522">
        <ele>296.7</ele>
        <time>2017-11-18T10:57:48Z</time>
      </trkpt>
      <trkpt lat="43.20792" lon="2.01529">
        <ele>296.7</ele>
        <time>2017-11-18T10:57:53Z</time>
      </trkpt>
      <trkpt lat="43.20788" lon="2.01541">
        <ele>296.22</ele>
        <time>2017-11-18T10:58:03Z</time>
      </trkpt>
      <trkpt lat="43.20784" lon="2.0156">
        <ele>295.26</ele>
        <time>2017-11-18T10:58:16Z</time>
      </trkpt>
      <trkpt lat="43.20783" lon="2.01563">
        <ele>295.74</ele>
        <time>2017-11-18T10:58:18Z</time>
      </trkpt>
      <trkpt lat="43.20775" lon="2.01585">
        <ele>295.74</ele>
        <time>2017-11-18T10:58:35Z</time>
      </trkpt>
      <trkpt lat="43.20768" lon="2.01606">
        <ele>295.74</ele>
        <time>2017-11-18T10:58:50Z</time>
      </trkpt>
      <trkpt lat="43.20764" lon="2.01621">
        <ele>294.78</ele>
        <time>2017-11-18T10:59:02Z</time>
      </trkpt>
      <trkpt lat="43.2076" lon="2.01644">
        <ele>292.86</ele>
        <time>2017-11-18T10:59:18Z</time>
      </trkpt>
      <trkpt lat="43.2076" lon="2.01667">
        <ele>292.86</ele>
        <time>2017-11-18T10:59:33Z</time>
      </trkpt>
      <trkpt lat="43.2076" lon="2.01689">
        <ele>292.86</ele>
        <time>2017-11-18T10:59:47Z</time>
      </trkpt>
      <trkpt lat="43.20759" lon="2.01693">
        <ele>292.86</ele>
        <time>2017-11-18T10:59:53Z</time>
      </trkpt>
      <trkpt lat="43.2076" lon="2.01697">
        <ele>292.38</ele>
        <time>2017-11-18T10:59:56Z</time>
      </trkpt>
      <trkpt lat="43.20762" lon="2.01719">
        <ele>292.86</ele>
        <time>2017-11-18T11:00:11Z</time>
      </trkpt>
      <trkpt lat="43.20763" lon="2.0173">
        <ele>292.38</ele>
        <time>2017-11-18T11:00:24Z</time>
      </trkpt>
      <trkpt lat="43.20763" lon="2.0173">
        <ele>292.86</ele>
        <time>2017-11-18T11:00:32Z</time>
      </trkpt>
      <trkpt lat="43.20763" lon="2.01733">
        <ele>292.86</ele>
        <time>2017-11-18T11:00:35Z</time>
      </trkpt>
      <trkpt lat="43.20763" lon="2.01738">
        <ele>293.34</ele>
        <time>2017-11-18T11:00:38Z</time>
      </trkpt>
      <trkpt lat="43.20765" lon="2.01758">
        <ele>293.82</ele>
        <time>2017-11-18T11:00:52Z</time>
      </trkpt>
      <trkpt lat="43.20766" lon="2.01765">
        <ele>293.82</ele>
        <time>2017-11-18T11:00:57Z</time>
      </trkpt>
      <trkpt lat="43.20768" lon="2.01785">
        <ele>293.82</ele>
        <time>2017-11-18T11:01:11Z</time>
      </trkpt>
      <trkpt lat="43.20771" lon="2.01802">
        <ele>293.34</ele>
        <time>2017-11-18T11:01:24Z</time>
      </trkpt>
      <trkpt lat="43.20774" lon="2.01828">
        <ele>294.3</ele>
        <time>2017-11-18T11:01:42Z</time>
      </trkpt>
      <trkpt lat="43.20776" lon="2.01848">
        <ele>294.78</ele>
        <time>2017-11-18T11:01:57Z</time>
      </trkpt>
      <trkpt lat="43.20779" lon="2.01869">
        <ele>295.26</ele>
        <time>2017-11-18T11:02:11Z</time>
      </trkpt>
      <trkpt lat="43.20783" lon="2.01886">
        <ele>296.22</ele>
        <time>2017-11-18T11:02:25Z</time>
      </trkpt>
      <trkpt lat="43.20788" lon="2.01906">
        <ele>296.7</ele>
        <time>2017-11-18T11:02:40Z</time>
      </trkpt>
      <trkpt lat="43.20792" lon="2.01921">
        <ele>297.18</ele>
        <time>2017-11-18T11:02:52Z</time>
      </trkpt>
      <trkpt lat="43.20794" lon="2.01926">
        <ele>297.18</ele>
        <time>2017-11-18T11:02:57Z</time>
      </trkpt>
      <trkpt lat="43.20796" lon="2.01945">
        <ele>297.18</ele>
        <time>2017-11-18T11:03:12Z</time>
      </trkpt>
      <trkpt lat="43.20797" lon="2.01949">
        <ele>297.18</ele>
        <time>2017-11-18T11:03:15Z</time>
      </trkpt>
      <trkpt lat="43.208" lon="2.01965">
        <ele>296.7</ele>
        <time>2017-11-18T11:03:29Z</time>
      </trkpt>
      <trkpt lat="43.208" lon="2.01983">
        <ele>295.26</ele>
        <time>2017-11-18T11:03:42Z</time>
      </trkpt>
      <trkpt lat="43.20801" lon="2.01987">
        <ele>295.26</ele>
        <time>2017-11-18T11:03:45Z</time>
      </trkpt>
      <trkpt lat="43.20802" lon="2.02007">
        <ele>294.78</ele>
        <time>2017-11-18T11:03:59Z</time>
      </trkpt>
      <trkpt lat="43.20804" lon="2.0203">
        <ele>294.78</ele>
        <time>2017-11-18T11:04:15Z</time>
      </trkpt>
      <trkpt lat="43.20805" lon="2.02039">
        <ele>295.26</ele>
        <time>2017-11-18T11:04:21Z</time>
      </trkpt>
      <trkpt lat="43.20832" lon="2.02065">
        <ele>293.34</ele>
        <time>2017-11-18T11:19:38Z</time>
      </trkpt>
      <trkpt lat="43.20838" lon="2.02064">
        <ele>293.34</ele>
        <time>2017-11-18T11:19:44Z</time>
      </trkpt>
      <trkpt lat="43.2085" lon="2.02069">
        <ele>293.34</ele>
        <time>2017-11-18T11:19:58Z</time>
      </trkpt>
      <trkpt lat="43.20854" lon="2.02075">
        <ele>293.82</ele>
        <time>2017-11-18T11:20:18Z</time>
      </trkpt>
      <trkpt lat="43.2086" lon="2.02076">
        <ele>294.3</ele>
        <time>2017-11-18T11:20:29Z</time>
      </trkpt>
      <trkpt lat="43.20874" lon="2.02084">
        <ele>294.3</ele>
        <time>2017-11-18T11:20:43Z</time>
      </trkpt>
      <trkpt lat="43.20878" lon="2.02089">
        <ele>294.3</ele>
        <time>2017-11-18T11:20:48Z</time>
      </trkpt>
      <trkpt lat="43.20882" lon="2.02102">
        <ele>294.3</ele>
        <time>2017-11-18T11:20:58Z</time>
      </trkpt>
      <trkpt lat="43.20884" lon="2.02111">
        <ele>294.78</ele>
        <time>2017-11-18T11:21:04Z</time>
      </trkpt>
      <trkpt lat="43.20885" lon="2.02115">
        <ele>294.78</ele>
        <time>2017-11-18T11:21:07Z</time>
      </trkpt>
      <trkpt lat="43.20891" lon="2.0213">
        <ele>294.78</ele>
        <time>2017-11-18T11:21:19Z</time>
      </trkpt>
      <trkpt lat="43.20906" lon="2.02141">
        <ele>295.74</ele>
        <time>2017-11-18T11:21:36Z</time>
      </trkpt>
      <trkpt lat="43.20912" lon="2.02139">
        <ele>295.26</ele>
        <time>2017-11-18T11:21:45Z</time>
      </trkpt>
      <trkpt lat="43.20916" lon="2.02137">
        <ele>295.26</ele>
        <time>2017-11-18T11:21:49Z</time>
      </trkpt>
      <trkpt lat="43.2093" lon="2.02131">
        <ele>294.78</ele>
        <time>2017-11-18T11:22:02Z</time>
      </trkpt>
      <trkpt lat="43.20941" lon="2.02126">
        <ele>294.3</ele>
        <time>2017-11-18T11:22:15Z</time>
      </trkpt>
      <trkpt lat="43.20954" lon="2.02119">
        <ele>293.82</ele>
        <time>2017-11-18T11:22:29Z</time>
      </trkpt>
      <trkpt lat="43.20966" lon="2.02113">
        <ele>293.82</ele>
        <time>2017-11-18T11:22:43Z</time>
      </trkpt>
      <trkpt lat="43.20976" lon="2.02108">
        <ele>293.34</ele>
        <time>2017-11-18T11:22:55Z</time>
      </trkpt>
      <trkpt lat="43.20985" lon="2.02102">
        <ele>292.86</ele>
        <time>2017-11-18T11:23:08Z</time>
      </trkpt>
      <trkpt lat="43.20994" lon="2.02091">
        <ele>291.9</ele>
        <time>2017-11-18T11:23:22Z</time>
      </trkpt>
      <trkpt lat="43.21002" lon="2.02078">
        <ele>289.49</ele>
        <time>2017-11-18T11:23:39Z</time>
      </trkpt>
      <trkpt lat="43.21009" lon="2.02069">
        <ele>288.05</ele>
        <time>2017-11-18T11:23:53Z</time>
      </trkpt>
      <trkpt lat="43.21016" lon="2.0206">
        <ele>286.13</ele>
        <time>2017-11-18T11:24:05Z</time>
      </trkpt>
      <trkpt lat="43.21023" lon="2.02049">
        <ele>283.73</ele>
        <time>2017-11-18T11:24:19Z</time>
      </trkpt>
      <trkpt lat="43.2103" lon="2.0204">
        <ele>281.32</ele>
        <time>2017-11-18T11:24:31Z</time>
      </trkpt>
      <trkpt lat="43.21031" lon="2.02037">
        <ele>280.84</ele>
        <time>2017-11-18T11:24:34Z</time>
      </trkpt>
      <trkpt lat="43.21036" lon="2.02026">
        <ele>279.4</ele>
        <time>2017-11-18T11:24:44Z</time>
      </trkpt>
      <trkpt lat="43.21041" lon="2.02019">
        <ele>278.44</ele>
        <time>2017-11-18T11:24:51Z</time>
      </trkpt>
      <trkpt lat="43.21047" lon="2.02002">
        <ele>276.04</ele>
        <time>2017-11-18T11:25:07Z</time>
      </trkpt>
      <trkpt lat="43.21051" lon="2.01992">
        <ele>274.59</ele>
        <time>2017-11-18T11:25:15Z</time>
      </trkpt>
      <trkpt lat="43.21053" lon="2.01989">
        <ele>274.11</ele>
        <time>2017-11-18T11:25:18Z</time>
      </trkpt>
      <trkpt lat="43.21061" lon="2.01981">
        <ele>273.63</ele>
        <time>2017-11-18T11:25:31Z</time>
      </trkpt>
      <trkpt lat="43.21063" lon="2.0198">
        <ele>272.67</ele>
        <time>2017-11-18T11:25:33Z</time>
      </trkpt>
      <trkpt lat="43.21074" lon="2.01973">
        <ele>270.27</ele>
        <time>2017-11-18T11:25:47Z</time>
      </trkpt>
      <trkpt lat="43.21085" lon="2.01968">
        <ele>268.35</ele>
        <time>2017-11-18T11:26:00Z</time>
      </trkpt>
      <trkpt lat="43.21096" lon="2.01965">
        <ele>265.94</ele>
        <time>2017-11-18T11:26:14Z</time>
      </trkpt>
      <trkpt lat="43.21107" lon="2.01959">
        <ele>263.54</ele>
        <time>2017-11-18T11:26:27Z</time>
      </trkpt>
      <trkpt lat="43.21118" lon="2.01954">
        <ele>261.14</ele>
        <time>2017-11-18T11:26:40Z</time>
      </trkpt>
      <trkpt lat="43.21127" lon="2.0195">
        <ele>259.21</ele>
        <time>2017-11-18T11:26:51Z</time>
      </trkpt>
      <trkpt lat="43.21136" lon="2.01959">
        <ele>257.77</ele>
        <time>2017-11-18T11:27:04Z</time>
      </trkpt>
      <trkpt lat="43.21137" lon="2.01967">
        <ele>256.81</ele>
        <time>2017-11-18T11:27:10Z</time>
      </trkpt>
      <trkpt lat="43.21141" lon="2.01983">
        <ele>255.37</ele>
        <time>2017-11-18T11:27:23Z</time>
      </trkpt>
      <trkpt lat="43.21141" lon="2.02">
        <ele>254.41</ele>
        <time>2017-11-18T11:27:36Z</time>
      </trkpt>
      <trkpt lat="43.21142" lon="2.02015">
        <ele>253.93</ele>
        <time>2017-11-18T11:27:47Z</time>
      </trkpt>
      <trkpt lat="43.21143" lon="2.02032">
        <ele>252</ele>
        <time>2017-11-18T11:28:02Z</time>
      </trkpt>
      <trkpt lat="43.21142" lon="2.02044">
        <ele>251.04</ele>
        <time>2017-11-18T11:28:14Z</time>
      </trkpt>
      <trkpt lat="43.21144" lon="2.02047">
        <ele>250.56</ele>
        <time>2017-11-18T11:28:28Z</time>
      </trkpt>
      <trkpt lat="43.21143" lon="2.0206">
        <ele>250.08</ele>
        <time>2017-11-18T11:28:43Z</time>
      </trkpt>
      <trkpt lat="43.21145" lon="2.02069">
        <ele>249.6</ele>
        <time>2017-11-18T11:28:56Z</time>
      </trkpt>
      <trkpt lat="43.21145" lon="2.02071">
        <ele>249.6</ele>
        <time>2017-11-18T11:29:15Z</time>
      </trkpt>
      <trkpt lat="43.21148" lon="2.02078">
        <ele>249.12</ele>
        <time>2017-11-18T11:29:29Z</time>
      </trkpt>
      <trkpt lat="43.21151" lon="2.02069">
        <ele>247.68</ele>
        <time>2017-11-18T11:29:39Z</time>
      </trkpt>
      <trkpt lat="43.2116" lon="2.02053">
        <ele>245.75</ele>
        <time>2017-11-18T11:29:53Z</time>
      </trkpt>
      <trkpt lat="43.21168" lon="2.02042">
        <ele>244.79</ele>
        <time>2017-11-18T11:30:10Z</time>
      </trkpt>
      <trkpt lat="43.21174" lon="2.02028">
        <ele>243.83</ele>
        <time>2017-11-18T11:30:23Z</time>
      </trkpt>
      <trkpt lat="43.21184" lon="2.02013">
        <ele>242.87</ele>
        <time>2017-11-18T11:30:37Z</time>
      </trkpt>
      <trkpt lat="43.21194" lon="2.01996">
        <ele>240.95</ele>
        <time>2017-11-18T11:30:53Z</time>
      </trkpt>
      <trkpt lat="43.21202" lon="2.01979">
        <ele>239.51</ele>
        <time>2017-11-18T11:31:07Z</time>
      </trkpt>
      <trkpt lat="43.21205" lon="2.01966">
        <ele>238.54</ele>
        <time>2017-11-18T11:31:18Z</time>
      </trkpt>
      <trkpt lat="43.2121" lon="2.0195">
        <ele>236.62</ele>
        <time>2017-11-18T11:31:32Z</time>
      </trkpt>
      <trkpt lat="43.21212" lon="2.01943">
        <ele>236.14</ele>
        <time>2017-11-18T11:31:44Z</time>
      </trkpt>
      <trkpt lat="43.21213" lon="2.01927">
        <ele>234.7</ele>
        <time>2017-11-18T11:31:57Z</time>
      </trkpt>
      <trkpt lat="43.21215" lon="2.01912">
        <ele>234.7</ele>
        <time>2017-11-18T11:32:13Z</time>
      </trkpt>
      <trkpt lat="43.21217" lon="2.01894">
        <ele>233.26</ele>
        <time>2017-11-18T11:32:29Z</time>
      </trkpt>
      <trkpt lat="43.21223" lon="2.01877">
        <ele>232.3</ele>
        <time>2017-11-18T11:32:43Z</time>
      </trkpt>
      <trkpt lat="43.21229" lon="2.01864">
        <ele>231.33</ele>
        <time>2017-11-18T11:32:54Z</time>
      </trkpt>
      <trkpt lat="43.21231" lon="2.01861">
        <ele>230.37</ele>
        <time>2017-11-18T11:32:57Z</time>
      </trkpt>
      <trkpt lat="43.21239" lon="2.01847">
        <ele>229.41</ele>
        <time>2017-11-18T11:33:10Z</time>
      </trkpt>
      <trkpt lat="43.21243" lon="2.01841">
        <ele>229.89</ele>
        <time>2017-11-18T11:33:16Z</time>
      </trkpt>
      <trkpt lat="43.21251" lon="2.01829">
        <ele>228.45</ele>
        <time>2017-11-18T11:33:28Z</time>
      </trkpt>
      <trkpt lat="43.21259" lon="2.01817">
        <ele>227.97</ele>
        <time>2017-11-18T11:33:41Z</time>
      </trkpt>
      <trkpt lat="43.21262" lon="2.01815">
        <ele>227.97</ele>
        <time>2017-11-18T11:33:45Z</time>
      </trkpt>
      <trkpt lat="43.21276" lon="2.01811">
        <ele>227.49</ele>
        <time>2017-11-18T11:33:59Z</time>
      </trkpt>
      <trkpt lat="43.21287" lon="2.01815">
        <ele>225.57</ele>
        <time>2017-11-18T11:34:11Z</time>
      </trkpt>
      <trkpt lat="43.21301" lon="2.01818">
        <ele>224.12</ele>
        <time>2017-11-18T11:34:25Z</time>
      </trkpt>
      <trkpt lat="43.21315" lon="2.01818">
        <ele>223.16</ele>
        <time>2017-11-18T11:34:38Z</time>
      </trkpt>
      <trkpt lat="43.21327" lon="2.01823">
        <ele>222.68</ele>
        <time>2017-11-18T11:34:50Z</time>
      </trkpt>
      <trkpt lat="43.21333" lon="2.01829">
        <ele>222.68</ele>
        <time>2017-11-18T11:34:57Z</time>
      </trkpt>
      <trkpt lat="43.21337" lon="2.01831">
        <ele>222.68</ele>
        <time>2017-11-18T11:35:01Z</time>
      </trkpt>
      <trkpt lat="43.21351" lon="2.01843">
        <ele>222.68</ele>
        <time>2017-11-18T11:35:16Z</time>
      </trkpt>
      <trkpt lat="43.21356" lon="2.01848">
        <ele>222.2</ele>
        <time>2017-11-18T11:35:23Z</time>
      </trkpt>
      <trkpt lat="43.21368" lon="2.01853">
        <ele>221.72</ele>
        <time>2017-11-18T11:35:36Z</time>
      </trkpt>
      <trkpt lat="43.21375" lon="2.01853">
        <ele>221.24</ele>
        <time>2017-11-18T11:35:42Z</time>
      </trkpt>
      <trkpt lat="43.21391" lon="2.01854">
        <ele>219.8</ele>
        <time>2017-11-18T11:35:57Z</time>
      </trkpt>
      <trkpt lat="43.21402" lon="2.01857">
        <ele>219.32</ele>
        <time>2017-11-18T11:36:09Z</time>
      </trkpt>
      <trkpt lat="43.21413" lon="2.01862">
        <ele>218.84</ele>
        <time>2017-11-18T11:36:21Z</time>
      </trkpt>
      <trkpt lat="43.21426" lon="2.01868">
        <ele>218.84</ele>
        <time>2017-11-18T11:36:35Z</time>
      </trkpt>
      <trkpt lat="43.21434" lon="2.01871">
        <ele>217.88</ele>
        <time>2017-11-18T11:36:43Z</time>
      </trkpt>
      <trkpt lat="43.21437" lon="2.01872">
        <ele>217.4</ele>
        <time>2017-11-18T11:36:47Z</time>
      </trkpt>
      <trkpt lat="43.2145" lon="2.01879">
        <ele>216.43</ele>
        <time>2017-11-18T11:36:59Z</time>
      </trkpt>
      <trkpt lat="43.21454" lon="2.01882">
        <ele>215.95</ele>
        <time>2017-11-18T11:37:03Z</time>
      </trkpt>
      <trkpt lat="43.21458" lon="2.0188">
        <ele>215.95</ele>
        <time>2017-11-18T11:37:08Z</time>
      </trkpt>
      <trkpt lat="43.21457" lon="2.01872">
        <ele>215.95</ele>
        <time>2017-11-18T11:37:14Z</time>
      </trkpt>
      <trkpt lat="43.21482" lon="2.01859">
        <ele>214.51</ele>
        <time>2017-11-18T11:38:11Z</time>
      </trkpt>
      <trkpt lat="43.21488" lon="2.01852">
        <ele>214.03</ele>
        <time>2017-11-18T11:38:19Z</time>
      </trkpt>
      <trkpt lat="43.21491" lon="2.01849">
        <ele>213.55</ele>
        <time>2017-11-18T11:38:23Z</time>
      </trkpt>
      <trkpt lat="43.21499" lon="2.01837">
        <ele>212.59</ele>
        <time>2017-11-18T11:38:37Z</time>
      </trkpt>
      <trkpt lat="43.21502" lon="2.01834">
        <ele>212.11</ele>
        <time>2017-11-18T11:38:41Z</time>
      </trkpt>
      <trkpt lat="43.21513" lon="2.01821">
        <ele>211.63</ele>
        <time>2017-11-18T11:38:53Z</time>
      </trkpt>
      <trkpt lat="43.21529" lon="2.01814">
        <ele>210.67</ele>
        <time>2017-11-18T11:39:07Z</time>
      </trkpt>
      <trkpt lat="43.21543" lon="2.01807">
        <ele>210.19</ele>
        <time>2017-11-18T11:39:21Z</time>
      </trkpt>
      <trkpt lat="43.21548" lon="2.01805">
        <ele>210.19</ele>
        <time>2017-11-18T11:39:32Z</time>
      </trkpt>
      <trkpt lat="43.21554" lon="2.01802">
        <ele>209.7</ele>
        <time>2017-11-18T11:39:44Z</time>
      </trkpt>
      <trkpt lat="43.21565" lon="2.01795">
        <ele>209.7</ele>
        <time>2017-11-18T11:39:59Z</time>
      </trkpt>
      <trkpt lat="43.21577" lon="2.01786">
        <ele>209.7</ele>
        <time>2017-11-18T11:40:13Z</time>
      </trkpt>
      <trkpt lat="43.21588" lon="2.01776">
        <ele>209.7</ele>
        <time>2017-11-18T11:40:29Z</time>
      </trkpt>
      <trkpt lat="43.2159" lon="2.01777">
        <ele>208.74</ele>
        <time>2017-11-18T11:40:49Z</time>
      </trkpt>
      <trkpt lat="43.21599" lon="2.01776">
        <ele>206.82</ele>
        <time>2017-11-18T11:41:03Z</time>
      </trkpt>
      <trkpt lat="43.21605" lon="2.01784">
        <ele>206.82</ele>
        <time>2017-11-18T11:41:18Z</time>
      </trkpt>
      <trkpt lat="43.21614" lon="2.01793">
        <ele>207.3</ele>
        <time>2017-11-18T11:41:29Z</time>
      </trkpt>
      <trkpt lat="43.21622" lon="2.01786">
        <ele>208.26</ele>
        <time>2017-11-18T11:41:41Z</time>
      </trkpt>
      <trkpt lat="43.21636" lon="2.01781">
        <ele>207.78</ele>
        <time>2017-11-18T11:41:56Z</time>
      </trkpt>
      <trkpt lat="43.21645" lon="2.0177">
        <ele>208.26</ele>
        <time>2017-11-18T11:42:09Z</time>
      </trkpt>
      <trkpt lat="43.21644" lon="2.01769">
        <ele>208.26</ele>
        <time>2017-11-18T11:42:15Z</time>
      </trkpt>
      <trkpt lat="43.21654" lon="2.0177">
        <ele>208.26</ele>
        <time>2017-11-18T11:42:30Z</time>
      </trkpt>
      <trkpt lat="43.2167" lon="2.01767">
        <ele>207.78</ele>
        <time>2017-11-18T11:42:44Z</time>
      </trkpt>
      <trkpt lat="43.21688" lon="2.01764">
        <ele>207.3</ele>
        <time>2017-11-18T11:43:02Z</time>
      </trkpt>
      <trkpt lat="43.21694" lon="2.01762">
        <ele>206.82</ele>
        <time>2017-11-18T11:43:09Z</time>
      </trkpt>
      <trkpt lat="43.21709" lon="2.01762">
        <ele>205.86</ele>
        <time>2017-11-18T11:43:22Z</time>
      </trkpt>
      <trkpt lat="43.21722" lon="2.01762">
        <ele>204.9</ele>
        <time>2017-11-18T11:43:36Z</time>
      </trkpt>
      <trkpt lat="43.21735" lon="2.01759">
        <ele>203.94</ele>
        <time>2017-11-18T11:43:49Z</time>
      </trkpt>
      <trkpt lat="43.21741" lon="2.01755">
        <ele>203.46</ele>
        <time>2017-11-18T11:44:03Z</time>
      </trkpt>
      <trkpt lat="43.21754" lon="2.01751">
        <ele>203.46</ele>
        <time>2017-11-18T11:44:21Z</time>
      </trkpt>
      <trkpt lat="43.21771" lon="2.01753">
        <ele>203.46</ele>
        <time>2017-11-18T11:44:37Z</time>
      </trkpt>
      <trkpt lat="43.21786" lon="2.0176">
        <ele>203.46</ele>
        <time>2017-11-18T11:44:51Z</time>
      </trkpt>
      <trkpt lat="43.218" lon="2.01766">
        <ele>204.42</ele>
        <time>2017-11-18T11:45:06Z</time>
      </trkpt>
      <trkpt lat="43.21809" lon="2.01765">
        <ele>205.86</ele>
        <time>2017-11-18T11:45:15Z</time>
      </trkpt>
      <trkpt lat="43.21816" lon="2.01757">
        <ele>206.34</ele>
        <time>2017-11-18T11:45:28Z</time>
      </trkpt>
      <trkpt lat="43.21817" lon="2.01754">
        <ele>206.34</ele>
        <time>2017-11-18T11:45:32Z</time>
      </trkpt>
      <trkpt lat="43.21823" lon="2.01744">
        <ele>207.3</ele>
        <time>2017-11-18T11:45:44Z</time>
      </trkpt>
      <trkpt lat="43.21829" lon="2.01735">
        <ele>207.78</ele>
        <time>2017-11-18T11:45:55Z</time>
      </trkpt>
      <trkpt lat="43.21836" lon="2.01727">
        <ele>209.22</ele>
        <time>2017-11-18T11:46:07Z</time>
      </trkpt>
      <trkpt lat="43.21846" lon="2.01716">
        <ele>210.67</ele>
        <time>2017-11-18T11:46:22Z</time>
      </trkpt>
      <trkpt lat="43.21852" lon="2.01703">
        <ele>212.11</ele>
        <time>2017-11-18T11:46:38Z</time>
      </trkpt>
      <trkpt lat="43.21858" lon="2.01693">
        <ele>213.07</ele>
        <time>2017-11-18T11:46:50Z</time>
      </trkpt>
      <trkpt lat="43.21862" lon="2.01683">
        <ele>214.51</ele>
        <time>2017-11-18T11:47:03Z</time>
      </trkpt>
      <trkpt lat="43.21867" lon="2.01669">
        <ele>215.95</ele>
        <time>2017-11-18T11:47:17Z</time>
      </trkpt>
      <trkpt lat="43.21871" lon="2.01658">
        <ele>217.4</ele>
        <time>2017-11-18T11:47:29Z</time>
      </trkpt>
      <trkpt lat="43.21874" lon="2.01648">
        <ele>218.84</ele>
        <time>2017-11-18T11:47:41Z</time>
      </trkpt>
      <trkpt lat="43.21877" lon="2.01639">
        <ele>219.8</ele>
        <time>2017-11-18T11:47:52Z</time>
      </trkpt>
      <trkpt lat="43.21878" lon="2.01626">
        <ele>220.76</ele>
        <time>2017-11-18T11:48:03Z</time>
      </trkpt>
      <trkpt lat="43.21881" lon="2.01618">
        <ele>221.24</ele>
        <time>2017-11-18T11:48:13Z</time>
      </trkpt>
      <trkpt lat="43.21883" lon="2.01605">
        <ele>222.2</ele>
        <time>2017-11-18T11:48:27Z</time>
      </trkpt>
      <trkpt lat="43.21883" lon="2.01603">
        <ele>222.2</ele>
        <time>2017-11-18T11:48:29Z</time>
      </trkpt>
      <trkpt lat="43.21884" lon="2.01595">
        <ele>222.2</ele>
        <time>2017-11-18T11:48:36Z</time>
      </trkpt>
      <trkpt lat="43.21884" lon="2.01589">
        <ele>222.2</ele>
        <time>2017-11-18T11:48:41Z</time>
      </trkpt>
      <trkpt lat="43.21885" lon="2.01572">
        <ele>222.68</ele>
        <time>2017-11-18T11:48:55Z</time>
      </trkpt>
      <trkpt lat="43.21886" lon="2.01559">
        <ele>223.16</ele>
        <time>2017-11-18T11:49:06Z</time>
      </trkpt>
      <trkpt lat="43.21886" lon="2.01554">
        <ele>223.16</ele>
        <time>2017-11-18T11:49:10Z</time>
      </trkpt>
      <trkpt lat="43.21884" lon="2.01533">
        <ele>223.16</ele>
        <time>2017-11-18T11:49:25Z</time>
      </trkpt>
      <trkpt lat="43.21884" lon="2.01527">
        <ele>224.61</ele>
        <time>2017-11-18T11:49:31Z</time>
      </trkpt>
      <trkpt lat="43.21878" lon="2.01519">
        <ele>225.09</ele>
        <time>2017-11-18T11:49:39Z</time>
      </trkpt>
      <trkpt lat="43.21878" lon="2.01504">
        <ele>226.53</ele>
        <time>2017-11-18T11:49:53Z</time>
      </trkpt>
      <trkpt lat="43.21878" lon="2.01492">
        <ele>227.49</ele>
        <time>2017-11-18T11:50:05Z</time>
      </trkpt>
      <trkpt lat="43.21882" lon="2.01479">
        <ele>228.93</ele>
        <time>2017-11-18T11:50:17Z</time>
      </trkpt>
      <trkpt lat="43.21883" lon="2.01467">
        <ele>228.45</ele>
        <time>2017-11-18T11:50:30Z</time>
      </trkpt>
      <trkpt lat="43.21887" lon="2.01453">
        <ele>227.49</ele>
        <time>2017-11-18T11:50:42Z</time>
      </trkpt>
      <trkpt lat="43.21891" lon="2.0144">
        <ele>226.53</ele>
        <time>2017-11-18T11:50:53Z</time>
      </trkpt>
      <trkpt lat="43.21893" lon="2.01438">
        <ele>226.05</ele>
        <time>2017-11-18T11:50:56Z</time>
      </trkpt>
      <trkpt lat="43.219" lon="2.01427">
        <ele>226.05</ele>
        <time>2017-11-18T11:51:09Z</time>
      </trkpt>
      <trkpt lat="43.21904" lon="2.01418">
        <ele>225.57</ele>
        <time>2017-11-18T11:51:16Z</time>
      </trkpt>
      <trkpt lat="43.2191" lon="2.01401">
        <ele>225.57</ele>
        <time>2017-11-18T11:51:32Z</time>
      </trkpt>
      <trkpt lat="43.21917" lon="2.01388">
        <ele>226.05</ele>
        <time>2017-11-18T11:51:45Z</time>
      </trkpt>
      <trkpt lat="43.21922" lon="2.01375">
        <ele>226.05</ele>
        <time>2017-11-18T11:51:56Z</time>
      </trkpt>
      <trkpt lat="43.2193" lon="2.01359">
        <ele>226.05</ele>
        <time>2017-11-18T11:52:10Z</time>
      </trkpt>
      <trkpt lat="43.21934" lon="2.01348">
        <ele>226.05</ele>
        <time>2017-11-18T11:52:19Z</time>
      </trkpt>
      <trkpt lat="43.21933" lon="2.01344">
        <ele>225.57</ele>
        <time>2017-11-18T11:52:21Z</time>
      </trkpt>
      <trkpt lat="43.21934" lon="2.01329">
        <ele>226.05</ele>
        <time>2017-11-18T11:52:33Z</time>
      </trkpt>
      <trkpt lat="43.21934" lon="2.01311">
        <ele>227.49</ele>
        <time>2017-11-18T11:52:46Z</time>
      </trkpt>
      <trkpt lat="43.21933" lon="2.01298">
        <ele>227.97</ele>
        <time>2017-11-18T11:52:56Z</time>
      </trkpt>
      <trkpt lat="43.21935" lon="2.01296">
        <ele>227.97</ele>
        <time>2017-11-18T11:53:07Z</time>
      </trkpt>
      <trkpt lat="43.21932" lon="2.01277">
        <ele>229.89</ele>
        <time>2017-11-18T11:53:22Z</time>
      </trkpt>
      <trkpt lat="43.21929" lon="2.01256">
        <ele>230.85</ele>
        <time>2017-11-18T11:53:38Z</time>
      </trkpt>
      <trkpt lat="43.21929" lon="2.01247">
        <ele>231.33</ele>
        <time>2017-11-18T11:53:51Z</time>
      </trkpt>
      <trkpt lat="43.21929" lon="2.01243">
        <ele>231.33</ele>
        <time>2017-11-18T11:54:13Z</time>
      </trkpt>
      <trkpt lat="43.21936" lon="2.01202">
        <ele>234.7</ele>
        <time>2017-11-18T12:41:16Z</time>
      </trkpt>
      <trkpt lat="43.21936" lon="2.01189">
        <ele>236.62</ele>
        <time>2017-11-18T12:41:28Z</time>
      </trkpt>
      <trkpt lat="43.21939" lon="2.01177">
        <ele>238.54</ele>
        <time>2017-11-18T12:41:40Z</time>
      </trkpt>
      <trkpt lat="43.2194" lon="2.01171">
        <ele>239.99</ele>
        <time>2017-11-18T12:41:53Z</time>
      </trkpt>
      <trkpt lat="43.2194" lon="2.01161">
        <ele>240.47</ele>
        <time>2017-11-18T12:42:05Z</time>
      </trkpt>
      <trkpt lat="43.21939" lon="2.01153">
        <ele>241.91</ele>
        <time>2017-11-18T12:42:13Z</time>
      </trkpt>
      <trkpt lat="43.21939" lon="2.01141">
        <ele>242.39</ele>
        <time>2017-11-18T12:42:24Z</time>
      </trkpt>
      <trkpt lat="43.21937" lon="2.01141">
        <ele>243.35</ele>
        <time>2017-11-18T12:42:51Z</time>
      </trkpt>
      <trkpt lat="43.21938" lon="2.01141">
        <ele>243.35</ele>
        <time>2017-11-18T12:42:59Z</time>
      </trkpt>
      <trkpt lat="43.2194" lon="2.01131">
        <ele>243.83</ele>
        <time>2017-11-18T12:43:07Z</time>
      </trkpt>
      <trkpt lat="43.21945" lon="2.0112">
        <ele>245.75</ele>
        <time>2017-11-18T12:43:16Z</time>
      </trkpt>
      <trkpt lat="43.21957" lon="2.01102">
        <ele>248.64</ele>
        <time>2017-11-18T12:43:33Z</time>
      </trkpt>
      <trkpt lat="43.21963" lon="2.01092">
        <ele>250.08</ele>
        <time>2017-11-18T12:43:42Z</time>
      </trkpt>
      <trkpt lat="43.21972" lon="2.01076">
        <ele>252</ele>
        <time>2017-11-18T12:43:58Z</time>
      </trkpt>
      <trkpt lat="43.2198" lon="2.01062">
        <ele>253.44</ele>
        <time>2017-11-18T12:44:11Z</time>
      </trkpt>
      <trkpt lat="43.21986" lon="2.0105">
        <ele>254.89</ele>
        <time>2017-11-18T12:44:23Z</time>
      </trkpt>
      <trkpt lat="43.21995" lon="2.01038">
        <ele>256.81</ele>
        <time>2017-11-18T12:44:35Z</time>
      </trkpt>
      <trkpt lat="43.22006" lon="2.01026">
        <ele>257.29</ele>
        <time>2017-11-18T12:44:49Z</time>
      </trkpt>
      <trkpt lat="43.22016" lon="2.01014">
        <ele>258.25</ele>
        <time>2017-11-18T12:45:03Z</time>
      </trkpt>
      <trkpt lat="43.22025" lon="2.01002">
        <ele>259.69</ele>
        <time>2017-11-18T12:45:16Z</time>
      </trkpt>
      <trkpt lat="43.2203" lon="2.00984">
        <ele>259.21</ele>
        <time>2017-11-18T12:45:29Z</time>
      </trkpt>
      <trkpt lat="43.22031" lon="2.0098">
        <ele>260.17</ele>
        <time>2017-11-18T12:45:32Z</time>
      </trkpt>
      <trkpt lat="43.22035" lon="2.00968">
        <ele>262.1</ele>
        <time>2017-11-18T12:45:44Z</time>
      </trkpt>
      <trkpt lat="43.22037" lon="2.00965">
        <ele>262.58</ele>
        <time>2017-11-18T12:45:47Z</time>
      </trkpt>
      <trkpt lat="43.2204" lon="2.00965">
        <ele>263.06</ele>
        <time>2017-11-18T12:45:50Z</time>
      </trkpt>
      <trkpt lat="43.22044" lon="2.0097">
        <ele>264.02</ele>
        <time>2017-11-18T12:45:55Z</time>
      </trkpt>
      <trkpt lat="43.22053" lon="2.00983">
        <ele>264.98</ele>
        <time>2017-11-18T12:46:06Z</time>
      </trkpt>
      <trkpt lat="43.22063" lon="2.00997">
        <ele>264.02</ele>
        <time>2017-11-18T12:46:18Z</time>
      </trkpt>
      <trkpt lat="43.22073" lon="2.01008">
        <ele>264.5</ele>
        <time>2017-11-18T12:46:28Z</time>
      </trkpt>
      <trkpt lat="43.2208" lon="2.01018">
        <ele>264.5</ele>
        <time>2017-11-18T12:46:38Z</time>
      </trkpt>
      <trkpt lat="43.22079" lon="2.01019">
        <ele>265.94</ele>
        <time>2017-11-18T12:46:41Z</time>
      </trkpt>
      <trkpt lat="43.22079" lon="2.01022">
        <ele>265.94</ele>
        <time>2017-11-18T12:46:44Z</time>
      </trkpt>
      <trkpt lat="43.22087" lon="2.0103">
        <ele>265.94</ele>
        <time>2017-11-18T12:46:52Z</time>
      </trkpt>
      <trkpt lat="43.22099" lon="2.01047">
        <ele>264.98</ele>
        <time>2017-11-18T12:47:07Z</time>
      </trkpt>
      <trkpt lat="43.22111" lon="2.01062">
        <ele>266.9</ele>
        <time>2017-11-18T12:47:22Z</time>
      </trkpt>
      <trkpt lat="43.22125" lon="2.01082">
        <ele>267.86</ele>
        <time>2017-11-18T12:47:40Z</time>
      </trkpt>
      <trkpt lat="43.22137" lon="2.01098">
        <ele>267.86</ele>
        <time>2017-11-18T12:47:56Z</time>
      </trkpt>
      <trkpt lat="43.2214" lon="2.01102">
        <ele>267.86</ele>
        <time>2017-11-18T12:48:00Z</time>
      </trkpt>
      <trkpt lat="43.22154" lon="2.01122">
        <ele>267.38</ele>
        <time>2017-11-18T12:48:17Z</time>
      </trkpt>
      <trkpt lat="43.22168" lon="2.0114">
        <ele>267.86</ele>
        <time>2017-11-18T12:48:33Z</time>
      </trkpt>
      <trkpt lat="43.22184" lon="2.01159">
        <ele>267.86</ele>
        <time>2017-11-18T12:48:50Z</time>
      </trkpt>
      <trkpt lat="43.22199" lon="2.01179">
        <ele>268.35</ele>
        <time>2017-11-18T12:49:07Z</time>
      </trkpt>
      <trkpt lat="43.22213" lon="2.01194">
        <ele>268.35</ele>
        <time>2017-11-18T12:49:21Z</time>
      </trkpt>
      <trkpt lat="43.22232" lon="2.01201">
        <ele>268.83</ele>
        <time>2017-11-18T12:49:38Z</time>
      </trkpt>
      <trkpt lat="43.22243" lon="2.01206">
        <ele>268.83</ele>
        <time>2017-11-18T12:49:48Z</time>
      </trkpt>
      <trkpt lat="43.22259" lon="2.01216">
        <ele>269.79</ele>
        <time>2017-11-18T12:50:03Z</time>
      </trkpt>
      <trkpt lat="43.22267" lon="2.01219">
        <ele>270.27</ele>
        <time>2017-11-18T12:50:11Z</time>
      </trkpt>
      <trkpt lat="43.22273" lon="2.01223">
        <ele>270.27</ele>
        <time>2017-11-18T12:50:16Z</time>
      </trkpt>
      <trkpt lat="43.22279" lon="2.01226">
        <ele>270.75</ele>
        <time>2017-11-18T12:50:21Z</time>
      </trkpt>
      <trkpt lat="43.22294" lon="2.01234">
        <ele>270.27</ele>
        <time>2017-11-18T12:50:35Z</time>
      </trkpt>
      <trkpt lat="43.22311" lon="2.01238">
        <ele>270.75</ele>
        <time>2017-11-18T12:50:49Z</time>
      </trkpt>
      <trkpt lat="43.22325" lon="2.01243">
        <ele>271.23</ele>
        <time>2017-11-18T12:51:02Z</time>
      </trkpt>
      <trkpt lat="43.22339" lon="2.01248">
        <ele>271.71</ele>
        <time>2017-11-18T12:51:16Z</time>
      </trkpt>
      <trkpt lat="43.22353" lon="2.01253">
        <ele>271.71</ele>
        <time>2017-11-18T12:51:30Z</time>
      </trkpt>
      <trkpt lat="43.22362" lon="2.01255">
        <ele>271.71</ele>
        <time>2017-11-18T12:51:38Z</time>
      </trkpt>
      <trkpt lat="43.22379" lon="2.0126">
        <ele>271.71</ele>
        <time>2017-11-18T12:51:52Z</time>
      </trkpt>
      <trkpt lat="43.22395" lon="2.01265">
        <ele>272.19</ele>
        <time>2017-11-18T12:52:06Z</time>
      </trkpt>
      <trkpt lat="43.2241" lon="2.0127">
        <ele>271.71</ele>
        <time>2017-11-18T12:52:20Z</time>
      </trkpt>
      <trkpt lat="43.22419" lon="2.01273">
        <ele>271.71</ele>
        <time>2017-11-18T12:52:28Z</time>
      </trkpt>
      <trkpt lat="43.22434" lon="2.0128">
        <ele>272.19</ele>
        <time>2017-11-18T12:52:42Z</time>
      </trkpt>
      <trkpt lat="43.22442" lon="2.01282">
        <ele>271.71</ele>
        <time>2017-11-18T12:52:50Z</time>
      </trkpt>
      <trkpt lat="43.22445" lon="2.01282">
        <ele>271.71</ele>
        <time>2017-11-18T12:52:53Z</time>
      </trkpt>
      <trkpt lat="43.22461" lon="2.01287">
        <ele>272.19</ele>
        <time>2017-11-18T12:53:06Z</time>
      </trkpt>
      <trkpt lat="43.22469" lon="2.01288">
        <ele>272.19</ele>
        <time>2017-11-18T12:53:13Z</time>
      </trkpt>
      <trkpt lat="43.22484" lon="2.0129">
        <ele>272.67</ele>
        <time>2017-11-18T12:53:27Z</time>
      </trkpt>
      <trkpt lat="43.22486" lon="2.01291">
        <ele>271.71</ele>
        <time>2017-11-18T12:53:29Z</time>
      </trkpt>
      <trkpt lat="43.22502" lon="2.01296">
        <ele>271.71</ele>
        <time>2017-11-18T12:53:43Z</time>
      </trkpt>
      <trkpt lat="43.22506" lon="2.01296">
        <ele>272.19</ele>
        <time>2017-11-18T12:53:47Z</time>
      </trkpt>
      <trkpt lat="43.2252" lon="2.013">
        <ele>271.71</ele>
        <time>2017-11-18T12:53:59Z</time>
      </trkpt>
      <trkpt lat="43.22536" lon="2.01303">
        <ele>272.19</ele>
        <time>2017-11-18T12:54:14Z</time>
      </trkpt>
      <trkpt lat="43.22541" lon="2.01305">
        <ele>272.19</ele>
        <time>2017-11-18T12:54:18Z</time>
      </trkpt>
      <trkpt lat="43.22551" lon="2.01307">
        <ele>272.67</ele>
        <time>2017-11-18T12:54:27Z</time>
      </trkpt>
      <trkpt lat="43.22555" lon="2.01308">
        <ele>272.19</ele>
        <time>2017-11-18T12:54:31Z</time>
      </trkpt>
      <trkpt lat="43.2256" lon="2.01309">
        <ele>272.19</ele>
        <time>2017-11-18T12:54:35Z</time>
      </trkpt>
      <trkpt lat="43.22576" lon="2.01311">
        <ele>272.19</ele>
        <time>2017-11-18T12:54:50Z</time>
      </trkpt>
      <trkpt lat="43.22589" lon="2.01316">
        <ele>272.19</ele>
        <time>2017-11-18T12:55:02Z</time>
      </trkpt>
      <trkpt lat="43.22601" lon="2.01318">
        <ele>273.15</ele>
        <time>2017-11-18T12:55:13Z</time>
      </trkpt>
      <trkpt lat="43.22613" lon="2.01321">
        <ele>272.19</ele>
        <time>2017-11-18T12:55:24Z</time>
      </trkpt>
      <trkpt lat="43.22627" lon="2.01337">
        <ele>273.63</ele>
        <time>2017-11-18T13:03:03Z</time>
      </trkpt>
      <trkpt lat="43.22627" lon="2.0135">
        <ele>273.63</ele>
        <time>2017-11-18T13:03:16Z</time>
      </trkpt>
      <trkpt lat="43.22633" lon="2.01357">
        <ele>273.63</ele>
        <time>2017-11-18T13:03:30Z</time>
      </trkpt>
      <trkpt lat="43.22637" lon="2.01369">
        <ele>274.59</ele>
        <time>2017-11-18T13:03:43Z</time>
      </trkpt>
      <trkpt lat="43.22642" lon="2.01385">
        <ele>275.07</ele>
        <time>2017-11-18T13:03:56Z</time>
      </trkpt>
      <trkpt lat="43.22647" lon="2.01399">
        <ele>275.07</ele>
        <time>2017-11-18T13:04:08Z</time>
      </trkpt>
      <trkpt lat="43.2265" lon="2.01413">
        <ele>276.04</ele>
        <time>2017-11-18T13:04:21Z</time>
      </trkpt>
      <trkpt lat="43.22655" lon="2.0143">
        <ele>275.56</ele>
        <time>2017-11-18T13:04:37Z</time>
      </trkpt>
      <trkpt lat="43.22659" lon="2.01445">
        <ele>274.11</ele>
        <time>2017-11-18T13:04:52Z</time>
      </trkpt>
      <trkpt lat="43.22657" lon="2.01454">
        <ele>273.15</ele>
        <time>2017-11-18T13:05:05Z</time>
      </trkpt>
      <trkpt lat="43.22656" lon="2.01458">
        <ele>272.19</ele>
        <time>2017-11-18T13:05:18Z</time>
      </trkpt>
      <trkpt lat="43.22654" lon="2.01465">
        <ele>271.71</ele>
        <time>2017-11-18T13:05:31Z</time>
      </trkpt>
      <trkpt lat="43.22651" lon="2.01475">
        <ele>268.83</ele>
        <time>2017-11-18T13:05:42Z</time>
      </trkpt>
      <trkpt lat="43.2265" lon="2.01488">
        <ele>265.46</ele>
        <time>2017-11-18T13:05:57Z</time>
      </trkpt>
      <trkpt lat="43.22649" lon="2.01501">
        <ele>262.58</ele>
        <time>2017-11-18T13:06:11Z</time>
      </trkpt>
      <trkpt lat="43.22646" lon="2.01513">
        <ele>260.65</ele>
        <time>2017-11-18T13:06:24Z</time>
      </trkpt>
      <trkpt lat="43.22644" lon="2.01518">
        <ele>259.21</ele>
        <time>2017-11-18T13:06:29Z</time>
      </trkpt>
      <trkpt lat="43.22639" lon="2.01536">
        <ele>257.29</ele>
        <time>2017-11-18T13:06:46Z</time>
      </trkpt>
      <trkpt lat="43.22637" lon="2.01547">
        <ele>255.37</ele>
        <time>2017-11-18T13:06:58Z</time>
      </trkpt>
      <trkpt lat="43.22635" lon="2.01559">
        <ele>253.93</ele>
        <time>2017-11-18T13:07:09Z</time>
      </trkpt>
      <trkpt lat="43.22632" lon="2.01574">
        <ele>251.52</ele>
        <time>2017-11-18T13:07:23Z</time>
      </trkpt>
      <trkpt lat="43.22629" lon="2.0159">
        <ele>249.6</ele>
        <time>2017-11-18T13:07:36Z</time>
      </trkpt>
      <trkpt lat="43.22627" lon="2.01607">
        <ele>247.68</ele>
        <time>2017-11-18T13:07:50Z</time>
      </trkpt>
      <trkpt lat="43.22624" lon="2.01622">
        <ele>245.75</ele>
        <time>2017-11-18T13:08:03Z</time>
      </trkpt>
      <trkpt lat="43.22623" lon="2.01628">
        <ele>245.27</ele>
        <time>2017-11-18T13:08:14Z</time>
      </trkpt>
      <trkpt lat="43.22617" lon="2.01647">
        <ele>243.35</ele>
        <time>2017-11-18T13:08:29Z</time>
      </trkpt>
      <trkpt lat="43.22614" lon="2.01667">
        <ele>240.95</ele>
        <time>2017-11-18T13:08:43Z</time>
      </trkpt>
      <trkpt lat="43.22608" lon="2.01684">
        <ele>238.06</ele>
        <time>2017-11-18T13:08:59Z</time>
      </trkpt>
      <trkpt lat="43.22609" lon="2.0169">
        <ele>236.62</ele>
        <time>2017-11-18T13:09:04Z</time>
      </trkpt>
      <trkpt lat="43.22617" lon="2.01703">
        <ele>234.7</ele>
        <time>2017-11-18T13:09:19Z</time>
      </trkpt>
      <trkpt lat="43.22621" lon="2.01706">
        <ele>234.22</ele>
        <time>2017-11-18T13:09:24Z</time>
      </trkpt>
      <trkpt lat="43.22633" lon="2.01715">
        <ele>231.81</ele>
        <time>2017-11-18T13:09:40Z</time>
      </trkpt>
      <trkpt lat="43.22639" lon="2.01717">
        <ele>230.85</ele>
        <time>2017-11-18T13:09:46Z</time>
      </trkpt>
      <trkpt lat="43.22643" lon="2.01718">
        <ele>230.85</ele>
        <time>2017-11-18T13:09:50Z</time>
      </trkpt>
      <trkpt lat="43.22648" lon="2.01719">
        <ele>230.85</ele>
        <time>2017-11-18T13:09:54Z</time>
      </trkpt>
      <trkpt lat="43.22666" lon="2.01725">
        <ele>229.89</ele>
        <time>2017-11-18T13:10:10Z</time>
      </trkpt>
      <trkpt lat="43.22681" lon="2.01732">
        <ele>228.45</ele>
        <time>2017-11-18T13:10:25Z</time>
      </trkpt>
      <trkpt lat="43.22692" lon="2.01745">
        <ele>225.57</ele>
        <time>2017-11-18T13:10:41Z</time>
      </trkpt>
      <trkpt lat="43.22697" lon="2.01754">
        <ele>224.12</ele>
        <time>2017-11-18T13:10:50Z</time>
      </trkpt>
      <trkpt lat="43.22701" lon="2.01772">
        <ele>222.2</ele>
        <time>2017-11-18T13:11:09Z</time>
      </trkpt>
      <trkpt lat="43.22702" lon="2.01774">
        <ele>221.72</ele>
        <time>2017-11-18T13:11:27Z</time>
      </trkpt>
      <trkpt lat="43.22707" lon="2.01784">
        <ele>220.76</ele>
        <time>2017-11-18T13:11:34Z</time>
      </trkpt>
      <trkpt lat="43.22713" lon="2.01801">
        <ele>218.36</ele>
        <time>2017-11-18T13:11:46Z</time>
      </trkpt>
      <trkpt lat="43.22721" lon="2.01824">
        <ele>215.95</ele>
        <time>2017-11-18T13:12:01Z</time>
      </trkpt>
      <trkpt lat="43.22724" lon="2.01834">
        <ele>214.99</ele>
        <time>2017-11-18T13:12:08Z</time>
      </trkpt>
      <trkpt lat="43.22728" lon="2.01839">
        <ele>214.99</ele>
        <time>2017-11-18T13:12:12Z</time>
      </trkpt>
      <trkpt lat="43.22729" lon="2.01842">
        <ele>214.51</ele>
        <time>2017-11-18T13:12:14Z</time>
      </trkpt>
      <trkpt lat="43.22739" lon="2.01858">
        <ele>213.07</ele>
        <time>2017-11-18T13:12:27Z</time>
      </trkpt>
      <trkpt lat="43.22752" lon="2.01876">
        <ele>212.11</ele>
        <time>2017-11-18T13:12:42Z</time>
      </trkpt>
      <trkpt lat="43.22765" lon="2.01891">
        <ele>210.19</ele>
        <time>2017-11-18T13:12:57Z</time>
      </trkpt>
      <trkpt lat="43.2277" lon="2.01899">
        <ele>209.22</ele>
        <time>2017-11-18T13:13:03Z</time>
      </trkpt>
      <trkpt lat="43.2278" lon="2.01912">
        <ele>207.78</ele>
        <time>2017-11-18T13:13:14Z</time>
      </trkpt>
      <trkpt lat="43.22784" lon="2.01916">
        <ele>207.3</ele>
        <time>2017-11-18T13:13:18Z</time>
      </trkpt>
      <trkpt lat="43.22792" lon="2.01929">
        <ele>206.34</ele>
        <time>2017-11-18T13:13:31Z</time>
      </trkpt>
      <trkpt lat="43.22793" lon="2.0193">
        <ele>205.86</ele>
        <time>2017-11-18T13:13:32Z</time>
      </trkpt>
      <trkpt lat="43.22793" lon="2.01933">
        <ele>206.82</ele>
        <time>2017-11-18T13:13:34Z</time>
      </trkpt>
      <trkpt lat="43.22799" lon="2.01942">
        <ele>205.86</ele>
        <time>2017-11-18T13:13:41Z</time>
      </trkpt>
      <trkpt lat="43.22808" lon="2.01956">
        <ele>204.9</ele>
        <time>2017-11-18T13:13:52Z</time>
      </trkpt>
      <trkpt lat="43.22811" lon="2.01962">
        <ele>204.42</ele>
        <time>2017-11-18T13:13:57Z</time>
      </trkpt>
      <trkpt lat="43.22825" lon="2.01983">
        <ele>202.98</ele>
        <time>2017-11-18T13:14:14Z</time>
      </trkpt>
      <trkpt lat="43.22834" lon="2.01999">
        <ele>201.05</ele>
        <time>2017-11-18T13:14:28Z</time>
      </trkpt>
      <trkpt lat="43.22843" lon="2.0201">
        <ele>200.09</ele>
        <time>2017-11-18T13:14:40Z</time>
      </trkpt>
      <trkpt lat="43.2285" lon="2.02021">
        <ele>199.13</ele>
        <time>2017-11-18T13:14:49Z</time>
      </trkpt>
      <trkpt lat="43.22851" lon="2.02034">
        <ele>199.13</ele>
        <time>2017-11-18T13:15:00Z</time>
      </trkpt>
      <trkpt lat="43.22849" lon="2.02037">
        <ele>199.13</ele>
        <time>2017-11-18T13:15:03Z</time>
      </trkpt>
      <trkpt lat="43.2284" lon="2.02048">
        <ele>199.61</ele>
        <time>2017-11-18T13:15:13Z</time>
      </trkpt>
      <trkpt lat="43.22838" lon="2.0205">
        <ele>199.61</ele>
        <time>2017-11-18T13:15:15Z</time>
      </trkpt>
      <trkpt lat="43.22828" lon="2.02065">
        <ele>199.61</ele>
        <time>2017-11-18T13:15:28Z</time>
      </trkpt>
      <trkpt lat="43.22824" lon="2.0207">
        <ele>200.09</ele>
        <time>2017-11-18T13:15:34Z</time>
      </trkpt>
      <trkpt lat="43.22817" lon="2.02081">
        <ele>200.09</ele>
        <time>2017-11-18T13:15:44Z</time>
      </trkpt>
      <trkpt lat="43.22806" lon="2.02095">
        <ele>200.57</ele>
        <time>2017-11-18T13:15:58Z</time>
      </trkpt>
      <trkpt lat="43.22795" lon="2.0211">
        <ele>200.57</ele>
        <time>2017-11-18T13:16:13Z</time>
      </trkpt>
      <trkpt lat="43.22781" lon="2.02129">
        <ele>201.53</ele>
        <time>2017-11-18T13:16:30Z</time>
      </trkpt>
      <trkpt lat="43.22769" lon="2.02144">
        <ele>201.53</ele>
        <time>2017-11-18T13:16:47Z</time>
      </trkpt>
      <trkpt lat="43.22754" lon="2.0216">
        <ele>202.01</ele>
        <time>2017-11-18T13:17:06Z</time>
      </trkpt>
      <trkpt lat="43.22738" lon="2.0218">
        <ele>201.53</ele>
        <time>2017-11-18T13:17:28Z</time>
      </trkpt>
      <trkpt lat="43.22712" lon="2.02204">
        <ele>200.57</ele>
        <time>2017-11-18T13:17:54Z</time>
      </trkpt>
      <trkpt lat="43.22693" lon="2.02232">
        <ele>199.13</ele>
        <time>2017-11-18T13:18:21Z</time>
      </trkpt>
      <trkpt lat="43.22668" lon="2.02265">
        <ele>197.69</ele>
        <time>2017-11-18T13:18:51Z</time>
      </trkpt>
      <trkpt lat="43.22651" lon="2.02289">
        <ele>195.77</ele>
        <time>2017-11-18T13:19:14Z</time>
      </trkpt>
      <trkpt lat="43.22633" lon="2.02316">
        <ele>194.8</ele>
        <time>2017-11-18T13:19:36Z</time>
      </trkpt>
      <trkpt lat="43.22621" lon="2.02348">
        <ele>193.36</ele>
        <time>2017-11-18T13:20:01Z</time>
      </trkpt>
      <trkpt lat="43.22609" lon="2.02375">
        <ele>193.36</ele>
        <time>2017-11-18T13:20:23Z</time>
      </trkpt>
      <trkpt lat="43.22594" lon="2.02407">
        <ele>191.44</ele>
        <time>2017-11-18T13:20:49Z</time>
      </trkpt>
      <trkpt lat="43.22584" lon="2.02423">
        <ele>190.48</ele>
        <time>2017-11-18T13:21:05Z</time>
      </trkpt>
      <trkpt lat="43.22584" lon="2.02423">
        <ele>190.48</ele>
        <time>2017-11-18T13:21:11Z</time>
      </trkpt>
      <trkpt lat="43.22583" lon="2.02426">
        <ele>190.96</ele>
        <time>2017-11-18T13:21:13Z</time>
      </trkpt>
      <trkpt lat="43.22576" lon="2.02438">
        <ele>190.48</ele>
        <time>2017-11-18T13:21:21Z</time>
      </trkpt>
      <trkpt lat="43.22567" lon="2.02457">
        <ele>190</ele>
        <time>2017-11-18T13:21:34Z</time>
      </trkpt>
      <trkpt lat="43.22558" lon="2.02482">
        <ele>189.52</ele>
        <time>2017-11-18T13:21:50Z</time>
      </trkpt>
      <trkpt lat="43.22548" lon="2.02504">
        <ele>188.56</ele>
        <time>2017-11-18T13:22:06Z</time>
      </trkpt>
      <trkpt lat="43.22546" lon="2.0251">
        <ele>188.56</ele>
        <time>2017-11-18T13:22:10Z</time>
      </trkpt>
      <trkpt lat="43.22542" lon="2.02518">
        <ele>188.56</ele>
        <time>2017-11-18T13:22:17Z</time>
      </trkpt>
      <trkpt lat="43.22538" lon="2.02525">
        <ele>188.56</ele>
        <time>2017-11-18T13:22:22Z</time>
      </trkpt>
      <trkpt lat="43.22528" lon="2.02546">
        <ele>188.08</ele>
        <time>2017-11-18T13:22:39Z</time>
      </trkpt>
      <trkpt lat="43.22526" lon="2.02548">
        <ele>187.59</ele>
        <time>2017-11-18T13:22:41Z</time>
      </trkpt>
      <trkpt lat="43.22522" lon="2.02559">
        <ele>187.59</ele>
        <time>2017-11-18T13:22:49Z</time>
      </trkpt>
      <trkpt lat="43.22517" lon="2.02565">
        <ele>187.59</ele>
        <time>2017-11-18T13:22:55Z</time>
      </trkpt>
      <trkpt lat="43.22516" lon="2.02569">
        <ele>187.11</ele>
        <time>2017-11-18T13:22:58Z</time>
      </trkpt>
      <trkpt lat="43.2251" lon="2.02576">
        <ele>187.11</ele>
        <time>2017-11-18T13:23:05Z</time>
      </trkpt>
      <trkpt lat="43.225" lon="2.02589">
        <ele>186.63</ele>
        <time>2017-11-18T13:23:16Z</time>
      </trkpt>
      <trkpt lat="43.22498" lon="2.02591">
        <ele>187.11</ele>
        <time>2017-11-18T13:23:19Z</time>
      </trkpt>
      <trkpt lat="43.22495" lon="2.02595">
        <ele>186.63</ele>
        <time>2017-11-18T13:23:23Z</time>
      </trkpt>
      <trkpt lat="43.2249" lon="2.02602">
        <ele>186.63</ele>
        <time>2017-11-18T13:23:30Z</time>
      </trkpt>
      <trkpt lat="43.22487" lon="2.02607">
        <ele>186.63</ele>
        <time>2017-11-18T13:23:34Z</time>
      </trkpt>
      <trkpt lat="43.22484" lon="2.02611">
        <ele>186.63</ele>
        <time>2017-11-18T13:23:38Z</time>
      </trkpt>
      <trkpt lat="43.22481" lon="2.02614">
        <ele>186.15</ele>
        <time>2017-11-18T13:23:41Z</time>
      </trkpt>
      <trkpt lat="43.22475" lon="2.02627">
        <ele>186.15</ele>
        <time>2017-11-18T13:23:51Z</time>
      </trkpt>
      <trkpt lat="43.22464" lon="2.02645">
        <ele>185.67</ele>
        <time>2017-11-18T13:24:08Z</time>
      </trkpt>
      <trkpt lat="43.22462" lon="2.02648">
        <ele>185.67</ele>
        <time>2017-11-18T13:24:11Z</time>
      </trkpt>
      <trkpt lat="43.22456" lon="2.02654">
        <ele>185.67</ele>
        <time>2017-11-18T13:24:17Z</time>
      </trkpt>
      <trkpt lat="43.22454" lon="2.0267">
        <ele>185.67</ele>
        <time>2017-11-18T13:24:31Z</time>
      </trkpt>
      <trkpt lat="43.22453" lon="2.0267">
        <ele>185.67</ele>
        <time>2017-11-18T13:24:32Z</time>
      </trkpt>
      <trkpt lat="43.22441" lon="2.02687">
        <ele>185.19</ele>
        <time>2017-11-18T13:24:46Z</time>
      </trkpt>
      <trkpt lat="43.22436" lon="2.02693">
        <ele>185.19</ele>
        <time>2017-11-18T13:24:52Z</time>
      </trkpt>
      <trkpt lat="43.22432" lon="2.027">
        <ele>185.19</ele>
        <time>2017-11-18T13:24:58Z</time>
      </trkpt>
      <trkpt lat="43.22419" lon="2.02718">
        <ele>185.19</ele>
        <time>2017-11-18T13:25:15Z</time>
      </trkpt>
      <trkpt lat="43.22407" lon="2.02732">
        <ele>185.19</ele>
        <time>2017-11-18T13:25:28Z</time>
      </trkpt>
      <trkpt lat="43.22396" lon="2.02744">
        <ele>184.71</ele>
        <time>2017-11-18T13:25:40Z</time>
      </trkpt>
      <trkpt lat="43.22389" lon="2.02753">
        <ele>184.71</ele>
        <time>2017-11-18T13:25:53Z</time>
      </trkpt>
      <trkpt lat="43.22389" lon="2.02753">
        <ele>184.71</ele>
        <time>2017-11-18T13:25:55Z</time>
      </trkpt>
      <trkpt lat="43.22388" lon="2.02754">
        <ele>184.71</ele>
        <time>2017-11-18T13:25:57Z</time>
      </trkpt>
      <trkpt lat="43.22378" lon="2.02765">
        <ele>184.71</ele>
        <time>2017-11-18T13:26:10Z</time>
      </trkpt>
      <trkpt lat="43.22369" lon="2.02776">
        <ele>184.23</ele>
        <time>2017-11-18T13:26:21Z</time>
      </trkpt>
      <trkpt lat="43.22356" lon="2.02791">
        <ele>184.23</ele>
        <time>2017-11-18T13:26:37Z</time>
      </trkpt>
      <trkpt lat="43.22343" lon="2.02806">
        <ele>184.71</ele>
        <time>2017-11-18T13:26:52Z</time>
      </trkpt>
      <trkpt lat="43.2233" lon="2.02821">
        <ele>184.23</ele>
        <time>2017-11-18T13:27:09Z</time>
      </trkpt>
      <trkpt lat="43.2232" lon="2.02838">
        <ele>184.71</ele>
        <time>2017-11-18T13:27:26Z</time>
      </trkpt>
      <trkpt lat="43.22307" lon="2.02855">
        <ele>185.19</ele>
        <time>2017-11-18T13:27:42Z</time>
      </trkpt>
      <trkpt lat="43.22297" lon="2.02869">
        <ele>185.19</ele>
        <time>2017-11-18T13:27:56Z</time>
      </trkpt>
      <trkpt lat="43.22283" lon="2.02887">
        <ele>185.67</ele>
        <time>2017-11-18T13:28:15Z</time>
      </trkpt>
      <trkpt lat="43.22272" lon="2.02904">
        <ele>186.15</ele>
        <time>2017-11-18T13:28:32Z</time>
      </trkpt>
      <trkpt lat="43.22261" lon="2.02918">
        <ele>186.63</ele>
        <time>2017-11-18T13:28:47Z</time>
      </trkpt>
      <trkpt lat="43.22258" lon="2.02923">
        <ele>187.11</ele>
        <time>2017-11-18T13:28:52Z</time>
      </trkpt>
      <trkpt lat="43.22252" lon="2.02931">
        <ele>187.11</ele>
        <time>2017-11-18T13:29:00Z</time>
      </trkpt>
      <trkpt lat="43.22248" lon="2.02936">
        <ele>187.59</ele>
        <time>2017-11-18T13:29:05Z</time>
      </trkpt>
      <trkpt lat="43.22246" lon="2.0294">
        <ele>187.59</ele>
        <time>2017-11-18T13:29:09Z</time>
      </trkpt>
      <trkpt lat="43.22245" lon="2.02941">
        <ele>187.59</ele>
        <time>2017-11-18T13:29:11Z</time>
      </trkpt>
      <trkpt lat="43.22243" lon="2.02944">
        <ele>187.59</ele>
        <time>2017-11-18T13:29:14Z</time>
      </trkpt>
      <trkpt lat="43.2223" lon="2.0296">
        <ele>188.56</ele>
        <time>2017-11-18T13:29:32Z</time>
      </trkpt>
      <trkpt lat="43.22219" lon="2.02979">
        <ele>190</ele>
        <time>2017-11-18T13:29:48Z</time>
      </trkpt>
      <trkpt lat="43.22209" lon="2.02993">
        <ele>190.48</ele>
        <time>2017-11-18T13:30:04Z</time>
      </trkpt>
      <trkpt lat="43.22201" lon="2.03009">
        <ele>191.44</ele>
        <time>2017-11-18T13:30:18Z</time>
      </trkpt>
      <trkpt lat="43.22193" lon="2.03024">
        <ele>192.4</ele>
        <time>2017-11-18T13:30:32Z</time>
      </trkpt>
      <trkpt lat="43.22184" lon="2.03038">
        <ele>192.88</ele>
        <time>2017-11-18T13:30:46Z</time>
      </trkpt>
      <trkpt lat="43.22171" lon="2.03058">
        <ele>192.88</ele>
        <time>2017-11-18T13:31:03Z</time>
      </trkpt>
      <trkpt lat="43.22169" lon="2.03062">
        <ele>193.36</ele>
        <time>2017-11-18T13:31:06Z</time>
      </trkpt>
      <trkpt lat="43.22166" lon="2.03067">
        <ele>193.36</ele>
        <time>2017-11-18T13:31:10Z</time>
      </trkpt>
      <trkpt lat="43.22164" lon="2.03073">
        <ele>193.36</ele>
        <time>2017-11-18T13:31:14Z</time>
      </trkpt>
      <trkpt lat="43.22162" lon="2.03074">
        <ele>193.84</ele>
        <time>2017-11-18T13:31:16Z</time>
      </trkpt>
      <trkpt lat="43.22158" lon="2.03087">
        <ele>193.84</ele>
        <time>2017-11-18T13:31:26Z</time>
      </trkpt>
      <trkpt lat="43.22156" lon="2.03097">
        <ele>193.36</ele>
        <time>2017-11-18T13:31:34Z</time>
      </trkpt>
      <trkpt lat="43.22159" lon="2.03117">
        <ele>192.88</ele>
        <time>2017-11-18T13:31:48Z</time>
      </trkpt>
      <trkpt lat="43.22165" lon="2.03133">
        <ele>191.92</ele>
        <time>2017-11-18T13:32:00Z</time>
      </trkpt>
      <trkpt lat="43.22169" lon="2.03146">
        <ele>191.92</ele>
        <time>2017-11-18T13:32:10Z</time>
      </trkpt>
      <trkpt lat="43.22176" lon="2.03166">
        <ele>191.44</ele>
        <time>2017-11-18T13:32:23Z</time>
      </trkpt>
      <trkpt lat="43.22183" lon="2.03187">
        <ele>190.96</ele>
        <time>2017-11-18T13:32:39Z</time>
      </trkpt>
      <trkpt lat="43.22189" lon="2.0321">
        <ele>190.48</ele>
        <time>2017-11-18T13:32:55Z</time>
      </trkpt>
      <trkpt lat="43.22196" lon="2.03236">
        <ele>190</ele>
        <time>2017-11-18T13:33:13Z</time>
      </trkpt>
      <trkpt lat="43.22203" lon="2.03257">
        <ele>189.04</ele>
        <time>2017-11-18T13:33:29Z</time>
      </trkpt>
      <trkpt lat="43.22212" lon="2.03279">
        <ele>188.56</ele>
        <time>2017-11-18T13:33:47Z</time>
      </trkpt>
      <trkpt lat="43.22216" lon="2.03288">
        <ele>188.08</ele>
        <time>2017-11-18T13:33:55Z</time>
      </trkpt>
      <trkpt lat="43.22224" lon="2.03307">
        <ele>188.08</ele>
        <time>2017-11-18T13:34:10Z</time>
      </trkpt>
      <trkpt lat="43.2223" lon="2.03321">
        <ele>187.59</ele>
        <time>2017-11-18T13:34:23Z</time>
      </trkpt>
      <trkpt lat="43.22234" lon="2.0333">
        <ele>187.59</ele>
        <time>2017-11-18T13:34:34Z</time>
      </trkpt>
      <trkpt lat="43.22238" lon="2.0334">
        <ele>187.59</ele>
        <time>2017-11-18T13:34:49Z</time>
      </trkpt>
      <trkpt lat="43.22239" lon="2.03346">
        <ele>187.11</ele>
        <time>2017-11-18T13:35:01Z</time>
      </trkpt>
      <trkpt lat="43.2224" lon="2.03344">
        <ele>187.11</ele>
        <time>2017-11-18T13:35:18Z</time>
      </trkpt>
      <trkpt lat="43.22241" lon="2.03346">
        <ele>187.11</ele>
        <time>2017-11-18T13:35:41Z</time>
      </trkpt>
      <trkpt lat="43.22245" lon="2.03361">
        <ele>186.63</ele>
        <time>2017-11-18T13:35:54Z</time>
      </trkpt>
      <trkpt lat="43.22244" lon="2.03375">
        <ele>186.63</ele>
        <time>2017-11-18T13:36:08Z</time>
      </trkpt>
      <trkpt lat="43.2224" lon="2.03393">
        <ele>185.67</ele>
        <time>2017-11-18T13:36:24Z</time>
      </trkpt>
      <trkpt lat="43.22239" lon="2.03399">
        <ele>185.67</ele>
        <time>2017-11-18T13:36:29Z</time>
      </trkpt>
      <trkpt lat="43.22239" lon="2.03403">
        <ele>185.19</ele>
        <time>2017-11-18T13:36:32Z</time>
      </trkpt>
      <trkpt lat="43.22237" lon="2.0341">
        <ele>185.19</ele>
        <time>2017-11-18T13:36:37Z</time>
      </trkpt>
      <trkpt lat="43.22236" lon="2.03421">
        <ele>184.71</ele>
        <time>2017-11-18T13:36:46Z</time>
      </trkpt>
      <trkpt lat="43.22231" lon="2.0344">
        <ele>183.75</ele>
        <time>2017-11-18T13:37:03Z</time>
      </trkpt>
      <trkpt lat="43.2223" lon="2.03448">
        <ele>183.27</ele>
        <time>2017-11-18T13:37:09Z</time>
      </trkpt>
      <trkpt lat="43.22227" lon="2.03465">
        <ele>182.79</ele>
        <time>2017-11-18T13:37:25Z</time>
      </trkpt>
      <trkpt lat="43.22225" lon="2.03478">
        <ele>181.83</ele>
        <time>2017-11-18T13:37:37Z</time>
      </trkpt>
      <trkpt lat="43.22221" lon="2.03495">
        <ele>180.87</ele>
        <time>2017-11-18T13:37:51Z</time>
      </trkpt>
      <trkpt lat="43.22219" lon="2.0351">
        <ele>179.9</ele>
        <time>2017-11-18T13:38:04Z</time>
      </trkpt>
      <trkpt lat="43.22216" lon="2.03524">
        <ele>178.94</ele>
        <time>2017-11-18T13:38:17Z</time>
      </trkpt>
      <trkpt lat="43.22215" lon="2.03531">
        <ele>178.46</ele>
        <time>2017-11-18T13:38:23Z</time>
      </trkpt>
      <trkpt lat="43.22211" lon="2.03553">
        <ele>176.54</ele>
        <time>2017-11-18T13:38:39Z</time>
      </trkpt>
      <trkpt lat="43.22207" lon="2.03574">
        <ele>175.58</ele>
        <time>2017-11-18T13:38:54Z</time>
      </trkpt>
      <trkpt lat="43.22206" lon="2.03577">
        <ele>175.58</ele>
        <time>2017-11-18T13:38:57Z</time>
      </trkpt>
      <trkpt lat="43.22202" lon="2.03583">
        <ele>175.58</ele>
        <time>2017-11-18T13:39:04Z</time>
      </trkpt>
      <trkpt lat="43.22195" lon="2.03591">
        <ele>175.58</ele>
        <time>2017-11-18T13:39:14Z</time>
      </trkpt>
      <trkpt lat="43.22192" lon="2.03595">
        <ele>175.58</ele>
        <time>2017-11-18T13:39:19Z</time>
      </trkpt>
      <trkpt lat="43.2219" lon="2.03597">
        <ele>175.58</ele>
        <time>2017-11-18T13:39:22Z</time>
      </trkpt>
      <trkpt lat="43.22183" lon="2.03602">
        <ele>175.1</ele>
        <time>2017-11-18T13:39:31Z</time>
      </trkpt>
      <trkpt lat="43.22173" lon="2.0361">
        <ele>175.58</ele>
        <time>2017-11-18T13:39:43Z</time>
      </trkpt>
      <trkpt lat="43.22163" lon="2.03619">
        <ele>176.54</ele>
        <time>2017-11-18T13:39:56Z</time>
      </trkpt>
      <trkpt lat="43.22152" lon="2.03626">
        <ele>177.5</ele>
        <time>2017-11-18T13:40:11Z</time>
      </trkpt>
      <trkpt lat="43.22143" lon="2.03633">
        <ele>177.98</ele>
        <time>2017-11-18T13:40:24Z</time>
      </trkpt>
      <trkpt lat="43.22134" lon="2.03638">
        <ele>178.94</ele>
        <time>2017-11-18T13:40:37Z</time>
      </trkpt>
      <trkpt lat="43.22125" lon="2.0364">
        <ele>180.38</ele>
        <time>2017-11-18T13:40:50Z</time>
      </trkpt>
      <trkpt lat="43.22114" lon="2.03649">
        <ele>181.35</ele>
        <time>2017-11-18T13:41:04Z</time>
      </trkpt>
      <trkpt lat="43.22108" lon="2.03659">
        <ele>183.27</ele>
        <time>2017-11-18T13:41:17Z</time>
      </trkpt>
      <trkpt lat="43.22108" lon="2.03682">
        <ele>184.71</ele>
        <time>2017-11-18T13:41:36Z</time>
      </trkpt>
      <trkpt lat="43.22109" lon="2.03706">
        <ele>186.63</ele>
        <time>2017-11-18T13:41:52Z</time>
      </trkpt>
      <trkpt lat="43.22118" lon="2.03718">
        <ele>189.04</ele>
        <time>2017-11-18T13:42:08Z</time>
      </trkpt>
      <trkpt lat="43.22128" lon="2.03729">
        <ele>191.92</ele>
        <time>2017-11-18T13:42:25Z</time>
      </trkpt>
      <trkpt lat="43.22135" lon="2.03734">
        <ele>194.32</ele>
        <time>2017-11-18T13:42:38Z</time>
      </trkpt>
      <trkpt lat="43.22145" lon="2.03736">
        <ele>196.25</ele>
        <time>2017-11-18T13:42:54Z</time>
      </trkpt>
      <trkpt lat="43.22151" lon="2.03738">
        <ele>197.21</ele>
        <time>2017-11-18T13:43:14Z</time>
      </trkpt>
      <trkpt lat="43.22156" lon="2.03745">
        <ele>199.61</ele>
        <time>2017-11-18T13:43:31Z</time>
      </trkpt>
      <trkpt lat="43.22153" lon="2.03752">
        <ele>200.57</ele>
        <time>2017-11-18T13:43:45Z</time>
      </trkpt>
      <trkpt lat="43.22153" lon="2.03755">
        <ele>200.57</ele>
        <time>2017-11-18T13:43:49Z</time>
      </trkpt>
      <trkpt lat="43.22154" lon="2.03763">
        <ele>201.53</ele>
        <time>2017-11-18T13:44:01Z</time>
      </trkpt>
      <trkpt lat="43.22159" lon="2.03772">
        <ele>201.53</ele>
        <time>2017-11-18T13:44:15Z</time>
      </trkpt>
      <trkpt lat="43.22168" lon="2.03776">
        <ele>201.53</ele>
        <time>2017-11-18T13:44:25Z</time>
      </trkpt>
      <trkpt lat="43.22181" lon="2.03783">
        <ele>202.49</ele>
        <time>2017-11-18T13:44:40Z</time>
      </trkpt>
      <trkpt lat="43.22188" lon="2.03791">
        <ele>202.98</ele>
        <time>2017-11-18T13:44:51Z</time>
      </trkpt>
      <trkpt lat="43.2219" lon="2.03799">
        <ele>202.98</ele>
        <time>2017-11-18T13:45:05Z</time>
      </trkpt>
      <trkpt lat="43.2219" lon="2.03802">
        <ele>203.46</ele>
        <time>2017-11-18T13:45:25Z</time>
      </trkpt>
      <trkpt lat="43.22192" lon="2.03804">
        <ele>203.46</ele>
        <time>2017-11-18T13:45:48Z</time>
      </trkpt>
      <trkpt lat="43.22191" lon="2.03807">
        <ele>203.46</ele>
        <time>2017-11-18T13:46:01Z</time>
      </trkpt>
      <trkpt lat="43.22192" lon="2.03815">
        <ele>202.98</ele>
        <time>2017-11-18T13:46:19Z</time>
      </trkpt>
      <trkpt lat="43.22192" lon="2.03818">
        <ele>202.98</ele>
        <time>2017-11-18T13:46:25Z</time>
      </trkpt>
      <trkpt lat="43.22195" lon="2.03834">
        <ele>202.49</ele>
        <time>2017-11-18T13:46:38Z</time>
      </trkpt>
      <trkpt lat="43.22197" lon="2.03841">
        <ele>202.49</ele>
        <time>2017-11-18T13:46:43Z</time>
      </trkpt>
      <trkpt lat="43.22199" lon="2.03865">
        <ele>202.01</ele>
        <time>2017-11-18T13:46:59Z</time>
      </trkpt>
      <trkpt lat="43.22203" lon="2.03884">
        <ele>202.01</ele>
        <time>2017-11-18T13:47:13Z</time>
      </trkpt>
      <trkpt lat="43.22204" lon="2.03903">
        <ele>202.01</ele>
        <time>2017-11-18T13:47:26Z</time>
      </trkpt>
      <trkpt lat="43.22205" lon="2.03912">
        <ele>202.01</ele>
        <time>2017-11-18T13:47:33Z</time>
      </trkpt>
      <trkpt lat="43.22207" lon="2.03932">
        <ele>202.98</ele>
        <time>2017-11-18T13:47:46Z</time>
      </trkpt>
      <trkpt lat="43.22206" lon="2.03941">
        <ele>202.49</ele>
        <time>2017-11-18T13:47:51Z</time>
      </trkpt>
      <trkpt lat="43.22207" lon="2.03952">
        <ele>202.98</ele>
        <time>2017-11-18T13:47:58Z</time>
      </trkpt>
      <trkpt lat="43.22205" lon="2.03978">
        <ele>203.46</ele>
        <time>2017-11-18T13:48:14Z</time>
      </trkpt>
      <trkpt lat="43.222" lon="2.03998">
        <ele>203.94</ele>
        <time>2017-11-18T13:48:29Z</time>
      </trkpt>
      <trkpt lat="43.22196" lon="2.04007">
        <ele>204.42</ele>
        <time>2017-11-18T13:48:36Z</time>
      </trkpt>
      <trkpt lat="43.22191" lon="2.0402">
        <ele>204.9</ele>
        <time>2017-11-18T13:48:45Z</time>
      </trkpt>
      <trkpt lat="43.22183" lon="2.04038">
        <ele>205.38</ele>
        <time>2017-11-18T13:49:00Z</time>
      </trkpt>
      <trkpt lat="43.22173" lon="2.04057">
        <ele>206.34</ele>
        <time>2017-11-18T13:49:16Z</time>
      </trkpt>
      <trkpt lat="43.22163" lon="2.04076">
        <ele>206.82</ele>
        <time>2017-11-18T13:49:32Z</time>
      </trkpt>
      <trkpt lat="43.22161" lon="2.04079">
        <ele>206.82</ele>
        <time>2017-11-18T13:49:34Z</time>
      </trkpt>
      <trkpt lat="43.22158" lon="2.04087">
        <ele>206.82</ele>
        <time>2017-11-18T13:49:40Z</time>
      </trkpt>
      <trkpt lat="43.22157" lon="2.041">
        <ele>205.86</ele>
        <time>2017-11-18T13:49:55Z</time>
      </trkpt>
      <trkpt lat="43.22165" lon="2.04109">
        <ele>203.94</ele>
        <time>2017-11-18T13:50:09Z</time>
      </trkpt>
      <trkpt lat="43.22174" lon="2.04117">
        <ele>201.53</ele>
        <time>2017-11-18T13:50:23Z</time>
      </trkpt>
      <trkpt lat="43.22183" lon="2.04119">
        <ele>201.05</ele>
        <time>2017-11-18T13:50:35Z</time>
      </trkpt>
      <trkpt lat="43.22187" lon="2.0412">
        <ele>200.57</ele>
        <time>2017-11-18T13:50:47Z</time>
      </trkpt>
      <trkpt lat="43.22194" lon="2.04126">
        <ele>199.61</ele>
        <time>2017-11-18T13:50:59Z</time>
      </trkpt>
      <trkpt lat="43.22202" lon="2.04133">
        <ele>199.13</ele>
        <time>2017-11-18T13:51:12Z</time>
      </trkpt>
      <trkpt lat="43.22201" lon="2.04138">
        <ele>198.65</ele>
        <time>2017-11-18T13:51:27Z</time>
      </trkpt>
      <trkpt lat="43.22203" lon="2.04138">
        <ele>198.65</ele>
        <time>2017-11-18T13:51:33Z</time>
      </trkpt>
      <trkpt lat="43.22208" lon="2.04145">
        <ele>197.69</ele>
        <time>2017-11-18T13:51:46Z</time>
      </trkpt>
      <trkpt lat="43.22207" lon="2.04146">
        <ele>197.69</ele>
        <time>2017-11-18T13:51:57Z</time>
      </trkpt>
      <trkpt lat="43.22209" lon="2.04148">
        <ele>197.69</ele>
        <time>2017-11-18T13:52:10Z</time>
      </trkpt>
      <trkpt lat="43.22211" lon="2.04148">
        <ele>197.69</ele>
        <time>2017-11-18T13:52:30Z</time>
      </trkpt>
      <trkpt lat="43.22214" lon="2.0415">
        <ele>196.73</ele>
        <time>2017-11-18T13:56:40Z</time>
      </trkpt>
      <trkpt lat="43.22214" lon="2.04153">
        <ele>197.69</ele>
        <time>2017-11-18T13:56:55Z</time>
      </trkpt>
      <trkpt lat="43.22209" lon="2.04155">
        <ele>197.21</ele>
        <time>2017-11-18T13:57:04Z</time>
      </trkpt>
      <trkpt lat="43.22206" lon="2.04156">
        <ele>197.21</ele>
        <time>2017-11-18T13:57:15Z</time>
      </trkpt>
      <trkpt lat="43.22207" lon="2.04148">
        <ele>197.21</ele>
        <time>2017-11-18T13:57:32Z</time>
      </trkpt>
      <trkpt lat="43.22201" lon="2.04136">
        <ele>198.65</ele>
        <time>2017-11-18T13:57:45Z</time>
      </trkpt>
      <trkpt lat="43.22192" lon="2.04127">
        <ele>199.61</ele>
        <time>2017-11-18T13:57:58Z</time>
      </trkpt>
      <trkpt lat="43.22189" lon="2.04126">
        <ele>200.57</ele>
        <time>2017-11-18T13:58:11Z</time>
      </trkpt>
      <trkpt lat="43.22189" lon="2.04128">
        <ele>200.57</ele>
        <time>2017-11-18T13:58:30Z</time>
      </trkpt>
      <trkpt lat="43.22185" lon="2.04124">
        <ele>200.57</ele>
        <time>2017-11-18T13:58:50Z</time>
      </trkpt>
      <trkpt lat="43.22181" lon="2.04122">
        <ele>201.05</ele>
        <time>2017-11-18T13:58:57Z</time>
      </trkpt>
      <trkpt lat="43.2218" lon="2.04119">
        <ele>201.05</ele>
        <time>2017-11-18T13:58:59Z</time>
      </trkpt>
      <trkpt lat="43.22174" lon="2.04115">
        <ele>201.53</ele>
        <time>2017-11-18T13:59:05Z</time>
      </trkpt>
      <trkpt lat="43.22166" lon="2.0411">
        <ele>203.46</ele>
        <time>2017-11-18T13:59:13Z</time>
      </trkpt>
      <trkpt lat="43.22162" lon="2.04109">
        <ele>204.42</ele>
        <time>2017-11-18T13:59:21Z</time>
      </trkpt>
      <trkpt lat="43.22154" lon="2.04101">
        <ele>206.34</ele>
        <time>2017-11-18T13:59:33Z</time>
      </trkpt>
      <trkpt lat="43.22146" lon="2.04096">
        <ele>208.26</ele>
        <time>2017-11-18T13:59:45Z</time>
      </trkpt>
      <trkpt lat="43.22141" lon="2.04091">
        <ele>209.22</ele>
        <time>2017-11-18T13:59:55Z</time>
      </trkpt>
      <trkpt lat="43.22136" lon="2.04086">
        <ele>210.67</ele>
        <time>2017-11-18T14:00:05Z</time>
      </trkpt>
      <trkpt lat="43.2213" lon="2.04084">
        <ele>212.11</ele>
        <time>2017-11-18T14:00:18Z</time>
      </trkpt>
      <trkpt lat="43.22124" lon="2.04079">
        <ele>214.03</ele>
        <time>2017-11-18T14:00:29Z</time>
      </trkpt>
      <trkpt lat="43.22116" lon="2.04073">
        <ele>215.95</ele>
        <time>2017-11-18T14:00:44Z</time>
      </trkpt>
      <trkpt lat="43.22111" lon="2.04065">
        <ele>217.4</ele>
        <time>2017-11-18T14:00:56Z</time>
      </trkpt>
      <trkpt lat="43.22102" lon="2.04057">
        <ele>219.8</ele>
        <time>2017-11-18T14:01:10Z</time>
      </trkpt>
      <trkpt lat="43.22096" lon="2.0405">
        <ele>222.2</ele>
        <time>2017-11-18T14:01:23Z</time>
      </trkpt>
      <trkpt lat="43.22088" lon="2.04045">
        <ele>224.12</ele>
        <time>2017-11-18T14:01:35Z</time>
      </trkpt>
      <trkpt lat="43.22084" lon="2.04038">
        <ele>225.57</ele>
        <time>2017-11-18T14:01:46Z</time>
      </trkpt>
      <trkpt lat="43.22083" lon="2.04032">
        <ele>226.53</ele>
        <time>2017-11-18T14:01:58Z</time>
      </trkpt>
      <trkpt lat="43.22083" lon="2.04026">
        <ele>226.53</ele>
        <time>2017-11-18T14:02:14Z</time>
      </trkpt>
      <trkpt lat="43.22085" lon="2.04013">
        <ele>226.53</ele>
        <time>2017-11-18T14:02:24Z</time>
      </trkpt>
      <trkpt lat="43.22087" lon="2.04005">
        <ele>226.53</ele>
        <time>2017-11-18T14:02:36Z</time>
      </trkpt>
      <trkpt lat="43.22082" lon="2.03991">
        <ele>226.53</ele>
        <time>2017-11-18T14:02:50Z</time>
      </trkpt>
      <trkpt lat="43.22082" lon="2.0399">
        <ele>227.01</ele>
        <time>2017-11-18T14:02:51Z</time>
      </trkpt>
      <trkpt lat="43.22071" lon="2.03985">
        <ele>226.05</ele>
        <time>2017-11-18T14:03:04Z</time>
      </trkpt>
      <trkpt lat="43.22063" lon="2.03985">
        <ele>225.09</ele>
        <time>2017-11-18T14:03:17Z</time>
      </trkpt>
      <trkpt lat="43.22057" lon="2.03981">
        <ele>223.64</ele>
        <time>2017-11-18T14:03:32Z</time>
      </trkpt>
      <trkpt lat="43.22055" lon="2.03976">
        <ele>223.64</ele>
        <time>2017-11-18T14:03:48Z</time>
      </trkpt>
      <trkpt lat="43.22052" lon="2.0397">
        <ele>223.16</ele>
        <time>2017-11-18T14:04:02Z</time>
      </trkpt>
      <trkpt lat="43.22057" lon="2.03963">
        <ele>223.16</ele>
        <time>2017-11-18T14:04:17Z</time>
      </trkpt>
      <trkpt lat="43.22061" lon="2.03955">
        <ele>223.16</ele>
        <time>2017-11-18T14:04:33Z</time>
      </trkpt>
      <trkpt lat="43.22057" lon="2.03952">
        <ele>222.68</ele>
        <time>2017-11-18T14:04:40Z</time>
      </trkpt>
      <trkpt lat="43.2205" lon="2.03942">
        <ele>222.2</ele>
        <time>2017-11-18T14:04:54Z</time>
      </trkpt>
      <trkpt lat="43.2205" lon="2.03944">
        <ele>222.2</ele>
        <time>2017-11-18T14:05:09Z</time>
      </trkpt>
      <trkpt lat="43.22048" lon="2.03939">
        <ele>220.76</ele>
        <time>2017-11-18T14:05:20Z</time>
      </trkpt>
      <trkpt lat="43.22045" lon="2.03937">
        <ele>220.28</ele>
        <time>2017-11-18T14:05:32Z</time>
      </trkpt>
      <trkpt lat="43.2204" lon="2.03936">
        <ele>217.88</ele>
        <time>2017-11-18T14:05:46Z</time>
      </trkpt>
      <trkpt lat="43.22039" lon="2.03941">
        <ele>216.91</ele>
        <time>2017-11-18T14:05:55Z</time>
      </trkpt>
      <trkpt lat="43.22035" lon="2.03947">
        <ele>216.91</ele>
        <time>2017-11-18T14:06:04Z</time>
      </trkpt>
      <trkpt lat="43.22032" lon="2.03952">
        <ele>216.91</ele>
        <time>2017-11-18T14:06:09Z</time>
      </trkpt>
      <trkpt lat="43.22026" lon="2.03966">
        <ele>217.4</ele>
        <time>2017-11-18T14:06:23Z</time>
      </trkpt>
      <trkpt lat="43.22024" lon="2.03968">
        <ele>217.4</ele>
        <time>2017-11-18T14:06:25Z</time>
      </trkpt>
      <trkpt lat="43.22008" lon="2.03983">
        <ele>217.4</ele>
        <time>2017-11-18T14:06:41Z</time>
      </trkpt>
      <trkpt lat="43.22006" lon="2.03983">
        <ele>217.88</ele>
        <time>2017-11-18T14:06:49Z</time>
      </trkpt>
      <trkpt lat="43.22002" lon="2.03988">
        <ele>218.36</ele>
        <time>2017-11-18T14:06:54Z</time>
      </trkpt>
      <trkpt lat="43.21992" lon="2.03986">
        <ele>217.4</ele>
        <time>2017-11-18T14:07:07Z</time>
      </trkpt>
      <trkpt lat="43.21988" lon="2.03985">
        <ele>218.36</ele>
        <time>2017-11-18T14:07:19Z</time>
      </trkpt>
      <trkpt lat="43.21986" lon="2.03988">
        <ele>217.4</ele>
        <time>2017-11-18T14:07:23Z</time>
      </trkpt>
      <trkpt lat="43.21984" lon="2.03993">
        <ele>217.88</ele>
        <time>2017-11-18T14:07:28Z</time>
      </trkpt>
      <trkpt lat="43.21981" lon="2.04">
        <ele>216.91</ele>
        <time>2017-11-18T14:07:35Z</time>
      </trkpt>
      <trkpt lat="43.21976" lon="2.04005">
        <ele>216.91</ele>
        <time>2017-11-18T14:07:40Z</time>
      </trkpt>
      <trkpt lat="43.2197" lon="2.04026">
        <ele>216.91</ele>
        <time>2017-11-18T14:07:55Z</time>
      </trkpt>
      <trkpt lat="43.21967" lon="2.04037">
        <ele>216.43</ele>
        <time>2017-11-18T14:08:04Z</time>
      </trkpt>
      <trkpt lat="43.2196" lon="2.04054">
        <ele>216.43</ele>
        <time>2017-11-18T14:08:17Z</time>
      </trkpt>
      <trkpt lat="43.21951" lon="2.04063">
        <ele>216.43</ele>
        <time>2017-11-18T14:08:27Z</time>
      </trkpt>
      <trkpt lat="43.21943" lon="2.04074">
        <ele>216.43</ele>
        <time>2017-11-18T14:08:41Z</time>
      </trkpt>
      <trkpt lat="43.21935" lon="2.04086">
        <ele>215.95</ele>
        <time>2017-11-18T14:08:55Z</time>
      </trkpt>
      <trkpt lat="43.21929" lon="2.041">
        <ele>215.95</ele>
        <time>2017-11-18T14:09:08Z</time>
      </trkpt>
      <trkpt lat="43.21926" lon="2.04109">
        <ele>215.95</ele>
        <time>2017-11-18T14:09:15Z</time>
      </trkpt>
      <trkpt lat="43.21925" lon="2.04111">
        <ele>215.47</ele>
        <time>2017-11-18T14:09:17Z</time>
      </trkpt>
      <trkpt lat="43.21923" lon="2.04115">
        <ele>215.95</ele>
        <time>2017-11-18T14:09:20Z</time>
      </trkpt>
      <trkpt lat="43.21909" lon="2.04107">
        <ele>214.03</ele>
        <time>2017-11-18T14:09:34Z</time>
      </trkpt>
      <trkpt lat="43.21901" lon="2.04086">
        <ele>211.63</ele>
        <time>2017-11-18T14:09:51Z</time>
      </trkpt>
      <trkpt lat="43.21897" lon="2.04078">
        <ele>211.15</ele>
        <time>2017-11-18T14:09:58Z</time>
      </trkpt>
      <trkpt lat="43.21894" lon="2.04074">
        <ele>211.15</ele>
        <time>2017-11-18T14:10:02Z</time>
      </trkpt>
      <trkpt lat="43.21885" lon="2.0406">
        <ele>209.7</ele>
        <time>2017-11-18T14:10:16Z</time>
      </trkpt>
      <trkpt lat="43.21882" lon="2.04055">
        <ele>209.22</ele>
        <time>2017-11-18T14:10:22Z</time>
      </trkpt>
      <trkpt lat="43.21873" lon="2.04045">
        <ele>207.3</ele>
        <time>2017-11-18T14:10:35Z</time>
      </trkpt>
      <trkpt lat="43.21868" lon="2.04038">
        <ele>206.34</ele>
        <time>2017-11-18T14:10:50Z</time>
      </trkpt>
      <trkpt lat="43.21862" lon="2.04032">
        <ele>204.9</ele>
        <time>2017-11-18T14:11:00Z</time>
      </trkpt>
      <trkpt lat="43.21859" lon="2.04029">
        <ele>204.42</ele>
        <time>2017-11-18T14:11:04Z</time>
      </trkpt>
      <trkpt lat="43.2185" lon="2.04021">
        <ele>202.98</ele>
        <time>2017-11-18T14:11:17Z</time>
      </trkpt>
      <trkpt lat="43.21844" lon="2.04015">
        <ele>202.49</ele>
        <time>2017-11-18T14:11:25Z</time>
      </trkpt>
      <trkpt lat="43.2184" lon="2.04014">
        <ele>202.01</ele>
        <time>2017-11-18T14:11:29Z</time>
      </trkpt>
      <trkpt lat="43.21834" lon="2.04008">
        <ele>201.05</ele>
        <time>2017-11-18T14:11:37Z</time>
      </trkpt>
      <trkpt lat="43.21832" lon="2.04006">
        <ele>201.05</ele>
        <time>2017-11-18T14:11:39Z</time>
      </trkpt>
      <trkpt lat="43.2183" lon="2.04">
        <ele>200.57</ele>
        <time>2017-11-18T14:11:45Z</time>
      </trkpt>
      <trkpt lat="43.21821" lon="2.03988">
        <ele>199.13</ele>
        <time>2017-11-18T14:11:59Z</time>
      </trkpt>
      <trkpt lat="43.21819" lon="2.03986">
        <ele>199.13</ele>
        <time>2017-11-18T14:12:01Z</time>
      </trkpt>
      <trkpt lat="43.21817" lon="2.03985">
        <ele>199.13</ele>
        <time>2017-11-18T14:12:03Z</time>
      </trkpt>
      <trkpt lat="43.21814" lon="2.03983">
        <ele>198.65</ele>
        <time>2017-11-18T14:12:06Z</time>
      </trkpt>
      <trkpt lat="43.21808" lon="2.03974">
        <ele>197.69</ele>
        <time>2017-11-18T14:12:14Z</time>
      </trkpt>
      <trkpt lat="43.218" lon="2.0396">
        <ele>197.21</ele>
        <time>2017-11-18T14:12:27Z</time>
      </trkpt>
      <trkpt lat="43.21793" lon="2.03949">
        <ele>196.25</ele>
        <time>2017-11-18T14:12:41Z</time>
      </trkpt>
      <trkpt lat="43.21789" lon="2.03942">
        <ele>195.77</ele>
        <time>2017-11-18T14:12:47Z</time>
      </trkpt>
      <trkpt lat="43.21781" lon="2.03927">
        <ele>195.28</ele>
        <time>2017-11-18T14:12:59Z</time>
      </trkpt>
      <trkpt lat="43.21772" lon="2.03912">
        <ele>194.8</ele>
        <time>2017-11-18T14:13:12Z</time>
      </trkpt>
      <trkpt lat="43.2177" lon="2.03908">
        <ele>194.32</ele>
        <time>2017-11-18T14:13:15Z</time>
      </trkpt>
      <trkpt lat="43.21765" lon="2.039">
        <ele>194.8</ele>
        <time>2017-11-18T14:13:23Z</time>
      </trkpt>
      <trkpt lat="43.21758" lon="2.03888">
        <ele>193.84</ele>
        <time>2017-11-18T14:13:32Z</time>
      </trkpt>
      <trkpt lat="43.21756" lon="2.03884">
        <ele>193.84</ele>
        <time>2017-11-18T14:13:35Z</time>
      </trkpt>
      <trkpt lat="43.21752" lon="2.03876">
        <ele>192.88</ele>
        <time>2017-11-18T14:13:42Z</time>
      </trkpt>
      <trkpt lat="43.21747" lon="2.03869">
        <ele>192.88</ele>
        <time>2017-11-18T14:13:50Z</time>
      </trkpt>
      <trkpt lat="43.21742" lon="2.03861">
        <ele>192.88</ele>
        <time>2017-11-18T14:13:58Z</time>
      </trkpt>
      <trkpt lat="43.21741" lon="2.03855">
        <ele>192.4</ele>
        <time>2017-11-18T14:14:02Z</time>
      </trkpt>
      <trkpt lat="43.21738" lon="2.03842">
        <ele>192.4</ele>
        <time>2017-11-18T14:14:12Z</time>
      </trkpt>
      <trkpt lat="43.2174" lon="2.0382">
        <ele>191.44</ele>
        <time>2017-11-18T14:14:27Z</time>
      </trkpt>
      <trkpt lat="43.21743" lon="2.03811">
        <ele>191.44</ele>
        <time>2017-11-18T14:14:34Z</time>
      </trkpt>
      <trkpt lat="43.21749" lon="2.038">
        <ele>190.96</ele>
        <time>2017-11-18T14:14:45Z</time>
      </trkpt>
      <trkpt lat="43.21756" lon="2.03785">
        <ele>190.48</ele>
        <time>2017-11-18T14:14:58Z</time>
      </trkpt>
      <trkpt lat="43.21752" lon="2.03779">
        <ele>190</ele>
        <time>2017-11-18T14:15:07Z</time>
      </trkpt>
      <trkpt lat="43.21749" lon="2.03776">
        <ele>190</ele>
        <time>2017-11-18T14:15:10Z</time>
      </trkpt>
      <trkpt lat="43.2174" lon="2.03767">
        <ele>189.52</ele>
        <time>2017-11-18T14:15:21Z</time>
      </trkpt>
      <trkpt lat="43.21735" lon="2.03758">
        <ele>189.04</ele>
        <time>2017-11-18T14:15:33Z</time>
      </trkpt>
      <trkpt lat="43.21735" lon="2.03757">
        <ele>189.52</ele>
        <time>2017-11-18T14:15:49Z</time>
      </trkpt>
      <trkpt lat="43.21736" lon="2.03752">
        <ele>188.56</ele>
        <time>2017-11-18T14:15:54Z</time>
      </trkpt>
      <trkpt lat="43.2174" lon="2.03744">
        <ele>189.04</ele>
        <time>2017-11-18T14:16:01Z</time>
      </trkpt>
      <trkpt lat="43.21746" lon="2.0373">
        <ele>188.08</ele>
        <time>2017-11-18T14:16:13Z</time>
      </trkpt>
      <trkpt lat="43.21747" lon="2.03727">
        <ele>188.56</ele>
        <time>2017-11-18T14:16:15Z</time>
      </trkpt>
      <trkpt lat="43.2175" lon="2.03721">
        <ele>188.08</ele>
        <time>2017-11-18T14:16:20Z</time>
      </trkpt>
      <trkpt lat="43.21752" lon="2.03717">
        <ele>187.59</ele>
        <time>2017-11-18T14:16:24Z</time>
      </trkpt>
      <trkpt lat="43.2176" lon="2.03703">
        <ele>187.59</ele>
        <time>2017-11-18T14:16:37Z</time>
      </trkpt>
      <trkpt lat="43.21766" lon="2.03691">
        <ele>187.11</ele>
        <time>2017-11-18T14:16:48Z</time>
      </trkpt>
      <trkpt lat="43.21767" lon="2.03686">
        <ele>187.11</ele>
        <time>2017-11-18T14:16:51Z</time>
      </trkpt>
      <trkpt lat="43.21769" lon="2.03683">
        <ele>186.63</ele>
        <time>2017-11-18T14:16:54Z</time>
      </trkpt>
      <trkpt lat="43.2177" lon="2.0368">
        <ele>187.11</ele>
        <time>2017-11-18T14:16:56Z</time>
      </trkpt>
      <trkpt lat="43.21775" lon="2.03673">
        <ele>187.11</ele>
        <time>2017-11-18T14:17:04Z</time>
      </trkpt>
      <trkpt lat="43.21776" lon="2.03669">
        <ele>187.11</ele>
        <time>2017-11-18T14:17:07Z</time>
      </trkpt>
      <trkpt lat="43.21778" lon="2.03666">
        <ele>186.15</ele>
        <time>2017-11-18T14:17:11Z</time>
      </trkpt>
      <trkpt lat="43.21783" lon="2.03653">
        <ele>186.15</ele>
        <time>2017-11-18T14:17:23Z</time>
      </trkpt>
      <trkpt lat="43.21789" lon="2.03643">
        <ele>186.15</ele>
        <time>2017-11-18T14:17:32Z</time>
      </trkpt>
      <trkpt lat="43.2179" lon="2.03641">
        <ele>186.63</ele>
        <time>2017-11-18T14:17:34Z</time>
      </trkpt>
      <trkpt lat="43.21795" lon="2.03631">
        <ele>186.15</ele>
        <time>2017-11-18T14:17:43Z</time>
      </trkpt>
      <trkpt lat="43.21798" lon="2.03624">
        <ele>185.19</ele>
        <time>2017-11-18T14:17:49Z</time>
      </trkpt>
      <trkpt lat="43.21808" lon="2.03609">
        <ele>185.67</ele>
        <time>2017-11-18T14:18:03Z</time>
      </trkpt>
      <trkpt lat="43.21816" lon="2.03598">
        <ele>184.71</ele>
        <time>2017-11-18T14:18:14Z</time>
      </trkpt>
      <trkpt lat="43.2182" lon="2.03594">
        <ele>185.19</ele>
        <time>2017-11-18T14:18:18Z</time>
      </trkpt>
      <trkpt lat="43.2183" lon="2.03582">
        <ele>185.67</ele>
        <time>2017-11-18T14:18:33Z</time>
      </trkpt>
      <trkpt lat="43.21833" lon="2.03577">
        <ele>184.23</ele>
        <time>2017-11-18T14:18:39Z</time>
      </trkpt>
      <trkpt lat="43.2184" lon="2.03566">
        <ele>184.23</ele>
        <time>2017-11-18T14:18:53Z</time>
      </trkpt>
      <trkpt lat="43.21839" lon="2.03565">
        <ele>184.23</ele>
        <time>2017-11-18T14:18:58Z</time>
      </trkpt>
      <trkpt lat="43.21837" lon="2.03554">
        <ele>184.23</ele>
        <time>2017-11-18T14:19:09Z</time>
      </trkpt>
      <trkpt lat="43.21836" lon="2.0355">
        <ele>184.71</ele>
        <time>2017-11-18T14:19:14Z</time>
      </trkpt>
      <trkpt lat="43.21836" lon="2.03543">
        <ele>184.23</ele>
        <time>2017-11-18T14:19:19Z</time>
      </trkpt>
      <trkpt lat="43.21836" lon="2.03536">
        <ele>184.23</ele>
        <time>2017-11-18T14:19:25Z</time>
      </trkpt>
      <trkpt lat="43.21837" lon="2.03524">
        <ele>183.75</ele>
        <time>2017-11-18T14:20:18Z</time>
      </trkpt>
      <trkpt lat="43.21835" lon="2.03511">
        <ele>183.75</ele>
        <time>2017-11-18T14:20:32Z</time>
      </trkpt>
      <trkpt lat="43.21835" lon="2.03511">
        <ele>183.75</ele>
        <time>2017-11-18T14:20:34Z</time>
      </trkpt>
      <trkpt lat="43.21837" lon="2.03505">
        <ele>183.75</ele>
        <time>2017-11-18T14:20:39Z</time>
      </trkpt>
      <trkpt lat="43.21838" lon="2.03493">
        <ele>183.75</ele>
        <time>2017-11-18T14:20:50Z</time>
      </trkpt>
      <trkpt lat="43.2184" lon="2.03481">
        <ele>183.27</ele>
        <time>2017-11-18T14:20:59Z</time>
      </trkpt>
      <trkpt lat="43.21841" lon="2.03479">
        <ele>183.27</ele>
        <time>2017-11-18T14:21:01Z</time>
      </trkpt>
      <trkpt lat="43.21842" lon="2.03473">
        <ele>183.27</ele>
        <time>2017-11-18T14:21:06Z</time>
      </trkpt>
      <trkpt lat="43.21844" lon="2.03462">
        <ele>183.27</ele>
        <time>2017-11-18T14:21:14Z</time>
      </trkpt>
      <trkpt lat="43.21843" lon="2.03458">
        <ele>183.27</ele>
        <time>2017-11-18T14:21:26Z</time>
      </trkpt>
      <trkpt lat="43.21842" lon="2.03458">
        <ele>183.75</ele>
        <time>2017-11-18T14:21:44Z</time>
      </trkpt>
      <trkpt lat="43.21842" lon="2.03456">
        <ele>183.27</ele>
        <time>2017-11-18T14:22:01Z</time>
      </trkpt>
      <trkpt lat="43.21841" lon="2.03455">
        <ele>183.75</ele>
        <time>2017-11-18T14:22:28Z</time>
      </trkpt>
      <trkpt lat="43.2184" lon="2.03455">
        <ele>183.75</ele>
        <time>2017-11-18T14:22:58Z</time>
      </trkpt>
      <trkpt lat="43.21842" lon="2.03454">
        <ele>183.75</ele>
        <time>2017-11-18T14:23:09Z</time>
      </trkpt>
      <trkpt lat="43.21843" lon="2.03451">
        <ele>183.75</ele>
        <time>2017-11-18T14:23:29Z</time>
      </trkpt>
      <trkpt lat="43.21848" lon="2.0343">
        <ele>183.27</ele>
        <time>2017-11-18T14:23:44Z</time>
      </trkpt>
      <trkpt lat="43.21848" lon="2.03428">
        <ele>183.75</ele>
        <time>2017-11-18T14:23:45Z</time>
      </trkpt>
      <trkpt lat="43.21856" lon="2.03413">
        <ele>183.75</ele>
        <time>2017-11-18T14:23:58Z</time>
      </trkpt>
      <trkpt lat="43.21857" lon="2.0341">
        <ele>184.23</ele>
        <time>2017-11-18T14:24:00Z</time>
      </trkpt>
      <trkpt lat="43.21859" lon="2.03401">
        <ele>183.27</ele>
        <time>2017-11-18T14:24:08Z</time>
      </trkpt>
      <trkpt lat="43.21861" lon="2.03374">
        <ele>184.71</ele>
        <time>2017-11-18T14:24:26Z</time>
      </trkpt>
      <trkpt lat="43.21861" lon="2.03372">
        <ele>184.23</ele>
        <time>2017-11-18T14:24:28Z</time>
      </trkpt>
      <trkpt lat="43.21862" lon="2.03361">
        <ele>184.23</ele>
        <time>2017-11-18T14:24:35Z</time>
      </trkpt>
      <trkpt lat="43.21861" lon="2.03345">
        <ele>184.71</ele>
        <time>2017-11-18T14:24:45Z</time>
      </trkpt>
      <trkpt lat="43.21859" lon="2.03319">
        <ele>185.19</ele>
        <time>2017-11-18T14:25:01Z</time>
      </trkpt>
      <trkpt lat="43.21856" lon="2.03298">
        <ele>185.67</ele>
        <time>2017-11-18T14:25:16Z</time>
      </trkpt>
      <trkpt lat="43.21849" lon="2.03272">
        <ele>187.11</ele>
        <time>2017-11-18T14:25:34Z</time>
      </trkpt>
      <trkpt lat="43.21847" lon="2.03267">
        <ele>187.59</ele>
        <time>2017-11-18T14:25:37Z</time>
      </trkpt>
      <trkpt lat="43.21846" lon="2.03266">
        <ele>187.59</ele>
        <time>2017-11-18T14:25:39Z</time>
      </trkpt>
      <trkpt lat="43.21838" lon="2.03252">
        <ele>188.08</ele>
        <time>2017-11-18T14:25:51Z</time>
      </trkpt>
      <trkpt lat="43.21839" lon="2.03253">
        <ele>188.56</ele>
        <time>2017-11-18T14:26:01Z</time>
      </trkpt>
      <trkpt lat="43.21837" lon="2.03251">
        <ele>188.56</ele>
        <time>2017-11-18T14:26:19Z</time>
      </trkpt>
      <trkpt lat="43.21834" lon="2.03247">
        <ele>188.56</ele>
        <time>2017-11-18T14:26:23Z</time>
      </trkpt>
      <trkpt lat="43.21833" lon="2.03244">
        <ele>188.56</ele>
        <time>2017-11-18T14:26:26Z</time>
      </trkpt>
      <trkpt lat="43.21831" lon="2.03239">
        <ele>189.04</ele>
        <time>2017-11-18T14:26:39Z</time>
      </trkpt>
      <trkpt lat="43.21832" lon="2.03236">
        <ele>189.04</ele>
        <time>2017-11-18T14:26:57Z</time>
      </trkpt>
      <trkpt lat="43.21826" lon="2.0323">
        <ele>189.04</ele>
        <time>2017-11-18T14:27:03Z</time>
      </trkpt>
      <trkpt lat="43.21814" lon="2.0322">
        <ele>190</ele>
        <time>2017-11-18T14:27:15Z</time>
      </trkpt>
      <trkpt lat="43.21802" lon="2.0321">
        <ele>190.48</ele>
        <time>2017-11-18T14:27:28Z</time>
      </trkpt>
      <trkpt lat="43.21789" lon="2.03195">
        <ele>190.96</ele>
        <time>2017-11-18T14:27:41Z</time>
      </trkpt>
      <trkpt lat="43.21788" lon="2.03194">
        <ele>191.44</ele>
        <time>2017-11-18T14:27:42Z</time>
      </trkpt>
      <trkpt lat="43.21773" lon="2.03182">
        <ele>191.44</ele>
        <time>2017-11-18T14:27:57Z</time>
      </trkpt>
      <trkpt lat="43.21755" lon="2.03173">
        <ele>191.92</ele>
        <time>2017-11-18T14:28:15Z</time>
      </trkpt>
      <trkpt lat="43.21751" lon="2.03172">
        <ele>191.92</ele>
        <time>2017-11-18T14:28:19Z</time>
      </trkpt>
      <trkpt lat="43.21734" lon="2.03169">
        <ele>192.88</ele>
        <time>2017-11-18T14:28:35Z</time>
      </trkpt>
      <trkpt lat="43.21717" lon="2.03172">
        <ele>193.84</ele>
        <time>2017-11-18T14:28:50Z</time>
      </trkpt>
      <trkpt lat="43.21707" lon="2.03178">
        <ele>194.32</ele>
        <time>2017-11-18T14:29:00Z</time>
      </trkpt>
      <trkpt lat="43.21692" lon="2.03187">
        <ele>195.28</ele>
        <time>2017-11-18T14:29:15Z</time>
      </trkpt>
      <trkpt lat="43.21677" lon="2.03194">
        <ele>195.77</ele>
        <time>2017-11-18T14:29:29Z</time>
      </trkpt>
      <trkpt lat="43.21668" lon="2.03197">
        <ele>196.25</ele>
        <time>2017-11-18T14:29:38Z</time>
      </trkpt>
      <trkpt lat="43.2165" lon="2.03201">
        <ele>197.21</ele>
        <time>2017-11-18T14:29:55Z</time>
      </trkpt>
      <trkpt lat="43.21649" lon="2.03201">
        <ele>197.21</ele>
        <time>2017-11-18T14:29:56Z</time>
      </trkpt>
      <trkpt lat="43.21645" lon="2.03201">
        <ele>197.21</ele>
        <time>2017-11-18T14:30:00Z</time>
      </trkpt>
      <trkpt lat="43.21641" lon="2.03203">
        <ele>197.21</ele>
        <time>2017-11-18T14:30:04Z</time>
      </trkpt>
      <trkpt lat="43.21634" lon="2.03205">
        <ele>197.21</ele>
        <time>2017-11-18T14:30:10Z</time>
      </trkpt>
      <trkpt lat="43.2163" lon="2.03205">
        <ele>197.21</ele>
        <time>2017-11-18T14:30:14Z</time>
      </trkpt>
      <trkpt lat="43.21623" lon="2.03207">
        <ele>197.21</ele>
        <time>2017-11-18T14:30:20Z</time>
      </trkpt>
      <trkpt lat="43.21616" lon="2.03208">
        <ele>197.21</ele>
        <time>2017-11-18T14:30:27Z</time>
      </trkpt>
      <trkpt lat="43.21599" lon="2.0321">
        <ele>197.69</ele>
        <time>2017-11-18T14:30:42Z</time>
      </trkpt>
      <trkpt lat="43.21583" lon="2.03211">
        <ele>197.69</ele>
        <time>2017-11-18T14:30:57Z</time>
      </trkpt>
      <trkpt lat="43.21571" lon="2.03212">
        <ele>198.17</ele>
        <time>2017-11-18T14:31:09Z</time>
      </trkpt>
      <trkpt lat="43.21556" lon="2.03214">
        <ele>198.65</ele>
        <time>2017-11-18T14:31:23Z</time>
      </trkpt>
      <trkpt lat="43.21552" lon="2.03215">
        <ele>198.65</ele>
        <time>2017-11-18T14:31:27Z</time>
      </trkpt>
      <trkpt lat="43.21536" lon="2.03217">
        <ele>199.13</ele>
        <time>2017-11-18T14:31:42Z</time>
      </trkpt>
      <trkpt lat="43.21526" lon="2.03219">
        <ele>199.61</ele>
        <time>2017-11-18T14:31:52Z</time>
      </trkpt>
      <trkpt lat="43.21513" lon="2.03221">
        <ele>200.09</ele>
        <time>2017-11-18T14:32:04Z</time>
      </trkpt>
      <trkpt lat="43.21501" lon="2.0322">
        <ele>201.05</ele>
        <time>2017-11-18T14:32:16Z</time>
      </trkpt>
      <trkpt lat="43.21497" lon="2.03218">
        <ele>201.05</ele>
        <time>2017-11-18T14:32:20Z</time>
      </trkpt>
      <trkpt lat="43.21483" lon="2.03214">
        <ele>202.01</ele>
        <time>2017-11-18T14:32:35Z</time>
      </trkpt>
      <trkpt lat="43.21476" lon="2.03212">
        <ele>202.49</ele>
        <time>2017-11-18T14:32:42Z</time>
      </trkpt>
      <trkpt lat="43.21474" lon="2.03211">
        <ele>202.98</ele>
        <time>2017-11-18T14:32:44Z</time>
      </trkpt>
      <trkpt lat="43.21466" lon="2.03207">
        <ele>203.94</ele>
        <time>2017-11-18T14:32:53Z</time>
      </trkpt>
      <trkpt lat="43.21452" lon="2.03201">
        <ele>204.9</ele>
        <time>2017-11-18T14:33:08Z</time>
      </trkpt>
      <trkpt lat="43.21441" lon="2.03194">
        <ele>205.86</ele>
        <time>2017-11-18T14:33:22Z</time>
      </trkpt>
      <trkpt lat="43.21431" lon="2.0319">
        <ele>206.82</ele>
        <time>2017-11-18T14:33:33Z</time>
      </trkpt>
      <trkpt lat="43.21421" lon="2.03183">
        <ele>207.78</ele>
        <time>2017-11-18T14:33:47Z</time>
      </trkpt>
      <trkpt lat="43.21419" lon="2.03182">
        <ele>208.26</ele>
        <time>2017-11-18T14:33:49Z</time>
      </trkpt>
      <trkpt lat="43.21414" lon="2.03181">
        <ele>208.74</ele>
        <time>2017-11-18T14:33:55Z</time>
      </trkpt>
      <trkpt lat="43.21404" lon="2.03176">
        <ele>209.7</ele>
        <time>2017-11-18T14:34:07Z</time>
      </trkpt>
      <trkpt lat="43.21397" lon="2.03172">
        <ele>211.15</ele>
        <time>2017-11-18T14:34:19Z</time>
      </trkpt>
      <trkpt lat="43.21396" lon="2.03172">
        <ele>211.15</ele>
        <time>2017-11-18T14:34:20Z</time>
      </trkpt>
      <trkpt lat="43.21392" lon="2.03169">
        <ele>211.63</ele>
        <time>2017-11-18T14:34:25Z</time>
      </trkpt>
      <trkpt lat="43.21381" lon="2.03164">
        <ele>213.07</ele>
        <time>2017-11-18T14:34:39Z</time>
      </trkpt>
      <trkpt lat="43.21372" lon="2.03161">
        <ele>214.51</ele>
        <time>2017-11-18T14:34:51Z</time>
      </trkpt>
      <trkpt lat="43.21363" lon="2.03156">
        <ele>215.47</ele>
        <time>2017-11-18T14:35:02Z</time>
      </trkpt>
      <trkpt lat="43.21352" lon="2.03152">
        <ele>216.91</ele>
        <time>2017-11-18T14:35:16Z</time>
      </trkpt>
      <trkpt lat="43.2134" lon="2.03147">
        <ele>218.36</ele>
        <time>2017-11-18T14:35:31Z</time>
      </trkpt>
      <trkpt lat="43.2133" lon="2.03144">
        <ele>219.32</ele>
        <time>2017-11-18T14:35:43Z</time>
      </trkpt>
      <trkpt lat="43.21321" lon="2.03143">
        <ele>220.76</ele>
        <time>2017-11-18T14:35:54Z</time>
      </trkpt>
      <trkpt lat="43.21304" lon="2.03148">
        <ele>221.72</ele>
        <time>2017-11-18T14:36:11Z</time>
      </trkpt>
      <trkpt lat="43.21297" lon="2.03152">
        <ele>222.2</ele>
        <time>2017-11-18T14:36:19Z</time>
      </trkpt>
      <trkpt lat="43.21293" lon="2.03156">
        <ele>222.68</ele>
        <time>2017-11-18T14:36:23Z</time>
      </trkpt>
      <trkpt lat="43.21284" lon="2.0317">
        <ele>223.64</ele>
        <time>2017-11-18T14:36:36Z</time>
      </trkpt>
      <trkpt lat="43.21274" lon="2.03184">
        <ele>224.61</ele>
        <time>2017-11-18T14:36:50Z</time>
      </trkpt>
      <trkpt lat="43.21271" lon="2.03189">
        <ele>224.61</ele>
        <time>2017-11-18T14:36:55Z</time>
      </trkpt>
      <trkpt lat="43.21256" lon="2.03205">
        <ele>224.12</ele>
        <time>2017-11-18T14:37:11Z</time>
      </trkpt>
      <trkpt lat="43.21246" lon="2.03209">
        <ele>222.68</ele>
        <time>2017-11-18T14:37:23Z</time>
      </trkpt>
      <trkpt lat="43.21241" lon="2.03211">
        <ele>222.2</ele>
        <time>2017-11-18T14:37:29Z</time>
      </trkpt>
      <trkpt lat="43.21231" lon="2.03202">
        <ele>221.72</ele>
        <time>2017-11-18T14:37:42Z</time>
      </trkpt>
      <trkpt lat="43.21229" lon="2.03199">
        <ele>221.72</ele>
        <time>2017-11-18T14:37:45Z</time>
      </trkpt>
      <trkpt lat="43.21222" lon="2.03193">
        <ele>221.72</ele>
        <time>2017-11-18T14:37:52Z</time>
      </trkpt>
      <trkpt lat="43.21219" lon="2.03193">
        <ele>221.24</ele>
        <time>2017-11-18T14:37:56Z</time>
      </trkpt>
      <trkpt lat="43.21214" lon="2.03193">
        <ele>221.24</ele>
        <time>2017-11-18T14:38:01Z</time>
      </trkpt>
      <trkpt lat="43.21212" lon="2.03193">
        <ele>220.76</ele>
        <time>2017-11-18T14:38:03Z</time>
      </trkpt>
      <trkpt lat="43.21206" lon="2.03195">
        <ele>220.76</ele>
        <time>2017-11-18T14:38:09Z</time>
      </trkpt>
      <trkpt lat="43.21205" lon="2.03196">
        <ele>220.76</ele>
        <time>2017-11-18T14:38:11Z</time>
      </trkpt>
      <trkpt lat="43.21203" lon="2.03196">
        <ele>220.76</ele>
        <time>2017-11-18T14:38:13Z</time>
      </trkpt>
      <trkpt lat="43.21201" lon="2.03197">
        <ele>220.76</ele>
        <time>2017-11-18T14:38:15Z</time>
      </trkpt>
      <trkpt lat="43.21193" lon="2.03201">
        <ele>220.76</ele>
        <time>2017-11-18T14:38:27Z</time>
      </trkpt>
      <trkpt lat="43.21193" lon="2.03202">
        <ele>220.76</ele>
        <time>2017-11-18T14:38:38Z</time>
      </trkpt>
      <trkpt lat="43.21192" lon="2.03203">
        <ele>220.76</ele>
        <time>2017-11-18T14:38:56Z</time>
      </trkpt>
      <trkpt lat="43.21194" lon="2.03202">
        <ele>220.76</ele>
        <time>2017-11-18T14:39:13Z</time>
      </trkpt>
      <trkpt lat="43.21195" lon="2.03199">
        <ele>220.76</ele>
        <time>2017-11-18T14:39:32Z</time>
      </trkpt>
      <trkpt lat="43.21195" lon="2.03199">
        <ele>220.76</ele>
        <time>2017-11-18T14:39:43Z</time>
      </trkpt>
      <trkpt lat="43.21193" lon="2.032">
        <ele>220.76</ele>
        <time>2017-11-18T14:39:58Z</time>
      </trkpt>
      <trkpt lat="43.21193" lon="2.03201">
        <ele>220.76</ele>
        <time>2017-11-18T14:40:13Z</time>
      </trkpt>
      <trkpt lat="43.21194" lon="2.03199">
        <ele>220.76</ele>
        <time>2017-11-18T14:40:31Z</time>
      </trkpt>
      <trkpt lat="43.21193" lon="2.03198">
        <ele>220.28</ele>
        <time>2017-11-18T14:40:46Z</time>
      </trkpt>
      <trkpt lat="43.21192" lon="2.03199">
        <ele>220.76</ele>
        <time>2017-11-18T14:41:14Z</time>
      </trkpt>
      <trkpt lat="43.21189" lon="2.032">
        <ele>220.76</ele>
        <time>2017-11-18T14:41:18Z</time>
      </trkpt>
      <trkpt lat="43.21184" lon="2.03204">
        <ele>220.28</ele>
        <time>2017-11-18T14:41:23Z</time>
      </trkpt>
      <trkpt lat="43.21168" lon="2.03209">
        <ele>219.8</ele>
        <time>2017-11-18T14:41:38Z</time>
      </trkpt>
      <trkpt lat="43.21151" lon="2.03214">
        <ele>219.32</ele>
        <time>2017-11-18T14:41:52Z</time>
      </trkpt>
      <trkpt lat="43.21135" lon="2.03219">
        <ele>219.8</ele>
        <time>2017-11-18T14:42:07Z</time>
      </trkpt>
      <trkpt lat="43.2113" lon="2.0322">
        <ele>219.32</ele>
        <time>2017-11-18T14:42:11Z</time>
      </trkpt>
      <trkpt lat="43.21124" lon="2.03221">
        <ele>219.32</ele>
        <time>2017-11-18T14:42:17Z</time>
      </trkpt>
      <trkpt lat="43.21109" lon="2.03224">
        <ele>219.8</ele>
        <time>2017-11-18T14:42:31Z</time>
      </trkpt>
      <trkpt lat="43.2109" lon="2.03228">
        <ele>220.76</ele>
        <time>2017-11-18T14:42:48Z</time>
      </trkpt>
      <trkpt lat="43.21087" lon="2.0323">
        <ele>220.76</ele>
        <time>2017-11-18T14:42:52Z</time>
      </trkpt>
      <trkpt lat="43.21071" lon="2.03233">
        <ele>221.24</ele>
        <time>2017-11-18T14:43:07Z</time>
      </trkpt>
      <trkpt lat="43.21066" lon="2.03233">
        <ele>221.72</ele>
        <time>2017-11-18T14:43:11Z</time>
      </trkpt>
      <trkpt lat="43.21049" lon="2.03238">
        <ele>222.2</ele>
        <time>2017-11-18T14:43:27Z</time>
      </trkpt>
      <trkpt lat="43.21034" lon="2.03244">
        <ele>222.68</ele>
        <time>2017-11-18T14:43:41Z</time>
      </trkpt>
      <trkpt lat="43.21019" lon="2.03247">
        <ele>224.12</ele>
        <time>2017-11-18T14:43:56Z</time>
      </trkpt>
      <trkpt lat="43.21" lon="2.03248">
        <ele>224.61</ele>
        <time>2017-11-18T14:44:12Z</time>
      </trkpt>
      <trkpt lat="43.20983" lon="2.03249">
        <ele>225.57</ele>
        <time>2017-11-18T14:44:27Z</time>
      </trkpt>
      <trkpt lat="43.20967" lon="2.03257">
        <ele>226.05</ele>
        <time>2017-11-18T14:44:42Z</time>
      </trkpt>
      <trkpt lat="43.20954" lon="2.03265">
        <ele>226.53</ele>
        <time>2017-11-18T14:44:54Z</time>
      </trkpt>
      <trkpt lat="43.20948" lon="2.03269">
        <ele>227.01</ele>
        <time>2017-11-18T14:44:59Z</time>
      </trkpt>
      <trkpt lat="43.20942" lon="2.03271">
        <ele>227.01</ele>
        <time>2017-11-18T14:45:05Z</time>
      </trkpt>
      <trkpt lat="43.20928" lon="2.0328">
        <ele>228.93</ele>
        <time>2017-11-18T14:45:20Z</time>
      </trkpt>
      <trkpt lat="43.20917" lon="2.03284">
        <ele>230.85</ele>
        <time>2017-11-18T14:45:33Z</time>
      </trkpt>
      <trkpt lat="43.20912" lon="2.03285">
        <ele>230.85</ele>
        <time>2017-11-18T14:45:38Z</time>
      </trkpt>
      <trkpt lat="43.20909" lon="2.03286">
        <ele>230.85</ele>
        <time>2017-11-18T14:45:41Z</time>
      </trkpt>
      <trkpt lat="43.20892" lon="2.03285">
        <ele>233.26</ele>
        <time>2017-11-18T14:45:58Z</time>
      </trkpt>
      <trkpt lat="43.20886" lon="2.03283">
        <ele>233.74</ele>
        <time>2017-11-18T14:46:04Z</time>
      </trkpt>
      <trkpt lat="43.20871" lon="2.03279">
        <ele>235.66</ele>
        <time>2017-11-18T14:46:20Z</time>
      </trkpt>
      <trkpt lat="43.2086" lon="2.03276">
        <ele>237.58</ele>
        <time>2017-11-18T14:46:34Z</time>
      </trkpt>
      <trkpt lat="43.20858" lon="2.03276">
        <ele>238.06</ele>
        <time>2017-11-18T14:46:36Z</time>
      </trkpt>
      <trkpt lat="43.20855" lon="2.03274">
        <ele>238.54</ele>
        <time>2017-11-18T14:46:39Z</time>
      </trkpt>
      <trkpt lat="43.20852" lon="2.03274">
        <ele>239.02</ele>
        <time>2017-11-18T14:46:44Z</time>
      </trkpt>
      <trkpt lat="43.20841" lon="2.03269">
        <ele>240.95</ele>
        <time>2017-11-18T14:46:56Z</time>
      </trkpt>
      <trkpt lat="43.20829" lon="2.03264">
        <ele>241.43</ele>
        <time>2017-11-18T14:47:09Z</time>
      </trkpt>
      <trkpt lat="43.20825" lon="2.03263">
        <ele>241.91</ele>
        <time>2017-11-18T14:47:12Z</time>
      </trkpt>
      <trkpt lat="43.20815" lon="2.03263">
        <ele>242.39</ele>
        <time>2017-11-18T14:47:22Z</time>
      </trkpt>
      <trkpt lat="43.20798" lon="2.03272">
        <ele>241.43</ele>
        <time>2017-11-18T14:47:39Z</time>
      </trkpt>
      <trkpt lat="43.20792" lon="2.03275">
        <ele>240.95</ele>
        <time>2017-11-18T14:47:46Z</time>
      </trkpt>
      <trkpt lat="43.20784" lon="2.03282">
        <ele>240.95</ele>
        <time>2017-11-18T14:47:54Z</time>
      </trkpt>
      <trkpt lat="43.20783" lon="2.03283">
        <ele>240.47</ele>
        <time>2017-11-18T14:47:56Z</time>
      </trkpt>
      <trkpt lat="43.20771" lon="2.03296">
        <ele>239.99</ele>
        <time>2017-11-18T14:48:09Z</time>
      </trkpt>
      <trkpt lat="43.20758" lon="2.03312">
        <ele>239.99</ele>
        <time>2017-11-18T14:48:24Z</time>
      </trkpt>
      <trkpt lat="43.20749" lon="2.03315">
        <ele>239.51</ele>
        <time>2017-11-18T14:48:32Z</time>
      </trkpt>
      <trkpt lat="43.20734" lon="2.03317">
        <ele>240.47</ele>
        <time>2017-11-18T14:48:46Z</time>
      </trkpt>
      <trkpt lat="43.20732" lon="2.03317">
        <ele>240.47</ele>
        <time>2017-11-18T14:48:48Z</time>
      </trkpt>
      <trkpt lat="43.20724" lon="2.03319">
        <ele>240.47</ele>
        <time>2017-11-18T14:48:56Z</time>
      </trkpt>
      <trkpt lat="43.20709" lon="2.03314">
        <ele>241.43</ele>
        <time>2017-11-18T14:49:11Z</time>
      </trkpt>
      <trkpt lat="43.20703" lon="2.03313">
        <ele>241.43</ele>
        <time>2017-11-18T14:49:16Z</time>
      </trkpt>
      <trkpt lat="43.20695" lon="2.03309">
        <ele>240.95</ele>
        <time>2017-11-18T14:49:28Z</time>
      </trkpt>
      <trkpt lat="43.20695" lon="2.03309">
        <ele>240.95</ele>
        <time>2017-11-18T14:49:29Z</time>
      </trkpt>
      <trkpt lat="43.20679" lon="2.03298">
        <ele>239.02</ele>
        <time>2017-11-18T14:49:44Z</time>
      </trkpt>
      <trkpt lat="43.20678" lon="2.03297">
        <ele>239.02</ele>
        <time>2017-11-18T14:49:45Z</time>
      </trkpt>
      <trkpt lat="43.20664" lon="2.03295">
        <ele>237.58</ele>
        <time>2017-11-18T14:49:56Z</time>
      </trkpt>
      <trkpt lat="43.20663" lon="2.03295">
        <ele>237.58</ele>
        <time>2017-11-18T14:49:57Z</time>
      </trkpt>
      <trkpt lat="43.2066" lon="2.03295">
        <ele>237.1</ele>
        <time>2017-11-18T14:50:00Z</time>
      </trkpt>
      <trkpt lat="43.20643" lon="2.03291">
        <ele>235.18</ele>
        <time>2017-11-18T14:50:15Z</time>
      </trkpt>
      <trkpt lat="43.20641" lon="2.03291">
        <ele>235.18</ele>
        <time>2017-11-18T14:50:17Z</time>
      </trkpt>
      <trkpt lat="43.20632" lon="2.03287">
        <ele>234.22</ele>
        <time>2017-11-18T14:50:25Z</time>
      </trkpt>
      <trkpt lat="43.20618" lon="2.03284">
        <ele>233.74</ele>
        <time>2017-11-18T14:50:38Z</time>
      </trkpt>
      <trkpt lat="43.20602" lon="2.03287">
        <ele>231.81</ele>
        <time>2017-11-18T14:50:52Z</time>
      </trkpt>
      <trkpt lat="43.20588" lon="2.03297">
        <ele>230.37</ele>
        <time>2017-11-18T14:51:06Z</time>
      </trkpt>
      <trkpt lat="43.20583" lon="2.03301">
        <ele>229.89</ele>
        <time>2017-11-18T14:51:11Z</time>
      </trkpt>
      <trkpt lat="43.20579" lon="2.03305">
        <ele>229.41</ele>
        <time>2017-11-18T14:51:15Z</time>
      </trkpt>
      <trkpt lat="43.2057" lon="2.03312">
        <ele>228.45</ele>
        <time>2017-11-18T14:51:23Z</time>
      </trkpt>
      <trkpt lat="43.20564" lon="2.03316">
        <ele>228.45</ele>
        <time>2017-11-18T14:51:28Z</time>
      </trkpt>
      <trkpt lat="43.20547" lon="2.03328">
        <ele>227.01</ele>
        <time>2017-11-18T14:51:45Z</time>
      </trkpt>
      <trkpt lat="43.20532" lon="2.03341">
        <ele>226.53</ele>
        <time>2017-11-18T14:52:00Z</time>
      </trkpt>
      <trkpt lat="43.20514" lon="2.03356">
        <ele>225.57</ele>
        <time>2017-11-18T14:52:15Z</time>
      </trkpt>
      <trkpt lat="43.20511" lon="2.03359">
        <ele>225.57</ele>
        <time>2017-11-18T14:52:18Z</time>
      </trkpt>
      <trkpt lat="43.20503" lon="2.03365">
        <ele>225.09</ele>
        <time>2017-11-18T14:52:25Z</time>
      </trkpt>
      <trkpt lat="43.20484" lon="2.03378">
        <ele>223.64</ele>
        <time>2017-11-18T14:52:41Z</time>
      </trkpt>
      <trkpt lat="43.20469" lon="2.03384">
        <ele>222.68</ele>
        <time>2017-11-18T14:52:55Z</time>
      </trkpt>
      <trkpt lat="43.20451" lon="2.03393">
        <ele>220.76</ele>
        <time>2017-11-18T14:53:09Z</time>
      </trkpt>
      <trkpt lat="43.20439" lon="2.03401">
        <ele>219.32</ele>
        <time>2017-11-18T14:53:21Z</time>
      </trkpt>
      <trkpt lat="43.20429" lon="2.03408">
        <ele>218.84</ele>
        <time>2017-11-18T14:53:29Z</time>
      </trkpt>
      <trkpt lat="43.20419" lon="2.03415">
        <ele>217.88</ele>
        <time>2017-11-18T14:53:41Z</time>
      </trkpt>
      <trkpt lat="43.20419" lon="2.03414">
        <ele>217.88</ele>
        <time>2017-11-18T14:53:44Z</time>
      </trkpt>
      <trkpt lat="43.20417" lon="2.03414">
        <ele>217.4</ele>
        <time>2017-11-18T14:53:46Z</time>
      </trkpt>
      <trkpt lat="43.20411" lon="2.03413">
        <ele>216.91</ele>
        <time>2017-11-18T14:53:51Z</time>
      </trkpt>
      <trkpt lat="43.20407" lon="2.03411">
        <ele>216.43</ele>
        <time>2017-11-18T14:53:54Z</time>
      </trkpt>
      <trkpt lat="43.20403" lon="2.03409">
        <ele>215.47</ele>
        <time>2017-11-18T14:53:58Z</time>
      </trkpt>
      <trkpt lat="43.20393" lon="2.03393">
        <ele>214.03</ele>
        <time>2017-11-18T14:54:11Z</time>
      </trkpt>
      <trkpt lat="43.20387" lon="2.03387">
        <ele>213.55</ele>
        <time>2017-11-18T14:54:17Z</time>
      </trkpt>
      <trkpt lat="43.20379" lon="2.03382">
        <ele>213.07</ele>
        <time>2017-11-18T14:54:25Z</time>
      </trkpt>
      <trkpt lat="43.20377" lon="2.0338">
        <ele>213.07</ele>
        <time>2017-11-18T14:54:27Z</time>
      </trkpt>
      <trkpt lat="43.20373" lon="2.03378">
        <ele>213.07</ele>
        <time>2017-11-18T14:54:31Z</time>
      </trkpt>
      <trkpt lat="43.20368" lon="2.03372">
        <ele>212.59</ele>
        <time>2017-11-18T14:54:37Z</time>
      </trkpt>
      <trkpt lat="43.20366" lon="2.03371">
        <ele>212.59</ele>
        <time>2017-11-18T14:54:40Z</time>
      </trkpt>
      <trkpt lat="43.2036" lon="2.03367">
        <ele>211.63</ele>
        <time>2017-11-18T14:54:45Z</time>
      </trkpt>
      <trkpt lat="43.20349" lon="2.03359">
        <ele>210.67</ele>
        <time>2017-11-18T14:54:54Z</time>
      </trkpt>
      <trkpt lat="43.20344" lon="2.03355">
        <ele>210.19</ele>
        <time>2017-11-18T14:54:59Z</time>
      </trkpt>
      <trkpt lat="43.2032" lon="2.03345">
        <ele>207.78</ele>
        <time>2017-11-18T14:55:16Z</time>
      </trkpt>
      <trkpt lat="43.20306" lon="2.03343">
        <ele>206.34</ele>
        <time>2017-11-18T14:55:28Z</time>
      </trkpt>
      <trkpt lat="43.20287" lon="2.03337">
        <ele>204.9</ele>
        <time>2017-11-18T14:55:43Z</time>
      </trkpt>
      <trkpt lat="43.20281" lon="2.03337">
        <ele>203.94</ele>
        <time>2017-11-18T14:55:47Z</time>
      </trkpt>
      <trkpt lat="43.20275" lon="2.03336">
        <ele>203.94</ele>
        <time>2017-11-18T14:55:52Z</time>
      </trkpt>
      <trkpt lat="43.2026" lon="2.03338">
        <ele>202.49</ele>
        <time>2017-11-18T14:56:02Z</time>
      </trkpt>
      <trkpt lat="43.2025" lon="2.03341">
        <ele>201.53</ele>
        <time>2017-11-18T14:56:11Z</time>
      </trkpt>
      <trkpt lat="43.20226" lon="2.03357">
        <ele>200.57</ele>
        <time>2017-11-18T14:56:29Z</time>
      </trkpt>
      <trkpt lat="43.20211" lon="2.0337">
        <ele>199.13</ele>
        <time>2017-11-18T14:56:42Z</time>
      </trkpt>
      <trkpt lat="43.20191" lon="2.03375">
        <ele>198.65</ele>
        <time>2017-11-18T14:56:56Z</time>
      </trkpt>
      <trkpt lat="43.2019" lon="2.03376">
        <ele>198.17</ele>
        <time>2017-11-18T14:56:57Z</time>
      </trkpt>
      <trkpt lat="43.20164" lon="2.03382">
        <ele>197.69</ele>
        <time>2017-11-18T14:57:15Z</time>
      </trkpt>
      <trkpt lat="43.2014" lon="2.03386">
        <ele>197.21</ele>
        <time>2017-11-18T14:57:31Z</time>
      </trkpt>
      <trkpt lat="43.20123" lon="2.03389">
        <ele>196.25</ele>
        <time>2017-11-18T14:57:45Z</time>
      </trkpt>
      <trkpt lat="43.20105" lon="2.03391">
        <ele>196.25</ele>
        <time>2017-11-18T14:57:59Z</time>
      </trkpt>
      <trkpt lat="43.20088" lon="2.03392">
        <ele>195.77</ele>
        <time>2017-11-18T14:58:12Z</time>
      </trkpt>
      <trkpt lat="43.20069" lon="2.03386">
        <ele>196.73</ele>
        <time>2017-11-18T14:58:26Z</time>
      </trkpt>
      <trkpt lat="43.2005" lon="2.03375">
        <ele>197.21</ele>
        <time>2017-11-18T14:58:41Z</time>
      </trkpt>
      <trkpt lat="43.20033" lon="2.03368">
        <ele>198.17</ele>
        <time>2017-11-18T14:58:55Z</time>
      </trkpt>
      <trkpt lat="43.20013" lon="2.03365">
        <ele>200.09</ele>
        <time>2017-11-18T14:59:11Z</time>
      </trkpt>
      <trkpt lat="43.20003" lon="2.03366">
        <ele>201.53</ele>
        <time>2017-11-18T14:59:20Z</time>
      </trkpt>
      <trkpt lat="43.19989" lon="2.0337">
        <ele>202.98</ele>
        <time>2017-11-18T14:59:33Z</time>
      </trkpt>
      <trkpt lat="43.19972" lon="2.03372">
        <ele>204.9</ele>
        <time>2017-11-18T14:59:47Z</time>
      </trkpt>
      <trkpt lat="43.19956" lon="2.03376">
        <ele>207.3</ele>
        <time>2017-11-18T15:00:03Z</time>
      </trkpt>
      <trkpt lat="43.19947" lon="2.03379">
        <ele>208.26</ele>
        <time>2017-11-18T15:00:11Z</time>
      </trkpt>
      <trkpt lat="43.19931" lon="2.03383">
        <ele>209.7</ele>
        <time>2017-11-18T15:00:25Z</time>
      </trkpt>
      <trkpt lat="43.19927" lon="2.03384">
        <ele>209.7</ele>
        <time>2017-11-18T15:00:29Z</time>
      </trkpt>
      <trkpt lat="43.1991" lon="2.03392">
        <ele>210.67</ele>
        <time>2017-11-18T15:00:44Z</time>
      </trkpt>
      <trkpt lat="43.19903" lon="2.03395">
        <ele>212.11</ele>
        <time>2017-11-18T15:00:50Z</time>
      </trkpt>
      <trkpt lat="43.19889" lon="2.03403">
        <ele>213.07</ele>
        <time>2017-11-18T15:01:04Z</time>
      </trkpt>
      <trkpt lat="43.1988" lon="2.03408">
        <ele>213.07</ele>
        <time>2017-11-18T15:01:14Z</time>
      </trkpt>
      <trkpt lat="43.19861" lon="2.03418">
        <ele>214.51</ele>
        <time>2017-11-18T15:01:31Z</time>
      </trkpt>
      <trkpt lat="43.19841" lon="2.03427">
        <ele>216.43</ele>
        <time>2017-11-18T15:01:47Z</time>
      </trkpt>
      <trkpt lat="43.19824" lon="2.03432">
        <ele>217.88</ele>
        <time>2017-11-18T15:02:01Z</time>
      </trkpt>
      <trkpt lat="43.19808" lon="2.03437">
        <ele>219.32</ele>
        <time>2017-11-18T15:02:14Z</time>
      </trkpt>
      <trkpt lat="43.19795" lon="2.03442">
        <ele>221.24</ele>
        <time>2017-11-18T15:02:25Z</time>
      </trkpt>
      <trkpt lat="43.19778" lon="2.0345">
        <ele>222.68</ele>
        <time>2017-11-18T15:02:40Z</time>
      </trkpt>
      <trkpt lat="43.19766" lon="2.03458">
        <ele>223.16</ele>
        <time>2017-11-18T15:02:50Z</time>
      </trkpt>
      <trkpt lat="43.1976" lon="2.03463">
        <ele>224.12</ele>
        <time>2017-11-18T15:02:56Z</time>
      </trkpt>
      <trkpt lat="43.19749" lon="2.03479">
        <ele>226.05</ele>
        <time>2017-11-18T15:03:11Z</time>
      </trkpt>
      <trkpt lat="43.19741" lon="2.03494">
        <ele>228.45</ele>
        <time>2017-11-18T15:03:24Z</time>
      </trkpt>
      <trkpt lat="43.19733" lon="2.0351">
        <ele>230.37</ele>
        <time>2017-11-18T15:03:36Z</time>
      </trkpt>
      <trkpt lat="43.19721" lon="2.03518">
        <ele>232.3</ele>
        <time>2017-11-18T15:03:50Z</time>
      </trkpt>
      <trkpt lat="43.19704" lon="2.03525">
        <ele>234.22</ele>
        <time>2017-11-18T15:04:06Z</time>
      </trkpt>
      <trkpt lat="43.19685" lon="2.03533">
        <ele>236.14</ele>
        <time>2017-11-18T15:04:24Z</time>
      </trkpt>
      <trkpt lat="43.19668" lon="2.03541">
        <ele>238.06</ele>
        <time>2017-11-18T15:04:39Z</time>
      </trkpt>
      <trkpt lat="43.19659" lon="2.03545">
        <ele>239.99</ele>
        <time>2017-11-18T15:04:49Z</time>
      </trkpt>
      <trkpt lat="43.19646" lon="2.03552">
        <ele>242.87</ele>
        <time>2017-11-18T15:05:04Z</time>
      </trkpt>
      <trkpt lat="43.19641" lon="2.03557">
        <ele>244.31</ele>
        <time>2017-11-18T15:05:11Z</time>
      </trkpt>
      <trkpt lat="43.19631" lon="2.03573">
        <ele>246.23</ele>
        <time>2017-11-18T15:05:25Z</time>
      </trkpt>
      <trkpt lat="43.19619" lon="2.03584">
        <ele>248.16</ele>
        <time>2017-11-18T15:05:38Z</time>
      </trkpt>
      <trkpt lat="43.19618" lon="2.03584">
        <ele>248.16</ele>
        <time>2017-11-18T15:05:39Z</time>
      </trkpt>
      <trkpt lat="43.19599" lon="2.03588">
        <ele>249.12</ele>
        <time>2017-11-18T15:05:55Z</time>
      </trkpt>
      <trkpt lat="43.19584" lon="2.03599">
        <ele>248.64</ele>
        <time>2017-11-18T15:06:08Z</time>
      </trkpt>
      <trkpt lat="43.1957" lon="2.03612">
        <ele>247.68</ele>
        <time>2017-11-18T15:06:21Z</time>
      </trkpt>
      <trkpt lat="43.19557" lon="2.0362">
        <ele>247.68</ele>
        <time>2017-11-18T15:06:32Z</time>
      </trkpt>
      <trkpt lat="43.19536" lon="2.03624">
        <ele>248.16</ele>
        <time>2017-11-18T15:06:49Z</time>
      </trkpt>
      <trkpt lat="43.19519" lon="2.0362">
        <ele>249.12</ele>
        <time>2017-11-18T15:07:04Z</time>
      </trkpt>
      <trkpt lat="43.19498" lon="2.03617">
        <ele>250.08</ele>
        <time>2017-11-18T15:07:21Z</time>
      </trkpt>
      <trkpt lat="43.19478" lon="2.03612">
        <ele>251.04</ele>
        <time>2017-11-18T15:07:37Z</time>
      </trkpt>
      <trkpt lat="43.19461" lon="2.03608">
        <ele>250.08</ele>
        <time>2017-11-18T15:07:50Z</time>
      </trkpt>
      <trkpt lat="43.19449" lon="2.03606">
        <ele>249.6</ele>
        <time>2017-11-18T15:07:59Z</time>
      </trkpt>
      <trkpt lat="43.19426" lon="2.03605">
        <ele>249.6</ele>
        <time>2017-11-18T15:08:16Z</time>
      </trkpt>
      <trkpt lat="43.19419" lon="2.03609">
        <ele>249.12</ele>
        <time>2017-11-18T15:08:21Z</time>
      </trkpt>
      <trkpt lat="43.19401" lon="2.03618">
        <ele>249.12</ele>
        <time>2017-11-18T15:08:37Z</time>
      </trkpt>
      <trkpt lat="43.19381" lon="2.03627">
        <ele>249.6</ele>
        <time>2017-11-18T15:08:52Z</time>
      </trkpt>
      <trkpt lat="43.19363" lon="2.03635">
        <ele>251.04</ele>
        <time>2017-11-18T15:09:06Z</time>
      </trkpt>
      <trkpt lat="43.19358" lon="2.03639">
        <ele>251.04</ele>
        <time>2017-11-18T15:09:10Z</time>
      </trkpt>
      <trkpt lat="43.1934" lon="2.03652">
        <ele>252.48</ele>
        <time>2017-11-18T15:09:25Z</time>
      </trkpt>
      <trkpt lat="43.19326" lon="2.03664">
        <ele>253.93</ele>
        <time>2017-11-18T15:09:38Z</time>
      </trkpt>
      <trkpt lat="43.19318" lon="2.03671">
        <ele>255.37</ele>
        <time>2017-11-18T15:09:45Z</time>
      </trkpt>
      <trkpt lat="43.19307" lon="2.03679">
        <ele>256.33</ele>
        <time>2017-11-18T15:09:56Z</time>
      </trkpt>
      <trkpt lat="43.19304" lon="2.03682">
        <ele>256.33</ele>
        <time>2017-11-18T15:10:00Z</time>
      </trkpt>
      <trkpt lat="43.19294" lon="2.0369">
        <ele>256.81</ele>
        <time>2017-11-18T15:10:09Z</time>
      </trkpt>
      <trkpt lat="43.19279" lon="2.03689">
        <ele>259.21</ele>
        <time>2017-11-18T15:10:21Z</time>
      </trkpt>
      <trkpt lat="43.19262" lon="2.03688">
        <ele>261.62</ele>
        <time>2017-11-18T15:10:37Z</time>
      </trkpt>
      <trkpt lat="43.19244" lon="2.03686">
        <ele>264.02</ele>
        <time>2017-11-18T15:10:54Z</time>
      </trkpt>
      <trkpt lat="43.19235" lon="2.03676">
        <ele>265.94</ele>
        <time>2017-11-18T15:11:05Z</time>
      </trkpt>
      <trkpt lat="43.19234" lon="2.03667">
        <ele>266.9</ele>
        <time>2017-11-18T15:11:12Z</time>
      </trkpt>
      <trkpt lat="43.19238" lon="2.03644">
        <ele>268.83</ele>
        <time>2017-11-18T15:11:27Z</time>
      </trkpt>
      <trkpt lat="43.19239" lon="2.03636">
        <ele>269.31</ele>
        <time>2017-11-18T15:11:32Z</time>
      </trkpt>
      <trkpt lat="43.19239" lon="2.03617">
        <ele>270.75</ele>
        <time>2017-11-18T15:11:44Z</time>
      </trkpt>
      <trkpt lat="43.19237" lon="2.03606">
        <ele>272.19</ele>
        <time>2017-11-18T15:11:52Z</time>
      </trkpt>
      <trkpt lat="43.19234" lon="2.03589">
        <ele>273.63</ele>
        <time>2017-11-18T15:12:04Z</time>
      </trkpt>
      <trkpt lat="43.19226" lon="2.0357">
        <ele>275.56</ele>
        <time>2017-11-18T15:12:19Z</time>
      </trkpt>
      <trkpt lat="43.19216" lon="2.03556">
        <ele>276.52</ele>
        <time>2017-11-18T15:12:32Z</time>
      </trkpt>
      <trkpt lat="43.1921" lon="2.03551">
        <ele>275.56</ele>
        <time>2017-11-18T15:12:38Z</time>
      </trkpt>
      <trkpt lat="43.19201" lon="2.03537">
        <ele>277</ele>
        <time>2017-11-18T15:12:49Z</time>
      </trkpt>
      <trkpt lat="43.19187" lon="2.03524">
        <ele>277.48</ele>
        <time>2017-11-18T15:13:03Z</time>
      </trkpt>
      <trkpt lat="43.19178" lon="2.0352">
        <ele>277.96</ele>
        <time>2017-11-18T15:13:10Z</time>
      </trkpt>
      <trkpt lat="43.19169" lon="2.03515">
        <ele>278.44</ele>
        <time>2017-11-18T15:13:18Z</time>
      </trkpt>
      <trkpt lat="43.19154" lon="2.03511">
        <ele>278.44</ele>
        <time>2017-11-18T15:13:30Z</time>
      </trkpt>
      <trkpt lat="43.19149" lon="2.03511">
        <ele>278.44</ele>
        <time>2017-11-18T15:13:33Z</time>
      </trkpt>
      <trkpt lat="43.19128" lon="2.03504">
        <ele>279.4</ele>
        <time>2017-11-18T15:13:50Z</time>
      </trkpt>
      <trkpt lat="43.19114" lon="2.035">
        <ele>279.88</ele>
        <time>2017-11-18T15:14:04Z</time>
      </trkpt>
      <trkpt lat="43.19114" lon="2.03498">
        <ele>279.88</ele>
        <time>2017-11-18T15:14:18Z</time>
      </trkpt>
      <trkpt lat="43.19113" lon="2.03498">
        <ele>279.4</ele>
        <time>2017-11-18T15:14:31Z</time>
      </trkpt>
      <trkpt lat="43.19102" lon="2.03486">
        <ele>280.36</ele>
        <time>2017-11-18T15:14:42Z</time>
      </trkpt>
      <trkpt lat="43.191" lon="2.03481">
        <ele>280.36</ele>
        <time>2017-11-18T15:14:45Z</time>
      </trkpt>
      <trkpt lat="43.19095" lon="2.03473">
        <ele>280.36</ele>
        <time>2017-11-18T15:14:52Z</time>
      </trkpt>
      <trkpt lat="43.19084" lon="2.03446">
        <ele>281.32</ele>
        <time>2017-11-18T15:15:11Z</time>
      </trkpt>
      <trkpt lat="43.19083" lon="2.0344">
        <ele>280.84</ele>
        <time>2017-11-18T15:15:14Z</time>
      </trkpt>
      <trkpt lat="43.19081" lon="2.03431">
        <ele>281.32</ele>
        <time>2017-11-18T15:15:18Z</time>
      </trkpt>
      <trkpt lat="43.19081" lon="2.03419">
        <ele>281.32</ele>
        <time>2017-11-18T15:15:24Z</time>
      </trkpt>
      <trkpt lat="43.19082" lon="2.03397">
        <ele>281.8</ele>
        <time>2017-11-18T15:15:38Z</time>
      </trkpt>
      <trkpt lat="43.19089" lon="2.03374">
        <ele>283.25</ele>
        <time>2017-11-18T15:15:52Z</time>
      </trkpt>
      <trkpt lat="43.19094" lon="2.03367">
        <ele>283.25</ele>
        <time>2017-11-18T15:15:57Z</time>
      </trkpt>
      <trkpt lat="43.19102" lon="2.03353">
        <ele>283.73</ele>
        <time>2017-11-18T15:16:06Z</time>
      </trkpt>
      <trkpt lat="43.19113" lon="2.03336">
        <ele>284.21</ele>
        <time>2017-11-18T15:16:18Z</time>
      </trkpt>
      <trkpt lat="43.19129" lon="2.03312">
        <ele>285.17</ele>
        <time>2017-11-18T15:16:34Z</time>
      </trkpt>
      <trkpt lat="43.19141" lon="2.03293">
        <ele>286.13</ele>
        <time>2017-11-18T15:16:48Z</time>
      </trkpt>
      <trkpt lat="43.19147" lon="2.03281">
        <ele>286.13</ele>
        <time>2017-11-18T15:16:56Z</time>
      </trkpt>
      <trkpt lat="43.19151" lon="2.03271">
        <ele>286.13</ele>
        <time>2017-11-18T15:17:03Z</time>
      </trkpt>
      <trkpt lat="43.19153" lon="2.03259">
        <ele>286.61</ele>
        <time>2017-11-18T15:17:09Z</time>
      </trkpt>
      <trkpt lat="43.19162" lon="2.0323">
        <ele>287.09</ele>
        <time>2017-11-18T15:17:25Z</time>
      </trkpt>
      <trkpt lat="43.19167" lon="2.0322">
        <ele>287.57</ele>
        <time>2017-11-18T15:17:32Z</time>
      </trkpt>
      <trkpt lat="43.19174" lon="2.03205">
        <ele>288.53</ele>
        <time>2017-11-18T15:17:41Z</time>
      </trkpt>
      <trkpt lat="43.19175" lon="2.03202">
        <ele>288.53</ele>
        <time>2017-11-18T15:17:43Z</time>
      </trkpt>
      <trkpt lat="43.19185" lon="2.03175">
        <ele>289.49</ele>
        <time>2017-11-18T15:18:00Z</time>
      </trkpt>
      <trkpt lat="43.19187" lon="2.03169">
        <ele>289.49</ele>
        <time>2017-11-18T15:18:13Z</time>
      </trkpt>
      <trkpt lat="43.19195" lon="2.03151">
        <ele>290.46</ele>
        <time>2017-11-18T15:18:27Z</time>
      </trkpt>
      <trkpt lat="43.19204" lon="2.0313">
        <ele>290.94</ele>
        <time>2017-11-18T15:18:40Z</time>
      </trkpt>
      <trkpt lat="43.19212" lon="2.03107">
        <ele>291.9</ele>
        <time>2017-11-18T15:18:53Z</time>
      </trkpt>
      <trkpt lat="43.1922" lon="2.0308">
        <ele>292.38</ele>
        <time>2017-11-18T15:19:09Z</time>
      </trkpt>
      <trkpt lat="43.19222" lon="2.0307">
        <ele>292.86</ele>
        <time>2017-11-18T15:19:15Z</time>
      </trkpt>
      <trkpt lat="43.19221" lon="2.03042">
        <ele>293.34</ele>
        <time>2017-11-18T15:19:30Z</time>
      </trkpt>
      <trkpt lat="43.19216" lon="2.03012">
        <ele>294.3</ele>
        <time>2017-11-18T15:19:46Z</time>
      </trkpt>
      <trkpt lat="43.19206" lon="2.02992">
        <ele>294.78</ele>
        <time>2017-11-18T15:19:58Z</time>
      </trkpt>
      <trkpt lat="43.19191" lon="2.02976">
        <ele>296.22</ele>
        <time>2017-11-18T15:20:13Z</time>
      </trkpt>
      <trkpt lat="43.19189" lon="2.02973">
        <ele>296.22</ele>
        <time>2017-11-18T15:20:15Z</time>
      </trkpt>
      <trkpt lat="43.19183" lon="2.02968">
        <ele>296.7</ele>
        <time>2017-11-18T15:20:20Z</time>
      </trkpt>
      <trkpt lat="43.19165" lon="2.02964">
        <ele>297.67</ele>
        <time>2017-11-18T15:20:35Z</time>
      </trkpt>
      <trkpt lat="43.1916" lon="2.02969">
        <ele>298.63</ele>
        <time>2017-11-18T15:20:40Z</time>
      </trkpt>
      <trkpt lat="43.19156" lon="2.02977">
        <ele>299.11</ele>
        <time>2017-11-18T15:20:46Z</time>
      </trkpt>
      <trkpt lat="43.19154" lon="2.02982">
        <ele>299.11</ele>
        <time>2017-11-18T15:20:50Z</time>
      </trkpt>
      <trkpt lat="43.19152" lon="2.02989">
        <ele>299.59</ele>
        <time>2017-11-18T15:21:02Z</time>
      </trkpt>
      <trkpt lat="43.19143" lon="2.03003">
        <ele>301.03</ele>
        <time>2017-11-18T15:21:13Z</time>
      </trkpt>
      <trkpt lat="43.19136" lon="2.03018">
        <ele>302.47</ele>
        <time>2017-11-18T15:21:25Z</time>
      </trkpt>
      <trkpt lat="43.19129" lon="2.03034">
        <ele>303.43</ele>
        <time>2017-11-18T15:21:38Z</time>
      </trkpt>
      <trkpt lat="43.1912" lon="2.03051">
        <ele>304.88</ele>
        <time>2017-11-18T15:21:52Z</time>
      </trkpt>
      <trkpt lat="43.19117" lon="2.03055">
        <ele>305.36</ele>
        <time>2017-11-18T15:21:55Z</time>
      </trkpt>
      <trkpt lat="43.19109" lon="2.03069">
        <ele>306.8</ele>
        <time>2017-11-18T15:22:08Z</time>
      </trkpt>
      <trkpt lat="43.19102" lon="2.03086">
        <ele>308.24</ele>
        <time>2017-11-18T15:22:21Z</time>
      </trkpt>
      <trkpt lat="43.19101" lon="2.03087">
        <ele>308.24</ele>
        <time>2017-11-18T15:22:22Z</time>
      </trkpt>
      <trkpt lat="43.19094" lon="2.0311">
        <ele>309.68</ele>
        <time>2017-11-18T15:22:39Z</time>
      </trkpt>
      <trkpt lat="43.19093" lon="2.03112">
        <ele>310.16</ele>
        <time>2017-11-18T15:22:41Z</time>
      </trkpt>
      <trkpt lat="43.19091" lon="2.03118">
        <ele>310.16</ele>
        <time>2017-11-18T15:22:45Z</time>
      </trkpt>
      <trkpt lat="43.19083" lon="2.0314">
        <ele>312.09</ele>
        <time>2017-11-18T15:23:01Z</time>
      </trkpt>
      <trkpt lat="43.19079" lon="2.0315">
        <ele>312.57</ele>
        <time>2017-11-18T15:23:08Z</time>
      </trkpt>
      <trkpt lat="43.19068" lon="2.03172">
        <ele>314.49</ele>
        <time>2017-11-18T15:23:23Z</time>
      </trkpt>
      <trkpt lat="43.19061" lon="2.03193">
        <ele>314.97</ele>
        <time>2017-11-18T15:23:38Z</time>
      </trkpt>
      <trkpt lat="43.19052" lon="2.03215">
        <ele>315.93</ele>
        <time>2017-11-18T15:23:54Z</time>
      </trkpt>
      <trkpt lat="43.19038" lon="2.03234">
        <ele>317.85</ele>
        <time>2017-11-18T15:24:12Z</time>
      </trkpt>
      <trkpt lat="43.19023" lon="2.03249">
        <ele>319.78</ele>
        <time>2017-11-18T15:24:29Z</time>
      </trkpt>
      <trkpt lat="43.19007" lon="2.03266">
        <ele>322.18</ele>
        <time>2017-11-18T15:24:46Z</time>
      </trkpt>
      <trkpt lat="43.18997" lon="2.03278">
        <ele>324.1</ele>
        <time>2017-11-18T15:25:00Z</time>
      </trkpt>
      <trkpt lat="43.18997" lon="2.03279">
        <ele>324.1</ele>
        <time>2017-11-18T15:25:01Z</time>
      </trkpt>
      <trkpt lat="43.18987" lon="2.03293">
        <ele>326.02</ele>
        <time>2017-11-18T15:25:14Z</time>
      </trkpt>
      <trkpt lat="43.1898" lon="2.03308">
        <ele>328.91</ele>
        <time>2017-11-18T15:25:28Z</time>
      </trkpt>
      <trkpt lat="43.18979" lon="2.03313">
        <ele>329.39</ele>
        <time>2017-11-18T15:25:32Z</time>
      </trkpt>
      <trkpt lat="43.18973" lon="2.03326">
        <ele>331.31</ele>
        <time>2017-11-18T15:25:43Z</time>
      </trkpt>
      <trkpt lat="43.18968" lon="2.03338">
        <ele>332.75</ele>
        <time>2017-11-18T15:25:55Z</time>
      </trkpt>
      <trkpt lat="43.18962" lon="2.03347">
        <ele>332.75</ele>
        <time>2017-11-18T15:26:07Z</time>
      </trkpt>
      <trkpt lat="43.18957" lon="2.03353">
        <ele>333.71</ele>
        <time>2017-11-18T15:26:15Z</time>
      </trkpt>
      <trkpt lat="43.18951" lon="2.03359">
        <ele>334.2</ele>
        <time>2017-11-18T15:26:22Z</time>
      </trkpt>
      <trkpt lat="43.18945" lon="2.03364">
        <ele>334.68</ele>
        <time>2017-11-18T15:26:29Z</time>
      </trkpt>
      <trkpt lat="43.18936" lon="2.03378">
        <ele>335.64</ele>
        <time>2017-11-18T15:26:43Z</time>
      </trkpt>
      <trkpt lat="43.18926" lon="2.03389">
        <ele>337.56</ele>
        <time>2017-11-18T15:26:57Z</time>
      </trkpt>
      <trkpt lat="43.18915" lon="2.03401">
        <ele>339.48</ele>
        <time>2017-11-18T15:27:10Z</time>
      </trkpt>
      <trkpt lat="43.18907" lon="2.03411">
        <ele>341.41</ele>
        <time>2017-11-18T15:27:22Z</time>
      </trkpt>
      <trkpt lat="43.189" lon="2.0342">
        <ele>342.85</ele>
        <time>2017-11-18T15:27:34Z</time>
      </trkpt>
      <trkpt lat="43.18896" lon="2.03425">
        <ele>343.81</ele>
        <time>2017-11-18T15:27:39Z</time>
      </trkpt>
      <trkpt lat="43.18891" lon="2.03431">
        <ele>344.29</ele>
        <time>2017-11-18T15:27:45Z</time>
      </trkpt>
      <trkpt lat="43.18882" lon="2.03444">
        <ele>344.77</ele>
        <time>2017-11-18T15:27:55Z</time>
      </trkpt>
      <trkpt lat="43.18872" lon="2.0345">
        <ele>344.77</ele>
        <time>2017-11-18T15:28:03Z</time>
      </trkpt>
      <trkpt lat="43.1885" lon="2.0344">
        <ele>346.21</ele>
        <time>2017-11-18T15:28:20Z</time>
      </trkpt>
      <trkpt lat="43.18835" lon="2.03426">
        <ele>348.13</ele>
        <time>2017-11-18T15:28:35Z</time>
      </trkpt>
      <trkpt lat="43.18824" lon="2.03417">
        <ele>348.62</ele>
        <time>2017-11-18T15:28:45Z</time>
      </trkpt>
      <trkpt lat="43.18819" lon="2.03414">
        <ele>349.1</ele>
        <time>2017-11-18T15:28:50Z</time>
      </trkpt>
      <trkpt lat="43.18801" lon="2.03398">
        <ele>348.62</ele>
        <time>2017-11-18T15:29:08Z</time>
      </trkpt>
      <trkpt lat="43.18787" lon="2.03383">
        <ele>347.65</ele>
        <time>2017-11-18T15:29:21Z</time>
      </trkpt>
      <trkpt lat="43.18771" lon="2.03372">
        <ele>346.69</ele>
        <time>2017-11-18T15:29:36Z</time>
      </trkpt>
      <trkpt lat="43.18769" lon="2.0337">
        <ele>346.69</ele>
        <time>2017-11-18T15:29:38Z</time>
      </trkpt>
      <trkpt lat="43.18755" lon="2.03359">
        <ele>346.69</ele>
        <time>2017-11-18T15:29:52Z</time>
      </trkpt>
      <trkpt lat="43.1873" lon="2.03343">
        <ele>345.73</ele>
        <time>2017-11-18T15:30:17Z</time>
      </trkpt>
      <trkpt lat="43.18714" lon="2.03331">
        <ele>344.29</ele>
        <time>2017-11-18T15:30:33Z</time>
      </trkpt>
      <trkpt lat="43.18697" lon="2.03321">
        <ele>343.33</ele>
        <time>2017-11-18T15:30:46Z</time>
      </trkpt>
      <trkpt lat="43.18682" lon="2.03311">
        <ele>342.37</ele>
        <time>2017-11-18T15:30:58Z</time>
      </trkpt>
      <trkpt lat="43.18672" lon="2.03307">
        <ele>341.89</ele>
        <time>2017-11-18T15:31:10Z</time>
      </trkpt>
      <trkpt lat="43.18668" lon="2.03308">
        <ele>341.89</ele>
        <time>2017-11-18T15:31:17Z</time>
      </trkpt>
      <trkpt lat="43.18663" lon="2.03307">
        <ele>340.92</ele>
        <time>2017-11-18T15:31:21Z</time>
      </trkpt>
      <trkpt lat="43.18651" lon="2.03299">
        <ele>339.96</ele>
        <time>2017-11-18T15:31:34Z</time>
      </trkpt>
      <trkpt lat="43.18646" lon="2.03291">
        <ele>339.48</ele>
        <time>2017-11-18T15:31:41Z</time>
      </trkpt>
      <trkpt lat="43.1864" lon="2.0329">
        <ele>339</ele>
        <time>2017-11-18T15:31:46Z</time>
      </trkpt>
      <trkpt lat="43.18635" lon="2.03286">
        <ele>338.04</ele>
        <time>2017-11-18T15:31:51Z</time>
      </trkpt>
      <trkpt lat="43.1863" lon="2.03282">
        <ele>337.56</ele>
        <time>2017-11-18T15:31:56Z</time>
      </trkpt>
      <trkpt lat="43.18623" lon="2.0328">
        <ele>336.6</ele>
        <time>2017-11-18T15:32:02Z</time>
      </trkpt>
      <trkpt lat="43.18618" lon="2.03272">
        <ele>335.64</ele>
        <time>2017-11-18T15:32:12Z</time>
      </trkpt>
      <trkpt lat="43.1862" lon="2.03268">
        <ele>336.12</ele>
        <time>2017-11-18T15:32:15Z</time>
      </trkpt>
      <trkpt lat="43.18622" lon="2.03261">
        <ele>337.08</ele>
        <time>2017-11-18T15:32:22Z</time>
      </trkpt>
      <trkpt lat="43.18621" lon="2.03265">
        <ele>336.6</ele>
        <time>2017-11-18T15:32:34Z</time>
      </trkpt>
      <trkpt lat="43.18621" lon="2.03264">
        <ele>336.6</ele>
        <time>2017-11-18T15:32:38Z</time>
      </trkpt>
      <trkpt lat="43.18621" lon="2.03243">
        <ele>337.56</ele>
        <time>2017-11-18T15:32:51Z</time>
      </trkpt>
      <trkpt lat="43.18615" lon="2.03228">
        <ele>337.56</ele>
        <time>2017-11-18T15:33:04Z</time>
      </trkpt>
      <trkpt lat="43.18619" lon="2.03227">
        <ele>337.56</ele>
        <time>2017-11-18T15:33:23Z</time>
      </trkpt>
    </trkseg>
  </trk>
</gpx>